     2              OBSERVATION DATA    GPS                 RINEX VERSION / TYPE
teqc 1997Sep28 Duncan Agnew 19980804 18:55:00UTC            PGM / RUN BY / DATE
                                                            COMMENT
BIT 2 OF LLI FLAGS DATA COLLECTED UNDER A-S CONDITION       COMMENT
BIT 2 OF LLI FLAGS DATA COLLECTED UNDER A-S CONDITION       COMMENT
Original Marker Name: LA QUINTA                             COMMENT
Campaign Name: Pinyon Polygon 1991                          COMMENT
4-Character Station Name: PTHP                              COMMENT
6-Character Antenna Code: TRMSST                            COMMENT
Vertical Measurement Point: BGP                             COMMENT
Vertical Offset to Rinex Ref. Point: 0.0597                 COMMENT
Radial Measurement Point: NGP                               COMMENT
Radial Offset to Rinex Ref. Point: 0.2334                   COMMENT
Antenna Height from Field Measurement: 1.2500 m             COMMENT
21:50 UT Receiver reads that it had a power                 COMMENT
failure.                                                    COMMENT
Original XYZ: 0.0000 0.0000 0.0000                          COMMENT
New XYZ position is based on association with SCEC monument COMMENT
E1D0T6F4+0011. Position of that monument is believed to be  COMMENT
valid to within 1 m horizontally; vertical accuracy         COMMENT
should be no worse than 3-times this value.                 COMMENT
                                                            COMMENT
Revised Rinex header created by UCSD GPS archive for        COMMENT
GSAC on 14-Apr-1999 (1999:104) 20:04:07 GMT                 COMMENT
For assistance contact dagnew@ucsd.edu or hjohnson@ucsd.edu COMMENT
                                                            COMMENT
UNSTAMPED PIN (PT HAPPY)                                    MARKER NAME
Johnson SCRIPPS INSTITUTION OF OCEANOGRAPHY                 OBSERVER / AGENCY
491 TRIMBLE 4000 SST NP 4.11 / SP 4.10                      REC # / TYPE / VERS
27 TR 4000SST L1/L2 GEO                                     ANT # / TYPE
 -2353070.0000 -4761205.0000  3520142.0000                  APPROX POSITION XYZ
        1.1683        0.0000        0.0000                  ANTENNA: DELTA H/E/N
     1     1     0                                          WAVELENGTH FACT L1/2
     3    C1    L1    L2                                    # / TYPES OF OBSERV
     0                                                      INTERVAL
  1991     5     1    19     0   45.000000                  TIME OF FIRST OBS
  1991     5     1    21    49   30.000000                  TIME OF LAST OBS
     0                                                      # OF SATELLITES
                                                            END OF HEADER
 91  5  1 19  0 45.0000000  0  5G18G14G19G 2G11
  20282538.6724         -0.27658
  24071154.8914         -0.95155
  20918163.0634         -0.37257
  24515180.3204         -0.16055
  24022319.1334         -0.58555
 91  5  1 19  1  0.0000000  0  5G18G14G19G 2G11
  20278575.9614     -20819.43648        -0.02172
  24076369.2034      27381.73745
  20911457.1564     -35225.56147
  24500610.4614     -76574.50245
  24010043.6804     -64493.22345
 91  5  1 19  1 15.0000000  0  5G18G14G19G 2G11
  20274614.7274     -41637.20948    -16221.68262
  24081557.9614      54647.89545        -0.34971
  20904741.1804     -70519.58847        -0.03373
  24486020.2194    -153228.51245        -0.15171
  23997766.8054    -129031.70245        -0.46171
 91  5  1 19  1 30.0000000  0  5G18G14G19G 2G11
  20270654.4144     -62449.86548    -32439.35062
  24086721.8984      81801.37545     21157.91361
  20898013.2664    -105878.96847    -27552.78862
  24471418.0634    -229958.45545    -59789.57861
  23985479.5314    -193611.70745    -50322.42561
 91  5  1 19  1 45.0000000  0  5G18G14G19G 2G11
  20266696.5634     -83249.79648    -48647.09962
  24091873.7114     108848.89145     42233.60461
  20891274.6414    -141296.28047    -55150.68662
  24456805.7274    -306756.62845   -119632.13761
  23973182.8914    -258225.50945   -100670.73561
 91  5  1 19  2  0.0000000  0  5G18G14G19G 2G11
  20262739.0554    -104044.23448    -64850.56962
  24096997.4534     135782.90245     63220.89461
  20884522.0634    -176778.50447    -82799.16562
  24442173.2424    -383629.88445   -179533.21961
  23960878.3054    -322879.80745   -151050.61461
 91  5  1 19  2 15.0000000  0  5G18G14G19G 2G11
  20258784.6804    -124823.68848    -81042.36362
  24102104.8284     162612.38845     84126.69761
  20877759.2814    -212316.59847   -110491.18462
  24427536.1484    -460568.93245   -239485.58161
  23948567.1884    -387564.90445   -201454.47761
 91  5  1 19  2 30.0000000  0  5G18G14G19G 2G11
  20254837.1724    -145571.42348    -97209.44262
  24107192.2424     189353.80944    104963.86761
  20870989.0394    -247893.98347   -138213.81862
  24412883.1254    -537556.86545   -299476.03361
  23936258.5704    -452263.88545   -251869.16561
 91  5  1 19  2 45.0000000  0  5G18G14G19G 2G11
  20250895.2664    -166288.85248   -113352.90662
  24112265.0784     216005.11145    125730.82561
  20864211.9144    -283512.15147   -165968.22962
  24398226.7664    -614594.86445   -359505.45861
  23923943.2664    -516977.69445   -302295.40961
 91  5  1 19  2 59.9990000  0  6G18G14G19G 2G11G16
  20246958.0734    -186975.28248   -129472.21662
  24117316.9804     242563.63145    146425.50261
  20857425.4484    -319169.40047   -193753.09562
  24383556.0894    -691678.23245   -419570.29061
  23911625.3944    -581702.25045   -352730.03961
  25179261.2614         -0.62053
 91  5  1 19  3 14.9990000  0  6G18G14G19G 2G11G16
  20243027.6904    -207634.81148   -145570.55962
  24122357.7764     269030.99745    167049.13861
  20850629.7924    -354872.04647   -221573.33562
  24368873.1514    -768818.72345   -479679.62961
  23899308.1444    -646447.35845   -403180.66761
  25166244.1124     -68390.56844
 91  5  1 19  3 29.9990000  0  6G18G14G19G 2G11G16
  20239100.3624    -228273.63648   -161652.77662
  24127371.9254     295397.43145    187594.09361
  20843828.5114    -390625.08947   -249432.84362
  24354188.0194    -846018.47745   -539835.09861
  23886979.0894    -711215.72945   -453649.43561
  25153227.6834    -136789.56144
 91  5  1 19  3 44.9990000  0  6G18G14G19G 2G11G16
  20235176.8944    -248886.08848   -177714.44362
  24132370.4644     321667.97845    208064.37661
  20837014.7064    -426423.28747   -277327.53762
  24339481.4954    -923271.90445   -600032.45161
  23874652.0504    -776001.52645   -504131.78561
  25140211.8004    -205192.29044
 91  5  1 19  3 59.9990000  0  6G18G14G19G 2G11G16
  20231258.1514    -269477.41548   -193759.64562
  24137354.8704     347837.25145    228455.75261
  20830196.0034    -462271.75047   -305261.39162
  24324774.8394   -1000584.17145   -660275.58361
  23862316.1204    -840809.61045   -554631.47261
  25127198.3004    -273603.50445
 91  5  1 19  4 14.9990000  0  6G18G14G19G 2G11G16
  20227344.7144    -290048.47648   -209789.05962
  24142315.1674     373904.09745    248767.29661
  20823364.3234    -498171.42247   -333235.15162
  24310047.9404   -1077955.97345   -720565.13761
  23849981.0264    -905640.44545   -605148.91761
  25114175.0264    -342023.51644        -0.15771
 91  5  1 19  4 29.9990000  0  6G18G14G19G 2G11G16
  20223433.9954    -310591.10048   -225796.31062
  24147252.6284     399876.25545    269005.03861
  20816522.9014    -534114.14947   -361242.46562
  24295319.9484   -1155378.77545   -780894.45861
  23837644.2374    -970485.34145   -655677.31761
  25101153.4334    -410444.10544    -53314.91361
 91  5  1 19  4 44.9990000  0  6G18G14G19G 2G11G16
  20219531.5584    -331108.08448   -241783.58162
  24152181.1904     425750.66845    289166.65161
  20809676.9954    -570103.01147   -389285.72762
  24280571.2614   -1232855.33645   -841265.63361
  23825301.9254   -1035346.94745   -706218.73561
  25088138.8154    -478867.86043   -106632.20461
 91  5  1 19  4 59.9990000  0  6G18G14G19G 2G11G16
  20215630.6984    -351603.39148   -257753.96763
  24157087.3234     451522.65145    309248.41461
  20802816.8624    -606142.18547   -417368.19862
  24265818.3084   -1310389.57445   -901681.73461
  23812949.6674   -1100228.99045   -756776.09261
  25075113.1364    -547299.01643   -159955.23461
 91  5  1 19  5 14.9990000  0  6G18G14G19G 2G11G16
  20211733.5654    -372077.45548   -273707.79862
  24161969.3704     477191.44645    329249.82661
  20795950.4174    -642231.92447   -445490.06462
  24251051.2224   -1387981.58845   -962142.91561
  23800604.3624   -1165131.36045   -807349.25961
  25062088.6284    -615737.33943   -213283.77361
 91  5  1 19  5 29.9990000  0  6G18G14G19G 2G11G16
  20207842.5344    -392531.84748   -289646.29963
  24166833.6204     502755.14445    349169.29061
  20789068.4254    -678373.93147   -473652.66062
  24236273.8154   -1465632.89545  -1022650.23461
  23788247.9644   -1230055.27945   -857939.24661
  25049060.5504    -684183.82343   -266618.76461
 91  5  1 19  5 44.9990000  0  6G18G14G19G 2G11G16
  20203953.8554    -412969.65348   -305571.87962
  24171680.3154     528210.19044    369004.12461
  20782181.1284    -714571.34247   -501858.43362
  24221486.8394   -1543346.43345  -1083206.13461
  23775886.4874   -1295003.46845   -908548.12061
  25036035.3784    -752641.31443   -319962.30161
 91  5  1 19  5 59.9990000  0  6G18G14G19G 2G11G16
  20200067.6364    -433383.74048   -321478.97663
  24176501.4564     553563.33643    388759.51561
  20775283.3784    -750817.27547   -530102.01162
  24206689.4254   -1621115.13945  -1143804.92161
  23763528.7924   -1359968.56946   -959170.18161
  25023009.2694    -821102.78643
 91  5  1 19  6 14.9990000  0  6G18G14G19G 2G11G16
  20196190.6284    -453763.16848   -337359.06362
  24181306.9804     578824.89543    408443.51961
  20768381.8944    -787101.08047   -558375.09862
  24191883.1284   -1698928.05645  -1204438.21461
  23751163.5734   -1424939.47046  -1009796.76461
  25009982.4094    -889557.35843
 91  5  1 19  6 29.9990000  0  6G18G14G19G 2G11G16
  20192321.4404    -474098.99048   -353205.16962
  24186099.3554     604003.70844    428063.08561
  20761470.3554    -823413.20047   -586670.25062
  24177067.8864   -1776775.63045  -1265098.52361
  23738800.0194   -1489906.45246  -1060420.29361
  24996959.8864    -957995.48443
 91  5  1 19  6 44.9990000  0  6G18G14G19G 2G11G16
  20188460.9874    -494382.39648   -369010.43762
  24190879.0264     629107.86045    447624.49661
  20754558.1124    -859745.38447   -614981.03762
  24162254.6984   -1854649.42845  -1325779.21361
  23726438.7534   -1554860.63045  -1111033.84361
  24983937.5194   -1026408.66743
 91  5  1 19  6 59.9990000  0  6G18G14G19G 2G11G16
  20184609.4174    -514619.70148   -384779.78263
  24195639.6444     654130.96945    467122.78161
  20747637.1984    -896104.01847   -643312.43462
  24147425.0894   -1932555.14545  -1386484.82461
  23714079.8004   -1619807.73045  -1161641.86961
  24970926.1364   -1094802.42444
 91  5  1 19  7 14.9990000  0  6G18G14G19G 2G11G16
  20180767.6514    -534814.11448   -400515.70563
  24200385.9644     679069.30045    486555.00461
  20740715.6754    -932492.21247   -671666.86662
  24132588.9254   -2010496.04945  -1447217.87261
  23701723.6984   -1684750.66345  -1212246.66061
  24957908.3314   -1163179.74443
 91  5  1 19  7 29.9990000  0  6G18G14G19G 2G11G16
  20176933.6514    -554964.29948   -416217.16462
  24205118.3084     703923.57245    505921.67461
  20733781.2694    -968908.86547   -700043.47462
  24117751.6904   -2088470.66845  -1507977.11961
  23689363.5654   -1749687.89145  -1262846.99561
  24944904.3704   -1231539.15543
 91  5  1 19  7 44.9990000  0  6G18G14G19G 2G11G16
  20173107.7144    -575073.39248   -431886.60762
  24209831.6284     728690.49345    525220.30761
  20726849.1124   -1005357.10847   -728444.69462
  24102910.1054   -2166482.03445  -1568765.06561
  23677006.9014   -1814622.15145  -1313445.01061
  24931902.3154   -1299883.36144
 91  5  1 19  7 59.9990000  0  6G18G14G19G 2G11G16
  20169286.2844    -595144.73848   -447526.63662
  24214526.0894     753366.40744    544448.00461
  20719907.6904   -1041840.42547   -756873.24862
  24088054.8154   -2244533.55345  -1629584.29761
  23664650.3704   -1879556.55545  -1364043.15161
  24918898.4644   -1368215.84544
 91  5  1 19  8 14.9990000  0  6G18G14G19G 2G11G16
  20165477.0034    -615174.47648   -463134.24163
  24219205.6834     777954.61645    563607.35461
  20712957.5734   -1078355.20847   -785326.32362
  24073194.2224   -2322621.13945  -1690431.57761
  23652295.0654   -1944486.81445  -1414638.04961
  24905894.4804   -1436532.41144
 91  5  1 19  8 29.9990000  0  6G18G14G19G 2G11G16
  20161670.0654    -635167.32448   -478713.10562
  24223868.1594     802450.00545    582694.40561
  20705999.5894   -1114905.93647   -813807.41062
  24058330.7144   -2400749.15745  -1751310.39861
  23639939.5034   -2009417.04946  -1465232.93761
  24892900.0814   -1504837.26945
 91  5  1 19  8 44.9990000  0  6G18G14G19G 2G11G16
  20157873.3864    -655119.64848   -494260.39162
  24228512.9724     826855.96345    601711.76161
  20699040.3154   -1151489.14247   -842313.79562
  24043455.5584   -2478913.94245  -1812217.92061
  23627585.6674   -2074343.53746  -1515824.88761
  24879903.6984   -1573126.86544
 91  5  1 19  8 59.9990000  0  6G18G14G19G 2G11G16
  20154085.3864    -675024.12848   -509770.39563
  24233141.3394     851179.25745    620664.71361
  20692073.1284   -1188097.49247   -870839.78062
  24028574.8784   -2557108.08445  -1873148.23061
  23615230.8154   -2139258.64846  -1566407.98361
  24866917.0894   -1641393.41444
 91  5  1 19  9 14.9990000  0  6G18G14G19G 2G11G16
  20150306.4174    -694886.21648   -525247.36963
  24237753.4644     875414.29945    639548.89961
  20685103.0974   -1224736.41547   -899389.59162
  24013689.2694   -2635336.74945  -1934105.47561
  23602881.0814   -2204167.23946  -1616986.00161
  24853926.5584   -1709642.12945        -0.45071
 91  5  1 19  9 29.9990000  0  6G18G14G19G 2G11G16
  20146532.4404    -714715.56148   -540698.83163
  24242344.0194     899550.98245    658356.41861
  20678122.7844   -1261415.78647   -927970.91862
  23998792.6514   -2713609.43745  -1995097.08661
  23590527.4954   -2269078.45046  -1667566.05161
  24840943.7534   -1777882.55345
 91  5  1 19  9 44.9990000  0  6G18G14G19G 2G11G16
  20142769.0424    -734501.01348   -556116.08563
  24246920.0344     923600.12745    677095.76661
  20671137.7924   -1298124.67247   -956575.24062
  23983889.6204   -2791915.08545  -2056114.28361
  23578176.7534   -2333981.12246  -1718139.44761
  24827962.6124   -1846103.26245
 91  5  1 19  9 59.9990000  0  6G18G14G19G 2G11G16
  20139011.5504    -754248.94548   -571504.10463
  24251477.4804     947554.82444    695761.47561
  20664145.0504   -1334869.23147   -985207.36362
  23968985.6054   -2870259.73445  -2117161.90661
  23565828.1514   -2398881.15246  -1768710.79161
  24814984.0504   -1914310.35244
 91  5  1 19 10 14.9990000  0  6G18G14G19G 2G11G16
  20135257.2064    -773970.31148   -586871.42663
  24256016.7614     971403.72244    714344.74961
  20657146.1054   -1371660.77547  -1013876.09762
  23954059.5344   -2948654.37845  -2178248.52561
  23553472.6904   -2463789.32146  -1819288.48361
  24801999.8784   -1982514.80644
 91  5  1 19 10 29.9990000  0  6G18G14G19G 2G11G16
  20131509.8704    -793660.85348   -602214.72663
  24260541.8704     995150.74744    732848.71661
  20650134.4644   -1408495.00147  -1042578.09262
  23939135.7534   -3027094.41145  -2239370.46761
  23541123.0894   -2528700.83746  -1869868.78061
  24789024.9724   -2050712.00844        -0.46471
 91  5  1 19 10 44.9990000  0  6G18G14G19G 2G11G16
  20127767.9484    -813330.93248   -617542.08363
  24265035.7694    1018785.29143
  20643113.7454   -1445382.33847  -1071321.46962
  23924198.9954   -3105590.31345  -2300535.93961
  23528766.9874   -2593625.71246  -1920459.48461
  24776050.6364   -2118911.59544    -53143.01561
 91  5  1 19 10 59.9990000  0  6G18G14G19G 2G11G16
  20124029.7304    -832969.95248   -632845.24063
  24269513.5584    1042317.47143
  20636085.4334   -1482312.01147  -1100097.83362
  23909254.1754   -3184131.13645  -2361736.41561
  23516411.5194   -2658552.89546  -1971051.97361
  24763068.0974   -2187103.21543   -106279.41061
 91  5  1 19 11 14.9990000  0  6G18G14G19G 2G11G16
  20120300.5504    -852571.93048   -648119.53663
  24273975.2764    1065752.51442
  20629052.2694   -1519278.52347  -1128902.90862
  23894297.3394   -3262711.06045  -2422967.36861
  23504060.3944   -2723476.37946  -2021641.59461
  24750093.8394   -2255280.63344   -159404.74161
 91  5  1 19 11 29.9990000  0  6G18G14G19G 2G11G16
  20116578.2694    -872129.42048   -663359.16163
  24278420.4334    1089097.83642
  20622011.2064   -1556274.21747  -1157730.72362
  23879342.4334   -3341322.14645  -2484222.61461
  23491704.0114   -2788388.14346  -2072222.07861
  24737127.7304   -2323436.29244   -212513.03661
 91  5  1 19 11 44.9990000  0  5G18G19G 2G11G16
  20112869.1674    -891628.31148   -678553.13063
  20614969.4484   -1593284.70647  -1186570.06362
  23864377.6754   -3419949.74045  -2545490.72961
  23479357.6904   -2853273.42146  -2122781.91261
  24724160.9174   -2391555.61044   -265593.10561
 91  5  1 19 11 59.9990000  0  5G18G19G 2G11G16
  20109166.8554    -911073.41148   -693705.18263
  20607924.0344   -1630315.19747  -1215424.98962
  23849410.4174   -3498599.07345  -2606775.74561
  23467016.2694   -2918136.89846  -2173324.76961
  24711211.3084   -2459642.90845   -318648.17761
 91  5  1 19 12 14.9990000  0  5G18G19G 2G11G16
  20105477.7064    -930466.57848   -708816.76763
  20600872.3004   -1667367.55947  -1244296.96162
  23834444.0504   -3577271.75245  -2668078.98061
  23454680.1124   -2982980.09446  -2223851.81061
  24698258.3004   -2527699.89844   -371679.66861
 91  5  1 19 12 29.9990000  0  5G18G19G 2G11G16
  20101796.7144    -949808.31548   -723888.28163
  20593815.6204   -1704442.60247  -1273186.60762
  23819461.9564   -3655968.40845  -2729400.93361
  23442339.8314   -3047803.37246  -2274363.33661
  24685312.0034   -2595727.30843   -424688.08261
 91  5  1 19 12 44.9990000  0  5G18G19G 2G11G16
  20098126.7224    -969096.86448   -738918.34163
  20586757.3394   -1741538.18947  -1302092.26462
  23804488.3474   -3734686.75945  -2790739.73061
  23430007.6834   -3112604.13746  -2324857.31661
  24672368.7924   -2663722.48643   -477671.36861
 91  5  1 19 12 59.9990000  0  5G18G19G 2G11G16
  20094466.0424    -988331.59448   -753906.46863
  20579692.3554   -1778653.93647  -1331013.62762
  23789503.9254   -3813426.08545  -2852094.88661
  23417682.7224   -3177381.58646  -2375333.14161
  24659441.6984   -2731684.97344   -530629.18561
 91  5  1 19 13 14.9990000  0  5G18G19G 2G11G16
  20090816.3474   -1007509.63948   -768850.42663
  20572629.1984   -1815787.22947  -1359948.65962
  23774515.8394   -3892183.70145  -2913464.31861
  23405357.6444   -3242132.82246  -2425788.50661
  24646512.7614   -2799611.69443   -583559.11561
 91  5  1 19 13 29.9990000  0  5G18G19G 2G11G16
  20087179.0734   -1026630.23648   -783749.61863
  20565555.0734   -1852937.06947  -1388896.58662
  23759527.1124   -3970958.37345  -2974847.05561
  23393043.6364   -3306856.38346  -2476222.32761
  24633598.0344   -2867501.39843   -636460.24461
 91  5  1 19 13 44.9990000  0  5G18G19G 2G11G16
  20083550.9874   -1045693.47848   -798604.12263
  20558487.3234   -1890103.68047  -1417857.58162
  23744533.3624   -4049750.11345  -3036243.03661
  23380733.9484   -3371552.11646  -2526634.46461
  24620681.9564   -2935354.18643   -689332.60561
 91  5  1 19 13 59.9990000  0  5G18G19G 2G11G16
  20079932.0894   -1064709.28548   -813421.64663
  20551406.1364   -1927297.09147  -1446839.45262
  23729534.8784   -4128568.52145  -3097659.84561
  23368423.6984   -3436229.45146  -2577032.27861
  24607778.4484   -3003179.74644   -742183.69961
 91  5  1 19 14 14.9990000  0  5G18G19G 2G11G16
  20076322.7844   -1083678.47348   -828202.86963
  20544326.9564   -1964518.29147  -1475842.98162
  23714530.0114   -4207414.60845  -3159098.24161
  23356119.4484   -3500889.08346  -2627416.29061
  24594870.0114   -3070978.63843   -795014.02761
 91  5  1 19 14 29.9990000  0  5G18G19G 2G11G16
  20072721.0584   -1102605.27648   -842951.04263
  20537234.8474   -2001771.28247  -1504871.28362
  23699514.3624   -4286292.47245  -3220561.34561
  23343816.2534   -3565534.62246  -2677789.29561
  24581975.7454   -3138754.73344   -847826.60261
 91  5  1 19 14 44.9990000  0  5G18G19G 2G11G16
  20069126.8234   -1121497.25348   -857672.08663
  20530140.5264   -2039063.63347  -1533930.24962
  23684503.0194   -4365209.05945  -3282054.64161
  23331517.4094   -3630173.23546  -2728156.91961
  24569086.9564   -3206515.18443   -900627.00961
 91  5  1 19 14 59.9990000  0  5G18G19G 2G11G16
  20065538.6364   -1140351.39948   -872363.65363
  20523035.4644   -2076392.56647  -1563017.73062
  23669477.2224   -4444161.28945  -3343575.72761
  23319221.5974   -3694801.69046  -2778516.64061
  24556192.9724   -3274256.69944   -953412.62161
 91  5  1 19 15 14.9990000  0  5G18G19G 2G11G16
  20061959.6674   -1159159.47148   -887019.32063
  20515929.0584   -2113749.98747  -1592127.41062
  23654446.7764   -4523141.16345  -3405118.33061
  23306923.0504   -3759411.51946  -2828861.81761
  24543307.8474   -3341971.20344  -1006177.24461
 91  5  1 19 15 29.9990000  0  5G18G19G 2G11G16
  20058388.7374   -1177919.13948   -901637.26163
  20508812.0194   -2151133.35447  -1621257.30362
  23639413.5264   -4602146.05745  -3466680.44461
  23294632.8864   -3823999.93046  -2879190.33761
  24530430.2224   -3409656.01944  -1058918.67261
 91  5  1 19 15 44.9990000  0  5G18G19G 2G11G16
  20054831.0584   -1196619.97948   -916209.37063
  20501697.8084   -2188532.12847  -1650399.20162
  23624373.3624   -4681165.32645  -3528253.77661
  23282351.4254   -3888555.93446  -2929493.59161
  24517556.0814   -3477300.28144
 91  5  1 19 15 59.9980000  0  5G18G19G 2G11G16
  20051288.0844   -1215243.16748   -930720.96763
  20494582.2564   -2225926.33247  -1679537.54162
  23609342.8654   -4760175.78945  -3589820.21261
  23270076.7954   -3953057.28746  -2979754.25661
  24504693.4754   -3544881.83644
 91  5  1 19 16 14.9980000  0  5G18G19G 2G11G16
  20047757.6154   -1233791.13848   -945173.95363
  20487465.4824   -2263320.95547  -1708676.20662
  23594303.6314   -4839187.91345  -3651387.94961
  23257809.2174   -4017512.26446  -3029978.80361
  24491838.9984   -3612409.30543
 91  5  1 19 16 29.9980000  0  5G18G19G 2G11G16
  20044242.3344   -1252263.44848   -959567.98363
  20480348.7174   -2300714.43047  -1737813.98062
  23579272.3574   -4918197.03745  -3712953.37061
  23245553.2644   -4081917.00046  -3080164.19861
  24479002.6864   -3679878.78443        -0.49871
 91  5  1 19 16 44.9980000  0  5G18G19G 2G11G16
  20040740.6864   -1270663.10048   -973905.39863
  20473235.9434   -2338109.82047  -1766953.24162
  23564233.4904   -4997205.89845  -3774518.57861
  23233306.2874   -4146274.09846  -3130312.47861
  24466174.8654   -3747292.90044
 91  5  1 19 16 59.9980000  0  5G18G19G 2G11G16
  20037251.0844   -1288999.56748   -988193.56763
  20466114.3814   -2375516.65147  -1796101.41562
  23549200.4594   -5076224.03145  -3836090.97961
  23221068.5614   -4210592.73346  -3180430.77061
  24453354.5924   -3814661.04344
 91  5  1 19 17 14.9980000  0  5G18G19G 2G11G16
  20033773.7014   -1307274.49748  -1002433.80063
  20458996.6394   -2412936.48047  -1825259.72062
  23534162.4364   -5155252.74645  -3897671.65561
  23208833.9754   -4274874.11746  -3230520.04761
  24440547.3894   -3881984.56944
 91  5  1 19 17 29.9980000  0  5G18G19G 2G11G16
  20030306.1784   -1325491.38348  -1016628.79763
  20451869.7094   -2450372.77447  -1854430.85262
  23519119.2724   -5234295.60245  -3959263.34961
  23196611.2874   -4339121.33246  -3280582.71961
  24427736.8654   -3949266.71143        -0.36171
 91  5  1 19 17 44.9980000  0  5G18G19G 2G11G16
  20026852.1934   -1343645.06948  -1030774.54963
  20444745.0614   -2487820.20247  -1883610.66462
  23504075.5224   -5313347.00545  -4020861.68861
  23184390.0454   -4403328.72746  -3330614.33861
  24414943.7404   -4016501.70944    -52391.32061
 91  5  1 19 17 59.9980000  0  5G18G19G 2G11G16
  20023412.5844   -1361729.56148  -1044866.38263
  20437615.7484   -2525273.34047  -1912794.92862
  23489032.5144   -5392401.12145  -4082462.15661
  23172181.3114   -4467490.47646  -3380610.39761
  24402164.0374   -4083683.70844   -104740.98061
 91  5  1 19 18 14.9980000  0  5G18G19G 2G11G16
  20019981.9044   -1379750.97748  -1058909.06663
  20430488.9904   -2562738.24547  -1941988.35862
  23473986.6934   -5471463.88445  -4144069.35861
  23159980.3424   -4531612.10546  -3430575.20461
  24389391.5764   -4150818.54444   -157053.86661
 91  5  1 19 18 29.9980000  0  5G18G19G 2G11G16
  20016563.3734   -1397718.01448  -1072909.37463
  20423354.0534   -2600223.32047  -1971197.50663
  23458938.0224   -5550543.66245  -4205689.80661
  23147783.0924   -4595701.75446  -3480515.07361
  24376619.6074   -4217914.63644   -209336.53361
 91  5  1 19 18 44.9980000  0  5G18G19G 2G11G16
  20013154.3814   -1415625.55148  -1086863.31863
  20416220.1234   -2637723.47547  -2000418.40162
  23443887.6704   -5629635.04745  -4267319.33161
  23135595.2174   -4659753.88846  -3530425.73161
  24363854.1784   -4284966.72443   -261584.96561
 91  5  1 19 18 59.9980000  0  5G18G19G 2G11G16
  20009758.4204   -1433476.94748  -1100773.51663
  20409078.7954   -2675242.40447  -2029653.92262
  23428832.6394   -5708741.63445  -4328960.66861
  23123413.1864   -4723771.67446  -3580309.61461
  24351110.8734   -4351977.85544   -313801.45361
 91  5  1 19 19 14.9980000  0  5G18G19G 2G11G16
  20006369.9904   -1451276.85148  -1114643.59163
  20401937.6004   -2712784.48447  -2058907.48862
  23413777.6154   -5787867.54645  -4390617.05061
  23111235.4364   -4787759.19646  -3630169.91761
  24338363.5684   -4418952.32844   -365989.36661
 91  5  1 19 19 29.9980000  0  5G18G19G 2G11G16
  20002993.7564   -1469021.65248  -1128470.73363
  20394788.3894   -2750346.27547  -2088176.41562
  23398717.4284   -5867009.18945  -4452285.73161
  23099065.1784   -4851712.68146  -3680003.71161
  24325630.1154   -4485886.44844   -418145.83861
 91  5  1 19 19 44.9980000  0  5G18G19G 2G11G16
  19999627.8424   -1486712.15248  -1142255.56463
  20387637.4754   -2787928.49447  -2117461.25562
  23383654.2324   -5946166.99745  -4513966.99061
  23086900.7794   -4915632.58346  -3729811.33261
  24312898.1474   -4552780.57944   -470271.14461
 91  5  1 19 19 59.9980000  0  5G18G19G 2G11G16
  19996273.9824   -1504342.62248  -1155993.61163
  20380480.1934   -2825525.28447  -2146757.45262
  23368586.7324   -6025335.20445  -4575656.35361
  23074745.5844   -4979512.64746  -3779587.90061
  24300179.3654   -4619628.70044   -522360.61161
 91  5  1 19 20 14.9980000  0  5G18G19G 2G11G16
  19992929.1704   -1521916.03348  -1169687.19763
  20373325.1544   -2863139.80147  -2176067.45862
  23353522.0614   -6104516.61045  -4637355.99461
  23062597.2564   -5043355.49546  -3829335.48561
  24287466.2724   -4686433.79043   -574416.57161
 91  5  1 19 20 29.9980000  0  5G18G19G 2G11G16
  19989595.5374   -1539433.42848  -1183337.13763
  20366163.2874   -2900773.20847  -2205392.18962
  23338448.2794   -6183712.29445  -4699066.77261
  23050454.4044   -5107161.87846  -3879054.64261
  24274754.7404   -4753196.40743   -626439.38661
 91  5  1 19 20 44.9980000  0  5G18G19G 2G11G16
  19986275.1784   -1556889.37648  -1196939.19663
  20359001.1154   -2938420.12247  -2234727.44063
  23323375.6074   -6262916.53845  -4760784.21061
  23038320.9984   -5170926.07046  -3928740.93361
  24262063.3974   -4819910.97743   -678424.78961
 91  5  1 19 20 59.9980000  0  6G18G19G 2G11G16G 6
  19982962.0684   -1574290.28648  -1210498.37063
  20351830.5534   -2976086.51747  -2264077.87462
  23308305.0534   -6342135.24946  -4822512.90561
  23026195.9754   -5234653.68046  -3978398.71461
  24249373.3424   -4886583.33143   -730377.28561
  24810686.8574         -0.68852
 91  5  1 19 21 14.9980000  0  5G18G19G 2G11G16
  19979663.1624   -1591631.94448  -1224011.37363
  20344659.3974   -3013768.43647  -2293440.40463
  23293227.9044   -6421364.40845  -4884249.76661
  23014074.2014   -5298340.37346  -4028024.61161
  24236695.6394   -4953209.50343   -782293.79061
 91  5  1 19 21 29.9980000  0  5G18G19G 2G11G16
  19976372.2484   -1608920.62448  -1237483.09763
  20337482.4754   -3051472.18847  -2322819.94862
  23278145.1074   -6500610.12045  -4945999.53861
  23001961.8734   -5361992.13946  -4077623.29961
  24224016.2254   -5019795.41542   -834178.90361
 91  5  1 19 21 44.9980000  0  5G18G19G 2G11G16
  19973093.7484   -1626148.82648  -1250907.69663
  20330308.6154   -3089190.07147  -2352210.50462
  23263064.9284   -6579864.37346  -5007755.93161
  22989858.5294   -5425600.95046  -4127188.52661
  24211370.8264   -5086333.28843   -886026.59861
 91  5  1 19 21 59.9980000  0  5G18G19G 2G11G16
  19969826.6934   -1643317.03848  -1264285.54863
  20323128.5144   -3126922.54247  -2381612.42462
  23247980.7644   -6659127.46945  -5069519.22961
  22977760.9754   -5489166.77646  -4176720.24761
  24198713.3974   -5152822.71844   -937836.54961
 91  5  1 19 22 14.9980000  0  5G18G19G 2G11G16
  19966573.7324   -1660417.01548  -1277610.23663
  20315945.9754   -3164661.50147  -2411019.39962
  23232897.2874   -6738391.14645  -5131282.98361
  22965675.9124   -5552681.08946  -4226211.82761
  24186073.2254   -5219255.75643   -989602.56961
 91  5  1 19 22 29.9980000  0  5G18G19G 2G11G16
  19963331.2644   -1677450.31548  -1290882.96263
  20308764.6474   -3202408.53347  -2440432.66962
  23217813.3344   -6817657.01545  -5193048.43761
  22953597.1784   -5616145.16146  -4275664.25961
  24173440.5374   -5285633.68944  -1041325.62661
 91  5  1 19 22 44.9980000  0  5G18G19G 2G11G16
  19960105.3114   -1694405.54048  -1304094.85163
  20301580.7094   -3240152.51447  -2469843.56262
  23202731.2644   -6896913.63345  -5254806.70861
  22941533.6074   -5679547.59646  -4325068.68061
  24160822.3504   -5351945.12044  -1092996.88261
 91  5  1 19 22 59.9980000  0  5G18G19G 2G11G16
  19956894.7324   -1711280.54548  -1317244.22863
  20294402.5144   -3277891.04547  -2499250.20062
  23187652.0614   -6976158.49445  -5316555.80961
  22929480.4754   -5742885.50446  -4374422.81161
  24148213.1074   -5418187.60045  -1144614.43061
 91  5  1 19 23 14.9980000  0  5G18G19G 2G11G16
  19953698.4124   -1728076.39948  -1330331.93963
  20287219.4204   -3315625.02247  -2528653.29462
  23172575.0224   -7055392.20845  -5378296.19361
  22917440.5064   -5806159.52046  -4423727.15861
  24135624.4124   -5484361.28245  -1196178.33961
 91  5  1 19 23 29.9980000  0  5G18G19G 2G11G16
  19950519.1544   -1744789.51148  -1343355.17163
  20280040.0764   -3353350.82147  -2558050.01862
  23157500.0844   -7134611.11445  -5440025.06361
  22905411.6314   -5869365.61346  -4472978.57061
  24123042.0684   -5550462.87044  -1247686.12661
 91  5  1 19 23 44.9980000  0  5G18G19G 2G11G16
  19947353.6864   -1761419.58348  -1356313.69463
  20272864.1234   -3391068.31047  -2587440.27262
  23142425.0064   -7213814.86745  -5501742.15061
  22893394.3814   -5932503.35546  -4522176.73061
  24110481.3114   -5616491.70145  -1299137.14861
 91  5  1 19 23 59.9980000  0  5G18G19G 2G11G16
  19944203.3574   -1777971.71248  -1369211.48963
  20265684.6784   -3428782.42847  -2616827.89362
  23127353.8424   -7293008.30145  -5563451.15161
  22881396.3974   -5995577.36646  -4571325.21561
  24097927.7404   -5682452.46245  -1350535.15761
 91  5  1 19 24 14.9980000  0  5G18G19G 2G11G16
  19941067.2954   -1794451.07248  -1382052.57663
  20258510.1624   -3466498.50847  -2646217.04562
  23112285.5844   -7372196.44445  -5625156.06561
  22869407.9594   -6058592.36846  -4620427.72661
  24085389.8504   -5748350.32645  -1401884.13861
 91  5  1 19 24 29.9980000  0  5G18G19G 2G11G16
  19937943.1704   -1810866.91348  -1394844.16763
  20251331.9674   -3504225.86947  -2675614.98962
  23097220.8974   -7451388.67646  -5686864.18561
  22857421.8184   -6121557.49146  -4669491.37261
  24072856.9364   -5814194.46345  -1453191.28761
 91  5  1 19 24 44.9980000  0  5G18G19G 2G11G16
  19934834.1074   -1827216.35648  -1407584.02163
  20244149.3504   -3541961.67547  -2705019.51462
  23082148.4754   -7530581.49345  -5748572.71861
  22845447.7484   -6184469.36346  -4718513.53561
  24060340.8264   -5879981.60345  -1504454.00961
 91  5  1 19 24 59.9980000  0  5G18G19G 2G11G16
  19931734.9754   -1843498.86548  -1420271.71963
  20236965.1474   -3579705.17847  -2734430.03562
  23067078.2324   -7609774.40245  -5810281.34061
  22833490.2874   -6247327.06946  -4767493.48461
  24047833.9594   -5945710.99445  -1555671.72561
 91  5  1 19 25 14.9980000  0  5G18G19G 2G11G16
  19928647.1394   -1859721.17548  -1432912.50763
  20229780.1544   -3617462.98647  -2763851.70262
  23052003.0454   -7688973.87945  -5871995.09661
  22821537.3734   -6310136.85246  -4816436.08461
  24035330.8504   -6011389.03744  -1606849.44461
 91  5  1 19 25 29.9980000  0  5G18G19G 2G11G16
  19925575.2564   -1875866.09048  -1445492.98763
  20222593.3424   -3655218.09547  -2793271.26262
  23036937.0454   -7768162.60845  -5933700.45861
  22809592.4124   -6372881.16846  -4865327.68161
  24022846.3894   -6076998.34044  -1657973.56261
 91  5  1 19 25 44.9980000  0  5G18G19G 2G11G16
  19922518.8424   -1891931.43248  -1458011.46263
  20215414.5454   -3692968.05247  -2822686.81262
  23021871.0764   -7847338.01745  -5995395.44161
  22797668.8184   -6435557.32346  -4914166.16861
  24010377.0374   -6142536.05844  -1709041.95461
 91  5  1 19 25 59.9980000  0  5G18G19G 2G11G16
  19919471.7254   -1907936.17148  -1470482.72063
  20208224.6314   -3730731.94047  -2852113.21763
  23006801.8114   -7926518.95145  -6057094.75961
  22785754.4674   -6498184.00646  -4962966.08561
  23997919.2724   -6208021.26844  -1760069.39561
 91  5  1 19 26 14.9980000  0  5G18G19G 2G11G16
  19916442.6394   -1923862.71848  -1482893.04263
  20201041.6154   -3768492.22147  -2881536.81162
  22991740.2954   -8005687.90246  -6118784.71161
  22773846.2324   -6560743.31346  -5011713.52061
  23985467.6934   -6273436.03044  -1811041.95561
 91  5  1 19 26 29.9980000  0  5G18G19G 2G11G16
  19913424.6314   -1939718.95548  -1495248.58163
  20193854.2404   -3806256.63147  -2910963.62562
  22976671.9904   -8084852.45046  -6180471.23661
  22761955.4044   -6623242.69346  -5060414.25261
  23973029.7014   -6338788.12044  -1861965.66861
 91  5  1 19 26 44.9980000  0  5G18G19G 2G11G16
  19910420.6234   -1955504.25948  -1507548.84763
  20186669.8034   -3844024.62447  -2940393.23162
  22961609.5844   -8164011.71246  -6242153.67361
  22750072.7954   -6685681.21646  -5109067.55861
  23960613.9514   -6404076.33444  -1912839.62161
 91  5  1 19 26 59.9980000  0  5G18G19G 2G11G16
  19907429.0224   -1971222.37548  -1519796.76063
  20179478.6544   -3881799.79347  -2969828.42262
  22946544.3034   -8243169.51245  -6303834.94661
  22738201.2324   -6748062.19846  -5157676.03761
  23948194.8344   -6469304.28744  -1963666.58261
 91  5  1 19 27 14.9980000  0  6G18G19G 2G11G16G 6
  19904452.5144   -1986865.71148  -1531986.40163
  20172292.6394   -3919574.37247  -2999263.15662
  22931486.0844   -8322317.79346  -6365508.79961
  22726341.7644   -6810377.62846  -5206233.43261
  23935795.6074   -6534464.22844  -2014440.58261
  24487827.3734         -0.09854
 91  5  1 19 27 29.9980000  0  6G18G19G 2G11G16G 6
  19901490.6864   -2002438.13048  -1544120.78463
  20165103.4824   -3957352.40647  -3028700.58362
  22916424.3184   -8401460.11445  -6427178.02661
  22714497.3504   -6872631.01146  -5254742.47361
  23923411.2874   -6599559.79944  -2065164.38661
  24474839.1864     -68246.15743
 91  5  1 19 27 44.9970000  0  6G18G19G 2G11G16G 6
  19898538.6734   -2017947.73348  -1556206.22263
  20157911.3144   -3995140.54347  -3058145.88162
  22901363.7284   -8480600.42246  -6488845.67461
  22702661.9854   -6934827.09246  -5303206.86861
  23911035.9464   -6664595.57844  -2115841.63561
  24461847.5484    -136527.09742
 91  5  1 19 27 59.9970000  0  5G18G19G 2G11G16
  19895599.1814   -2033385.95848  -1568236.03663
  20150719.1574   -4032933.01047  -3087594.55962
  22886302.9314   -8559738.34046  -6550511.45761
  22690836.7044   -6996962.99746  -5351624.37861
  23898668.7284   -6729569.11944  -2166470.36861
 91  5  1 19 28 14.9970000  0  5G18G19G 2G11G16
  19892676.2904   -2048753.11148  -1580210.47363
  20143529.5094   -4070728.53147  -3117045.61462
  22871246.4704   -8638869.60346  -6612172.06461
  22679022.2514   -7059035.50846  -5399992.47261
  23886316.2824   -6794476.93044  -2217047.88661
 91  5  1 19 28 29.9970000  0  6G18G19G 2G11G16G 6
  19889765.6814   -2064044.05248  -1592125.52463
  20136337.8454   -4108522.01447  -3146495.08262
  22856190.3684   -8717989.10046  -6673823.49861
  22667221.4934   -7121039.21346  -5448306.96161
  23873978.9464   -6859314.05144  -2267570.33861
  24422834.8924         -0.77053
 91  5  1 19 28 44.9970000  0  6G18G19G 2G11G16G 6
  19886868.1654   -2079273.80248  -1603992.89263
  20129144.5324   -4146328.53447  -3175954.70562
  22841132.8064   -8797111.66445  -6735477.33861
  22655436.1964   -7182988.73946  -5496579.22461
  23861649.5244   -6924095.15744  -2318049.13261
  24409809.3374     -68410.07842
 91  5  1 19 28 59.9970000  0  6G18G19G 2G11G16G 6
  19883982.2434   -2094441.07048  -1615811.57663
  20121943.8214   -4184146.71747  -3205423.42462
  22826072.7594   -8876235.76846  -6797132.35661
  22643657.5014   -7244882.47346  -5544808.01761
  23849330.5954   -6988818.81044  -2368483.14561
  24396789.1494    -136858.34142
 91  5  1 19 29 14.9970000  0  6G18G19G 2G11G16G 6
  19881112.4234   -2109527.84448  -1627567.53563
  20114749.1494   -4221958.26447  -3234886.97062
  22811025.0014   -8955342.99546  -6858774.23561
  22631891.5794   -7306701.74046  -5592978.79261
  23837031.8144   -7053466.17144  -2418857.74561
  24383755.8294    -205327.25342        -0.47371
 91  5  1 19 29 29.9970000  0  6G18G19G 2G11G16G 6
  19878255.5094   -2124537.70948  -1639263.56463
  20107552.4314   -4259766.76647  -3264348.14462
  22795971.1814   -9034436.90246  -6920405.73061
  22620147.4934   -7368449.90646  -5641094.16061
  23824736.2124   -7118041.34144  -2469176.07561
  24370714.7044    -273820.48542    -53371.79461
 91  5  1 19 29 44.9970000  0  6G18G19G 2G11G16G 6
  19875415.5244   -2139456.98748  -1650889.01063
  20100364.4074   -4297558.50247  -3293796.24662
  22780924.7284   -9113503.50146  -6982015.93961
  22608410.3604   -7430112.82346  -5689143.09261
  23812474.9854   -7182530.08945  -2519427.06361
  24357684.5564    -342324.32143   -106751.28261
 91  5  1 19 29 59.9970000  0  6G18G19G 2G11G16G 6
  19872594.4544   -2154283.28048  -1662441.99763
  20093173.1034   -4335331.25747  -3323229.56362
  22765884.5874   -9192540.44446  -7043603.06461
  22596692.9464   -7491688.06346  -5737123.72061
  23800216.8604   -7246929.85145  -2569608.71161
  24344648.8604    -410836.63542   -160137.37861
 91  5  1 19 30 14.9970000  0  6G18G19G 2G11G16G 6
  19869790.7674   -2169016.99748  -1673922.84963
  20085992.7354   -4373085.29247  -3352648.28862
  22750850.0484   -9271547.65446  -7105166.99161
  22584992.2044   -7553175.36346  -5785035.80161
  23787977.3604   -7311240.53344  -2619720.94561
  24331605.9854    -479357.76241
 91  5  1 19 30 29.9970000  0  5G18G19G 2G11G16
  19867007.1494   -2183650.84848  -1685325.88363
  20078811.3294   -4410813.25447  -3382046.69962
  22735824.3844   -9350517.88946  -7166702.11261
  22573310.7354   -7614567.02846  -5832873.37661
  23775762.3374   -7375454.67545  -2669757.94961
 91  5  1 19 30 44.9970000  0  5G18G19G 2G11G16
  19864239.2984   -2198185.27748  -1696651.44563
  20071637.8924   -4448515.85047  -3411425.34262
  22720800.2044   -9429451.66446  -7228208.84661
  22561644.5644   -7675863.38146  -5880636.68961
  23763560.8454   -7439572.77045  -2719720.10061
 91  5  1 19 30 59.9970000  0  6G18G19G 2G11G16G 6
  19861493.1494   -2212624.02348  -1707902.45463
  20064467.1574   -4486196.26847  -3440786.70762
  22705790.8374   -9508351.91046  -7289689.42861
  22549997.3994   -7737067.41246  -5928328.05261
  23751378.0404   -7503597.75145  -2769609.69961
  24292484.2124         -0.30853
 91  5  1 19 31 14.9970000  0  6G18G19G 2G11G16G 6
  19858762.0324   -2226971.75648  -1719082.54063
  20057300.4934   -4523859.46047  -3470134.64362
  22690779.6894   -9587223.62046  -7351147.78061
  22538370.2514   -7798183.69646  -5975951.05761
  23739210.4074   -7567534.39745  -2819430.46761
  24279432.6494     -68541.08941
 91  5  1 19 31 29.9970000  0  6G18G19G 2G11G16G 6
  19856047.9544   -2241237.23948  -1730198.53763
  20050133.1734   -4561513.88847  -3499475.75662
  22675775.5644   -9666074.96746  -7412590.28561
  22526751.6574   -7859220.32646  -6023511.98661
  23727059.3064   -7631391.11544  -2869188.94361
  24266393.7514    -137100.92342
 91  5  1 19 31 44.9970000  0  6G18G19G 2G11G16G 6
  19853351.0014   -2255406.73248  -1741239.73863
  20042972.9394   -4599145.79347  -3528799.31962
  22660777.4934   -9744892.24146  -7474006.21661
  22515156.2824   -7920163.40546  -6071000.01961
  23714924.9464   -7695153.88744  -2918874.22361
  24253350.6344    -205666.31242        -0.08971
 91  5  1 19 31 59.9970000  0  6G18G19G 2G11G16G 6
  19850670.1264   -2269490.40848  -1752214.06763
  20035814.1894   -4636765.31347  -3558113.23162
  22645782.6574   -9823685.29746  -7535403.28061
  22503574.2044   -7981022.71146  -6118422.77861
  23702801.6104   -7758832.62344  -2968494.03261
  24240307.5324    -274247.12844
 91  5  1 19 32 14.9970000  0  6G18G19G 2G11G16G 6
  19848010.1264   -2283485.21648  -1763119.15463
  20028659.6344   -4674369.34547  -3587415.07062
  22630791.1184   -9902450.89046  -7596778.94961
  22492008.0244   -8041794.73846  -6165777.52161
  23690704.0094   -7822424.03144  -3018045.72561
  24227251.2904    -342840.61342
 91  5  1 19 32 29.9970000  0  6G18G19G 2G11G16G 6
  19845362.3994   -2297390.41748  -1773954.41063
  20021503.9704   -4711957.30147  -3616704.38962
  22615809.7904   -9981188.40946  -7658132.73661
  22480464.8764   -8102478.51646  -6213063.49961
  23678617.1574   -7885927.11944  -3067528.65261
  24214193.0644    -411446.02442
 91  5  1 19 32 44.9970000  0  6G18G19G 2G11G16G 6
  19842734.0714   -2311203.99248  -1784718.27363
  20014357.1654   -4749527.02647  -3645979.49862
  22600832.2124  -10059895.42946  -7719462.76061
  22468934.5794   -8163071.66046  -6260278.85961
  23666547.5794   -7949339.42444  -3116940.82261
  24201133.0564    -480061.41542
 91  5  1 19 32 59.9970000  0  6G18G19G 2G11G16G 6
  19840123.5404   -2324923.69148  -1795408.98563
  20007211.4624   -4787076.18847  -3675238.58062
  22585860.0244  -10138569.48246  -7780767.09261
  22457419.8924   -8223571.54646  -6307421.54761
  23654506.6734   -8012658.86644  -3166280.65361
  24188076.1344    -548684.36243        -0.33971
 91  5  1 19 33 14.9970000  0  6G18G19G 2G11G16G 6
  19837532.8454   -2338542.43548  -1806021.02963
  20000071.2434   -4824597.40347  -3704475.88463
  22570899.0874  -10217203.19046  -7842040.00161
  22445926.7284   -8283970.49946  -6354485.59161
  23642470.0094   -8075877.66244  -3215542.03061
  24175020.0954    -617307.73742    -53473.04961
 91  5  1 19 33 29.9970000  0  6G18G19G 2G11G16G 6
  19834960.1104   -2352059.95748  -1816554.19963
  19992936.1574   -4862090.63147  -3733691.39062
  22555941.7354  -10295796.37046  -7903281.32261
  22434453.7434   -8344268.16446  -6401470.71961
  23630465.3924   -8138995.81244  -3264725.01061
  24161964.6104    -685931.60542   -106946.03161
 91  5  1 19 33 44.9970000  0  6G18G19G 2G11G16G 6
  19832406.9934   -2365474.81348  -1827007.37263
  19985807.8374   -4899553.84247  -3762883.49763
  22540993.3994  -10374346.92246  -7964489.42761
  22422997.8764   -8404462.23746  -6448375.11061
  23618469.7044   -8202011.46044  -3313828.11661
  24148902.9314    -754554.06842   -160418.02861
 91  5  1 19 33 59.9970000  0  6G18G19G 2G11G16G 6
  19829872.1424   -2378795.68548  -1837387.31063
  19978683.2744   -4936996.09647  -3792059.28062
  22526052.3764  -10452863.74846  -8025671.24661
  22411561.4854   -8464561.33746  -6495205.49961
  23606501.2594   -8264933.26845  -3362858.12461
  24135841.3294    -823184.15142   -213895.82461
 91  5  1 19 34 14.9970000  0  6G18G19G 2G11G16G 6
  19827356.3604   -2392013.15648  -1847686.67563
  19971563.9394   -4974407.69547  -3821211.17363
  22511118.1184  -10531337.00746  -8086819.13461
  22400144.0014   -8524555.56046  -6541954.16961
  23594544.1654   -8327750.85145  -3411806.87061
  24122776.1494    -891812.30143   -267372.18561
 91  5  1 19 34 29.9970000  0  6G18G19G 2G11G16G 6
  19824861.3604   -2405133.26048  -1857910.17363
  19964449.3924   -5011794.87347  -3850344.03662
  22496196.0404  -10609772.59546  -8147937.63661
  22388749.3064   -8584450.69046  -6588625.62761
  23582607.1494   -8390470.36845  -3460679.21261
  24109723.7354    -960444.60043   -320851.77161
 91  5  1 19 34 44.9970000  0  6G18G19G 2G11G16G 6
  19822383.7674   -2418153.74448  -1868056.04563
  19957339.4784   -5049155.14147  -3879455.93562
  22481274.7744  -10688168.05346  -8209024.89861
  22377371.1814   -8644244.24646  -6635217.92761
  23570697.3454   -8453089.29845  -3509473.20461
  24096658.3604   -1029078.87743   -374332.89061
 91  5  1 19 34 59.9970000  0  6G18G19G 2G11G16G 6
  19819925.1104   -2431068.31848  -1878119.38763
  19950239.0954   -5086481.75547  -3908541.60962
  22466365.1104  -10766516.57446  -8270075.57761
  22366012.1344   -8703929.05846  -6681725.50561
  23558795.3604   -8515600.49545  -3558183.21561
  24083597.4544   -1097708.47142   -427810.34061
 91  5  1 19 35 14.9970000  0  6G18G19G 2G11G16G 6
  19817487.6104   -2443872.09548  -1888096.40063
  19943141.7744   -5123770.17947  -3937597.52162
  22451465.2984  -10844813.36446  -8331085.95961
  22354672.2984   -8763500.08546  -6728144.41361
  23546925.8684   -8577999.49745  -3606805.82461
  24070540.1264   -1166328.78043   -481280.58261
 91  5  1 19 35 29.9970000  0  6G18G19G 2G11G16G 6
  19815075.4704   -2456557.78448  -1897981.38763
  19936055.8994   -5161013.04747  -3966617.93762
  22436580.2904  -10923050.88846  -8392050.13361
  22343361.0244   -8822949.81746  -6774468.80761
  23535068.1034   -8640278.66445  -3655335.03061
  24057489.7904   -1234932.44343   -534737.86161
 91  5  1 19 35 44.9970000  0  6G18G19G 2G11G16G 6
  19812679.6424   -2469142.51148  -1907787.71163
  19928974.8374   -5198227.26347  -3995616.02862
  22421700.1494  -11001246.11446  -8452981.36361
  22332066.2594   -8882294.83046  -6820711.60761
  23523245.0644   -8702454.58945  -3703783.80761
  24044429.9854   -1303536.56642   -588195.51961
 91  5  1 19 35 59.9970000  0  5G18G19G 2G11G16
  19810304.8604   -2481628.89448  -1917517.40163
  19921895.5404   -5235415.53047  -4024593.89662
  22406822.8684  -11079401.39746  -8513881.46761
  22320794.3684   -8941537.46546  -6866874.62761
  23511426.5564   -8764529.75645  -3752154.04061
 91  5  1 19 36 14.9970000  0  6G18G19G 2G11G16G 6
  19807947.4314   -2494014.19348  -1927168.32463
  19914825.8294   -5272574.95847  -4053549.29262
  22391961.2284  -11157513.75146  -8574748.13261
  22309539.8604   -9000674.43746  -6912955.30461
  23499635.0564   -8826501.42745  -3800443.69361
  24018321.0014         -0.52253
 91  5  1 19 36 29.9970000  0  6G18G19G 2G11G16G 6
  19805610.1034   -2506295.67448  -1936738.34263
  19907759.2904   -5309702.88047  -4082480.14262
  22377106.6034  -11235580.51746  -8635579.26061
  22298308.3994   -9059702.97946  -6958951.49961
  23487863.5874   -8888366.67845  -3848650.35561
  24005268.8994     -68605.89643
 91  5  1 19 36 44.9970000  0  6G18G19G 2G11G16G 6
  19803290.8604   -2518485.24248  -1946236.75063
  19900700.3764   -5346810.92347  -4111395.49762
  22362255.6184  -11313613.11746  -8696383.76961
  22287093.6814   -9118634.45346  -7004872.05561
  23476109.0484   -8950136.72544  -3896782.85561
  23992215.3144    -137220.80442
 91  5  1 19 36 59.9970000  0  6G18G19G 2G11G16G 6
  19800988.6964   -2530581.15548  -1955662.17563
  19893641.6814   -5383897.17347  -4140293.87462
  22347413.7434  -11391609.53746  -8757160.07161
  22275900.6424   -9177466.62646  -7050715.22461
  23464365.9074   -9011809.61044  -3944839.64361
  23979158.4394    -205843.52042
 91  5  1 19 37 14.9970000  0  6G18G19G 2G11G16G 6
  19798707.5014   -2542568.78548  -1965003.22263
  19886591.1494   -5420947.17447  -4169164.00662
  22332580.7744  -11469555.18746  -8817896.83961
  22264725.5484   -9236184.52746  -7096469.35561
  23452658.3144   -9073370.66344  -3992809.30161
  23966096.4854    -274459.35043
 91  5  1 19 37 29.9970000  0  6G18G19G 2G11G16G 6
  19796441.4074   -2554472.29447  -1974278.72163
  19879539.9074   -5457984.85047  -4198024.53362
  22317757.0644  -11547473.98146  -8878612.65661
  22253567.7594   -9294811.93146  -7142152.95961
  23440962.0484   -9134843.61444  -4040710.27361
  23953034.5714    -343092.41643
 91  5  1 19 37 44.9970000  0  6G18G19G 2G11G16G 6
  19794195.1654   -2566280.47348  -1983479.93663
  19872499.1344   -5494998.92547  -4226866.67462
  22302931.9464  -11625354.46946  -8939298.62861
  22242430.1494   -9353337.12946  -7187756.93561
  23429279.4784   -9196217.42244  -4088534.00161
  23939975.4464    -411731.65542
 91  5  1 19 37 59.9970000  0  6G18G19G 2G11G16G 6
  19791965.1964   -2577994.84748  -1992608.05763
  19865456.9704   -5531991.01247  -4255691.67662
  22288121.9784  -11703198.17046  -8999955.94661
  22231313.9934   -9411761.60646  -7233282.41361
  23417623.9784   -9257493.15244  -4136281.30761
  23926909.2354    -480378.77342
 91  5  1 19 38 14.9970000  0  6G18G19G 2G11G16G 6
  19789754.4074   -2589614.41247  -2001662.29863
  19858423.5014   -5568959.83047  -4284498.55162
  22273315.4624  -11781003.58346  -9060583.41761
  22220215.7744   -9470083.83746  -7278728.22061
  23405981.8294   -9318669.39845  -4183951.09261
  23913849.7904    -549032.33343        -0.13271
 91  5  1 19 38 29.9970000  0  6G18G19G 2G11G16G 6
  19787560.7904   -2601139.22747  -2010642.71263
  19851392.4234   -5605905.32047  -4313287.24362
  22258516.3604  -11858770.64046  -9121181.02161
  22209135.3684   -9528303.53946  -7324094.13661
  23394360.1104   -9379746.12345  -4231543.32661
  23900779.0324    -617692.49543    -53501.48361
 91  5  1 19 38 44.9960000  0  6G18G19G 2G11G16G 6
  19785387.9344   -2612561.49548  -2019543.22063
  19844369.3564   -5642817.82947  -4342050.23963
  22243723.9574  -11936486.82646  -9181738.96361
  22198080.5434   -9586409.24146  -7369371.21661
  23382757.1294   -9440711.72144  -4279048.98561
  23887709.6134    -686347.64542
 91  5  1 19 38 59.9960000  0  6G18G19G 2G11G16G 6
  19783233.8014   -2623879.63447  -2028362.58463
  19837349.2934   -5679699.01847  -4370788.82562
  22228946.4494  -12014159.35846  -9242262.89261
  22187041.9264   -9644405.41646  -7414562.94461
  23371169.1524   -9501571.18144  -4326471.90261
  23874640.5044    -755003.83542
 91  5  1 19 39 14.9960000  0  6G18G19G 2G11G16G 6
  19781099.3164   -2635096.85647  -2037103.31663
  19830341.4964   -5716550.17147  -4399504.01362
  22214174.0274  -12091786.43746  -9302751.41261
  22176029.0984   -9702291.48146  -7459668.87361
  23359611.9024   -9562323.65645  -4373811.47561
  23861581.0434    -823660.24343
 91  5  1 19 39 29.9960000  0  6G18G19G 2G11G16G 6
  19778984.6294   -2646213.88448  -2045765.97163
  19823329.1134   -5753372.32447  -4428196.59762
  22199410.7854  -12169368.81646  -9363205.09661
  22165034.4574   -9760068.14846  -7504689.57261
  23348073.3874   -9622970.15645  -4421068.49761
  23848513.5354    -892317.81843
 91  5  1 19 39 44.9960000  0  6G18G19G 2G11G16G 6
  19776887.6524   -2657237.92748  -2054356.16863
  19816330.0124   -5790172.35247  -4456871.94262
  22184654.8014  -12246913.37146  -9423629.29761
  22154058.3244   -9817742.06146  -7549630.18461
  23336555.4344   -9683517.20945  -4468247.98761
  23835447.7934    -960983.73142
 91  5  1 19 39 59.9960000  0  6G18G19G 2G11G16G 6
  19774807.4024   -2668167.75848  -2062872.95963
  19809330.8564   -5826948.89047  -4485528.99363
  22169903.0984  -12324418.86346  -9484023.06061
  22143101.4494   -9875311.69846  -7594489.55861
  23325045.0984   -9743963.75845  -4515349.18661
  23822377.4574   -1029656.62242
 91  5  1 19 40 14.9960000  0  6G18G19G 2G11G16G 6
  19772745.0904   -2679002.34947  -2071315.53163
  19802337.7854   -5863700.63847  -4514166.71762
  22155164.2314  -12401883.70846  -9544385.15361
  22132170.0514   -9932775.32546  -7639266.31761
  23313567.0744   -9804308.29545  -4562370.90761
  23809315.7384   -1098335.25543        -0.17771
 91  5  1 19 40 29.9960000  0  6G18G19G 2G11G16G 6
  19770700.3954   -2689741.75647  -2079683.93863
  19795347.3094   -5900427.85247  -4542785.32762
  22140431.5904  -12479308.14746  -9604715.74861
  22121254.5594   -9990132.92646  -7683960.47361
  23302102.8164   -9864550.70545  -4609313.01861
  23796242.9414   -1167020.02843    -53520.69261
 91  5  1 19 40 44.9960000  0  6G18G19G 2G11G16G 6
  19768676.9024   -2700380.66048  -2087974.03263
  19788365.4654   -5937125.03047  -4571380.53263
  22125706.9574  -12556686.38146  -9665010.35161
  22110359.2934  -10047378.67246  -7728567.45461
  23290656.4104   -9924685.22345  -4656171.10461
  23783169.6374   -1235705.37942   -107041.58361
 91  5  1 19 40 59.9960000  0  6G18G19G 2G11G16G 6
  19766671.8874   -2710918.84748  -2096185.64163
  19781388.1524   -5973791.84647  -4599952.07362
  22110988.5904  -12634017.91046  -9725268.55861
  22099486.8244  -10104511.98846  -7773086.83661
  23279233.3484   -9984711.36045  -4702944.70461
  23770100.6454   -1304390.95343
 91  5  1 19 41 14.9960000  0  6G18G19G 2G11G16G 6
  19764684.9494   -2721358.77348  -2104320.68663
  19774415.1914   -6010430.92647  -4628502.00862
  22096280.9964  -12711305.31146  -9785492.36761
  22088636.7314  -10161535.17346  -7817520.40961
  23267835.7934  -10044631.64745  -4749635.83761
  23757034.6524   -1373079.65444
 91  5  1 19 41 29.9960000  0  6G18G19G 2G11G16G 6
  19762718.4344   -2731691.38348  -2112372.10763
  19767449.9574   -6047032.85747  -4657022.99362
  22081584.7854  -12788539.27346  -9845674.54661
  22077805.6374  -10218438.64046  -7861860.68461
  23256457.1374  -10104436.72345  -4796237.17861
  23743951.6764   -1441762.09542
 91  5  1 19 41 44.9960000  0  6G18G19G 2G11G16G 6
  19760770.7704   -2741928.32948  -2120348.98563
  19760489.6294   -6083609.05047  -4685523.91462
  22066896.3244  -12865731.32846  -9905824.07361
  22066996.7154  -10275233.60246  -7906116.41661
  23245091.7544  -10164138.04345  -4842757.68961
  23730887.6214   -1510449.90843        -0.28871
 91  5  1 19 41 59.9960000  0  6G18G19G 2G11G16G 6
  19758842.7234   -2752061.85048  -2128245.27663
  19753533.0204   -6120151.73447  -4713998.73562
  22052216.8164  -12942873.23846  -9965934.51461
  22056211.2464  -10331911.92646  -7950281.26161
  23233757.3484  -10223727.42745  -4889190.96661
  23717818.4654   -1579135.29443    -53521.30261
 91  5  1 19 42 14.9960000  0  6G18G19G 2G11G16G 6
  19756934.8484   -2762093.09348  -2136061.87063
  19746588.6214   -6156661.82747  -4742448.15562
  22037546.5204  -13019965.73246 -10026006.45061
  22045449.0124  -10388474.37946  -7994355.82361
  23222432.2854  -10283205.63245  -4935537.60661
  23704747.4654   -1647819.25043
 91  5  1 19 42 29.9960000  0  6G18G19G 2G11G16G 6
  19755045.6454   -2772019.95048  -2143797.12563
  19739644.1134   -6193136.96147  -4770870.33762
  22022885.2154  -13097006.45046 -10086038.05561
  22034708.5124  -10444918.38246  -8038338.08161
  23211143.1134  -10342570.07945  -4981795.60361
  23691681.4574   -1716499.55343
 91  5  1 19 42 44.9960000  0  6G18G19G 2G11G16G 6
  19753176.3164   -2781844.43747  -2151452.61163
  19732713.4654   -6229579.21647  -4799266.89962
  22008238.6994  -13173997.49446 -10146030.94861
  22023993.8874  -10501245.71946  -8082229.44061
  23199854.4104  -10401822.96944  -5027966.67761
  23678607.6764   -1785178.41343
 91  5  1 19 42 59.9960000  0  6G18G19G 2G11G16G 6
  19751325.2774   -2791566.53048  -2159028.30863
  19725781.9184   -6265988.78947  -4827637.99562
  21993595.6604  -13250938.91546 -10205985.16961
  22013294.3564  -10557456.22946  -8126029.75861
  23188608.5434  -10460964.24445  -5074050.74861
  23665529.8954   -1853856.03142        -0.41171
 91  5  1 19 43 14.9960000  0  6G18G19G 2G11G16G 6
  19749494.3484   -2801190.67848  -2166527.68463
  19718862.7234   -6302369.72047  -4855986.76962
  21978958.1914  -13327834.62446 -10265903.78261
  22002619.0744  -10613553.64146  -8169741.94761
  23177369.0904  -10519997.69843  -5120050.84861
  23652466.8014   -1922536.52743    -53517.59161
 91  5  1 19 43 29.9960000  0  6G18G19G 2G11G16G 6
  19747682.4814   -2810711.69248  -2173946.70163
  19711942.6214   -6338716.55547  -4884308.98262
  21964337.4964  -13404679.12846 -10325782.47961
  21991965.6994  -10669532.30046  -8213361.60761
  23166158.6524  -10578917.50644  -5165962.36761
  23639393.9574   -1991214.51242
 91  5  1 19 43 44.9960000  0  6G18G19G 2G11G16G 6
  19745890.4884   -2820129.71447  -2181285.45963
  19705035.6604   -6375029.50847  -4912604.78462
  21949723.1604  -13481472.55346 -10385621.38861
  21981335.6294  -10725392.45146  -8256888.92261
  23154971.0204  -10637724.27944  -5211785.79661
  23626332.2314   -2059890.37943
 91  5  1 19 43 59.9960000  0  6G18G19G 2G11G16G 6
  19744117.5274   -2829448.65147  -2188547.01163
  19698128.6844   -6411312.38047  -4940877.15262
  21935120.0514  -13558218.66446 -10445423.42261
  21970729.7074  -10781137.25646  -8300326.35261
  23143801.1994  -10696421.37044  -5257523.76961
  23613264.8954   -2128567.89543
 91  5  1 19 44 14.9960000  0  6G18G19G 2G11G16G 6
  19742363.4884   -2838667.59948  -2195730.65363
  19691232.5434   -6447564.02647  -4969125.18763
  21920525.5204  -13634916.06046 -10505187.50561
  21960139.8954  -10836765.42546  -8343672.91461
  23132655.3564  -10755007.77145  -5303175.48461
  23600195.8634   -2197246.08443        -0.48871
 91  5  1 19 44 29.9960000  0  6G18G19G 2G11G16G 6
  19740626.3244   -2847789.93147  -2202839.00663
  19684335.9814   -6483787.62847  -4997351.37162
  21905938.3324  -13711567.72046 -10564915.94361
  21949579.1524  -10892279.97946  -8386930.93461
  23121526.1604  -10813486.47544  -5348743.29961
  23587122.9184   -2265928.18343    -53518.89161
 91  5  1 19 44 44.9960000  0  6G18G19G 2G11G16G 6
  19738910.2854   -2856811.07148  -2209868.50863
  19677450.9964   -6519978.55347  -5025552.09163
  21891361.8324  -13788169.18746 -10624605.27161
  21939036.8324  -10947676.11746  -8430096.68261
  23110416.3404  -10871852.63444  -5394223.41361
  23574054.7624   -2334609.84443   -107036.96061
 91  5  1 19 44 59.9960000  0  6G18G19G 2G11G16G 6
  19737212.1064   -2865738.64147  -2216825.09763
  19670567.9574   -6556144.25347  -5053733.15463
  21876789.4414  -13864727.81646 -10684261.23061
  21928515.9884  -11002960.95146  -8473175.70661
  23099327.1684  -10930113.80644  -5439621.70761
  23560981.8404   -2403298.42443   -160560.42761
 91  5  1 19 45 14.9960000  0  6G18G19G 2G11G16G 6
  19735531.6134   -2874568.42547  -2223705.49763
  19663694.2704   -6592280.42447  -5081891.20563
  21862234.4814  -13941239.00746 -10743880.20461
  21918019.7234  -11058129.96746  -8516164.49161
  23088269.3564  -10988265.45545  -5484934.69361
  23547914.2074   -2471989.65943   -214085.96561
 91  5  1 19 45 29.9960000  0  6G18G19G 2G11G16G 6
  19733869.8324   -2883299.44547  -2230508.92963
  19656822.6764   -6628385.99847  -5110025.42162
  21847682.3634  -14017701.57646 -10803461.30861
  21907541.5744  -11113181.68646  -8559061.86761
  23077228.0904  -11046306.15845  -5530161.19761
  23534839.3874   -2540682.66043   -267612.88361
 91  5  1 19 45 44.9960000  0  6G18G19G 2G11G16G 6
  19732227.2934   -2891935.84847  -2237238.63863
  19649956.4814   -6664465.01747  -5138138.94162
  21833138.6294  -14094119.41946 -10863007.56661
  21897085.7464  -11168119.97446  -8601870.85861
  23066189.8874  -11104240.12744  -5575304.52761
  23521762.9344   -2609381.49043   -321144.29161
 91  5  1 19 45 59.9960000  0  6G18G19G 2G11G16G 6
  19730600.7854   -2900478.49047  -2243895.28963
  19643096.0904   -6700518.13447  -5166232.27562
  21818608.5044  -14170493.35446 -10922519.59061
  21886656.6064  -11222945.37546  -8644591.88661
  23055190.4414  -11162067.84245  -5620365.08561
  23508693.0044   -2678086.83443   -374680.85161
 91  5  1 19 46 14.9960000  0  6G18G19G 2G11G16G 6
  19728992.8794   -2908926.79147  -2250478.42363
  19636240.2704   -6736544.56047  -5194304.81463
  21804081.2464  -14246822.44546 -10981996.68961
  21876243.5204  -11277656.79946  -8687224.08961
  23044209.5204  -11219788.08945  -5665341.89461
  23495625.4104   -2746798.12144   -428221.98761
 91  5  1 19 46 29.9960000  0  6G18G19G 2G11G16G 6
  19727402.7154   -2917284.75147  -2256991.16163
  19629389.0514   -6772548.40547  -5222359.75462
  21789564.8874  -14323110.68246 -11041441.94461
  21865852.3324  -11332258.11646  -8729770.52161
  23033244.6064  -11277405.01845  -5710238.16861
  23482537.9024   -2815519.52043
 91  5  1 19 46 44.9960000  0  5G18G19G 2G11G16
  19725830.6914   -2925549.07047  -2263430.93563
  19622541.2154   -6808525.92147  -5250394.18362
  21775058.8954  -14399354.16646 -11100852.33061
  21855483.5664  -11386745.47946  -8772228.14461
  23022300.4814  -11334914.74545  -5755050.95261
 91  5  1 19 46 59.9960000  0  5G18G19G 2G11G16
  19724274.4414   -2933720.91447  -2269798.65463
  19615704.1764   -6844478.30547  -5278409.03063
  21760555.3954  -14475554.07546 -11160228.76361
  21845138.6134  -11441119.87246  -8814597.73261
  23011377.3244  -11392318.55845  -5799781.16261
 91  5  1 19 47 14.9960000  0  6G18G19G 2G11G16G 6
  19722736.3874   -2941803.40947  -2276096.74764
  19608863.9884   -6880408.60147  -5306406.65862
  21746062.6064  -14551713.34046 -11219573.52261
  21834811.0204  -11495384.00946  -8856881.41161
  23000474.1684  -11449619.29045  -5844431.11561
  23443306.5514         -0.62853
 91  5  1 19 47 29.9960000  0  6G18G19G 2G11G16G 6
  19721216.5664   -2949799.22247  -2282327.29663
  19602031.9654   -6916318.98047  -5334388.77762
  21731572.7384  -14627834.11546 -11278888.31161
  21824505.1294  -11549539.92246  -8899080.77061
  22989586.9264  -11506819.25845  -5889002.47861
  23430217.0824     -68760.28544
 91  5  1 19 47 44.9960000  0  6G18G19G 2G11G16G 6
  19719711.2934   -2957707.56547  -2288489.69364
  19595201.5824   -6952208.86847  -5362354.92362
  21717101.4734  -14703915.77746 -11338172.59661
  21814221.4264  -11603586.73646  -8941195.11061
  22978723.2074  -11563917.47545  -5933494.62161
  23417130.9414    -137532.63443        -0.03871
 91  5  1 19 47 59.9960000  0  6G18G19G 2G11G16G 6
  19718223.1214   -2965525.68547  -2294581.77963
  19588379.0204   -6988075.18446  -5390302.70262
  21702629.7854  -14779955.06246 -11397423.86961
  21803959.7074  -11657521.05646  -8983221.79461
  22967878.9104  -11620910.47545  -5977904.73561
  23404041.5044    -206314.64643    -53596.28561
 91  5  1 19 48 14.9960000  0  6G18G19G 2G11G16G 6
  19716753.6134   -2973251.19647  -2300601.70463
  19581553.5744   -7023915.47747  -5418230.20162
  21688169.5904  -14855949.36246 -11456640.10261
  21793717.2854  -11711340.39546  -9025158.88261
  22957047.7544  -11677796.06245  -6022231.19361
  23390951.5204    -275104.02043   -107198.27461
 91  5  1 19 48 29.9960000  0  6G18G19G 2G11G16G 6
  19715301.3484   -2980882.11147  -2306547.91963
  19574741.6064   -7059727.46247  -5446135.64962
  21673712.7384  -14931896.32946 -11515819.44861
  21783497.2074  -11765042.10146  -9067004.31961
  22946249.9654  -11734571.93045  -6066472.09961
  23377855.5204    -343898.54143   -160804.31061
 91  5  1 19 48 44.9960000  0  6G18G19G 2G11G16G 6
  19713867.4104   -2988418.55647  -2312420.52663
  19567931.3874   -7095511.28147  -5474019.14262
  21659271.5514  -15007796.31346 -11574962.17861
  21773301.6684  -11818626.35646  -9108758.21861
  22935465.3244  -11791238.19644  -6110627.64861
  23364763.6604    -412698.47643   -214414.56561
 91  5  1 19 48 59.9960000  0  6G18G19G 2G11G16G 6
  19712451.4184   -2995857.78647  -2318217.37263
  19561125.8094   -7131263.92047  -5501878.34662
  21644839.3094  -15083646.16546 -11634065.84261
  21763128.4734  -11872089.79946  -9150417.98661
  22924702.3874  -11847791.57344  -6154695.20061
  23351675.9104    -481500.93744   -268026.71861
 91  5  1 19 49 14.9960000  0  6G18G19G 2G11G16G 6
  19711053.7544   -3003203.45948  -2323941.32463
  19554330.7624   -7166989.00347  -5529716.07762
  21630415.1064  -15159449.33446 -11693133.14761
  21752975.8324  -11925435.73146  -9191986.18861
  22913958.0744  -11904235.59944  -6198677.54661
  23338577.0984    -550309.60543   -321643.73661
 91  5  1 19 49 29.9950000  0  6G18G19G 2G11G16G 6
  19709673.3824   -3010454.48047  -2329591.51964
  19547538.0854   -7202683.30247  -5557529.81962
  21616001.9134  -15235199.75446 -11752159.33461
  21742849.7574  -11978659.59646  -9233459.27661
  22903243.2884  -11960565.65545  -6242571.11861
  23325483.1014    -619118.83544   -375261.20861
 91  5  1 19 49 44.9950000  0  6G18G19G 2G11G16G 6
  19708310.8274   -3017612.37247  -2335169.14663
  19540750.4524   -7238351.93747  -5585323.56462
  21601590.5154  -15310907.65646 -11811152.41261
  21732738.8984  -12031768.68646  -9274842.92661
  22892543.1484  -12016789.58845  -6286381.94561
  23312385.6634    -687938.58144   -428886.86261
 91  5  1 19 49 59.9950000  0  6G18G19G 2G11G16G 6
  19706967.0694   -3024676.53747  -2340673.73663
  19533965.5544   -7273992.14647  -5613095.15862
  21587192.0854  -15386567.86246 -11870108.30861
  21722656.6164  -12084758.93646  -9316133.97461
  22881860.2494  -12072903.10844  -6330106.78961
  23299298.3824    -756763.98144   -482516.96261
 91  5  1 19 50 14.9950000  0  6G18G19G 2G11G16G 6
  19705641.9764   -3031650.26147  -2346107.85563
  19527190.0624   -7309607.29047  -5640847.22062
  21572801.6404  -15462183.55846 -11929029.52061
  21712595.4994  -12137633.31146  -9357334.73561
  22871212.7264  -12128909.24645  -6373747.90661
  23286198.1404    -825598.44943   -536154.12261
 91  5  1 19 50 29.9950000  0  6G18G19G 2G11G16G 6
  19704330.8354   -3038528.66647  -2351467.70663
  19520416.8984   -7345192.34147  -5668575.83662
  21558426.5234  -15537749.57246 -11987912.01961
  21702555.3274  -12190386.57446  -9398441.12761
  22860569.1084  -12184802.98744  -6417301.47861
  23273085.6404    -894436.81643   -589794.26661
 91  5  1 19 50 44.9950000  0  6G18G19G 2G11G16G 6
  19703038.6014   -3045322.71447  -2356761.81563
  19513650.3904   -7380757.84847  -5696289.21962
  21544053.6944  -15613276.29546 -12046763.90961
  21692538.7334  -12243029.24946  -9439461.33461
  22849953.9374  -12240594.93045  -6460775.72261
  23259994.7024    -963289.93643   -643445.94261
 91  5  1 19 50 59.9950000  0  6G18G19G 2G11G16G 6
  19701759.6714   -3052036.74147  -2361993.57163
  19506883.6634   -7416308.21747  -5723990.80662
  21529688.0694  -15688768.26646 -12105588.72461
  21682540.6324  -12295565.63846  -9480398.73061
  22839358.3824  -12296289.19345  -6504173.85361
  23246886.1944   -1032162.34244   -697112.69561
 91  5  1 19 51 14.9950000  0  6G18G19G 2G11G16G 6
  19700497.2184   -3058673.02547  -2367164.75463
  19500124.6014   -7451845.29347  -5751682.03662
  21515328.5154  -15764227.23446 -12164387.82461
  21672564.9134  -12347997.24946  -9521254.48061
  22828782.3354  -12351887.61345  -6547497.28761
  23233776.5074   -1101055.97243   -750795.93061
 91  5  1 19 51 29.9950000  0  6G18G19G 2G11G16G 6
  19699250.5934   -3065227.17547  -2372271.93063
  19493360.1014   -7487364.68747  -5779359.48562
  21500974.4914  -15839648.62546 -12223157.64361
  21662608.2184  -12400319.37546  -9562024.91261
  22818220.5234  -12407385.93345  -6590742.75561
  23220657.5544   -1169966.43943   -804492.26861
 91  5  1 19 51 44.9950000  0  6G18G19G 2G11G16G 6
  19698019.0234   -3071698.44047  -2377314.52663
  19486608.4604   -7522865.51647  -5807022.47062
  21486629.4134  -15915031.54646 -12281897.48561
  21652671.4054  -12452531.05846  -9602709.29361
  22807671.5234  -12462783.00645  -6633909.28861
  23207548.8904   -1238893.06344   -858201.17261
 91  5  1 19 51 59.9950000  0  6G18G19G 2G11G16G 6
  19696803.4914   -3078085.60647  -2382291.58963
  19479854.1944   -7558346.25447  -5834669.80162
  21472290.1944  -15990374.41346 -12340606.10861
  21642755.6794  -12504630.60746  -9643306.29361
  22797150.1714  -12518077.45045  -6676995.87261
  23194424.0384   -1307834.36644   -911921.56061
 91  5  1 19 52 14.9950000  0  6G18G19G 2G11G16G 6
  19695602.9444   -3084395.67147  -2387208.57263
  19473106.4294   -7593813.80946  -5862306.85662
  21457962.6484  -16065684.04746 -12399288.84461
  21632862.2264  -12556624.70246  -9683821.13461
  22786652.5774  -12573276.05045  -6720007.77261
  23181296.9764   -1376797.51543   -965659.00661
 91  5  1 19 52 29.9950000  0  6G18G19G 2G11G16G 6
  19694418.2104   -3090628.01047  -2392064.98363
  19466359.9294   -7629267.37747  -5889933.00862
  21443637.0624  -16140959.68346 -12457945.07961
  21622988.8904  -12608512.39646  -9724253.03661
  22776163.4994  -12628377.87545  -6762944.22761
  23168174.5154   -1445781.61743  -1019412.73461
 91  5  1 19 52 44.9950000  0  6G18G19G 2G11G16G 6
  19693245.4994   -3096783.55047  -2396861.56563
  19459617.5074   -7664707.65947  -5917548.82362
  21429319.3124  -16216201.95946 -12516575.34161
  21613133.8274  -12660294.15546  -9764602.41361
  22765690.0774  -12683383.51345  -6805805.77061
  23155041.6084   -1514787.44443  -1073183.33061
 91  5  1 19 52 59.9950000  0  6G18G19G 2G11G16G 6
  19692088.2184   -3102865.36747  -2401600.69863
  19452874.4914   -7700137.90947  -5945156.81462
  21415004.7494  -16291413.78746 -12575181.86761
  21603302.0234  -12711972.94546  -9804871.55961
  22755250.2334  -12738295.85145  -6848594.60261
  23141910.3434   -1583818.27944  -1126973.49361
 91  5  1 19 53 14.9950000  0  6G18G19G 2G11G16G 6
  19690945.3984   -3108873.21647  -2406282.19163
  19446133.2734   -7735557.69147  -5972756.64362
  21400699.3584  -16366594.83946 -12633764.40861
  21593487.4134  -12763548.26246  -9845060.06261
  22744810.1484  -12793114.42544  -6891310.37861
  23128767.1874   -1652873.86044  -1180782.92361
 91  5  1 19 53 29.9950000  0  6G18G19G 2G11G16G 6
  19689817.0544   -3114805.08047  -2410904.47263
  19439396.3984   -7770964.43747  -6000346.32262
  21386401.4994  -16441742.71346 -12692321.09461
  21583693.9294  -12815017.46346  -9885165.88661
  22734401.3824  -12847837.03245  -6933951.38961
  23115624.3744   -1721951.87344  -1234609.83061
 91  5  1 19 53 44.9950000  0  6G18G19G 2G11G16G 6
  19688702.9374   -3120657.81047  -2415465.09864
  19432663.3124   -7806354.78547  -6027923.22062
  21372108.8194  -16516853.72146 -12750849.05261
  21573921.6244  -12866376.81346  -9925186.11761
  22724003.3354  -12902459.94845  -6976514.67161
  23102474.3194   -1791048.87744  -1288451.54861
 91  5  1 19 53 59.9950000  0  6G18G19G 2G11G16G 6
  19687606.1634   -3126425.28447  -2419959.28763
  19425930.5074   -7841722.52047  -6055482.49562
  21357822.2414  -16591921.75146 -12809343.53961
  21564168.0694  -12917620.14946  -9965115.93761
  22713629.6794  -12956977.20244  -7018995.67561
  23089323.5234   -1860158.95844  -1342303.42261
 91  5  1 19 54 14.9950000  0  6G18G19G 2G11G16G 6
  19686524.3194   -3132108.98247  -2424388.19163
  19419205.1794   -7877069.01247  -6083025.22162
  21343545.4294  -16666947.92346 -12867805.39461
  21554439.2734  -12968748.63746 -10004956.27661
  22703282.5774  -13011390.09745  -7061395.33561
  23076169.4914   -1929283.46144  -1396166.57961
 91  5  1 19 54 29.9950000  0  6G18G19G 2G11G16G 6
  19685458.9994   -3137715.50547  -2428756.96963
  19412478.7884   -7912400.69847  -6110556.40962
  21329272.4604  -16741938.50746 -12926239.53461
  21544727.3664  -13019768.32146 -10044711.83461
  22692942.3044  -13065704.72945  -7103718.41861
  23063006.8514   -1998428.83144  -1450045.96161
 91  5  1 19 54 44.9950000  0  6G18G19G 2G11G16G 6
  19684406.5854   -3143241.82647  -2433063.24563
  19405765.9524   -7947714.46847  -6138073.63362
  21315009.1944  -16816890.54646 -12984643.62961
  21535046.1484  -13070675.92546 -10084380.05061
  22682625.8984  -13119917.74045  -7145962.31761
  23049847.5854   -2067592.06143  -1503939.24161
 91  5  1 19 54 59.9950000  0  6G18G19G 2G11G16G 6
  19683370.6874   -3148685.95947  -2437305.47963
  19399043.5694   -7983007.92147  -6165575.02862
  21300756.5304  -16891801.78446 -13043015.93461
  21525375.0544  -13121469.07646 -10123959.08661
  22672323.7024  -13174026.95145  -7188125.35261
  23036682.6404   -2136771.10343  -1557844.85061
 91  5  1 19 55 14.9950000  0  6G18G19G 2G11G16G 6
  19682348.6874   -3154049.11747  -2441484.61763
  19392333.4374   -8018282.28647  -6193061.54762
  21286510.1554  -16966673.11846 -13101357.13261
  21515731.1404  -13172148.66646 -10163449.63061
  22662052.7734  -13228033.71845  -7230208.54861
  23023512.0694   -2205967.06843  -1611763.70061
 91  5  1 19 55 29.9950000  0  6G18G19G 2G11G16G 6
  19681342.3044   -3159334.42747  -2445603.09563
  19385624.5074   -8053540.35847  -6220535.37462
  21272271.1714  -17041507.37646 -13159669.46161
  21506110.8904  -13222717.36946 -10202853.77161
  22651795.9604  -13281940.68045  -7272213.97761
  23010341.8584   -2275182.83344  -1665697.93261
 91  5  1 19 55 44.9950000  0  6G18G19G 2G11G16G 6
  19680351.0694   -3164547.45547  -2449665.25463
  19378920.4134   -8088787.42047  -6248000.62062
  21258031.8274  -17116309.94946 -13217957.09561
  21496506.1404  -13273180.49246 -10242175.64761
  22641555.7414  -13335752.98145  -7314145.65661
  22997169.5304   -2344423.89843  -1719651.93161
 91  5  1 19 55 59.9950000  0  6G18G19G 2G11G16G 6
  19679372.8354   -3169689.70447  -2453672.25363
  19372208.4294   -8124024.89647  -6275458.40062
  21243807.5774  -17191081.96246 -13276220.91061
  21486922.3664  -13323539.13046 -10281416.10661
  22631327.9294  -13389472.14245  -7356004.75661
  22983983.5384   -2413691.78343  -1773626.70461
 91  5  1 19 56 14.9950000  0  6G18G19G 2G11G16G 6
  19678407.5154   -3174762.22247  -2457624.92663
  19365507.9294   -8159253.77547  -6302909.48162
  21229578.1484  -17265824.34246 -13334461.63761
  21477363.5854  -13373794.17246 -10320575.83461
  22621125.8354  -13443099.01645  -7397791.90561
  22970802.5774   -2482987.47244  -1827623.18861
 91  5  1 19 56 29.9950000  0  6G18G19G 2G11G16G 6
  19677454.7024   -3179766.14447  -2461524.13863
  19358803.6014   -8194474.89447  -6330354.50662
  21215363.1634  -17340538.00946 -13392679.99061
  21467816.4054  -13423946.31546 -10359655.38861
  22610940.3744  -13496634.22545  -7439507.64661
  22957614.4294   -2552311.98544  -1881642.17961
 91  5  1 19 56 44.9950000  0  6G18G19G 2G11G16G 6
  19676515.5934   -3184702.52347  -2465370.72663
  19352105.5694   -8229688.89847  -6357793.99362
  21201152.3274  -17415223.62346 -13450876.47861
  21458292.2574  -13473996.16446 -10398655.23661
  22600765.4604  -13550078.51745  -7481152.54561
  22944412.1404   -2621666.15244  -1935684.25961
 91  5  1 19 56 59.9950000  0  6G18G19G 2G11G16G 6
  19675589.9054   -3189569.84547  -2469163.50363
  19345404.1484   -8264894.40047  -6385226.85462
  21186945.9054  -17489879.55746 -13509049.84161
  21448787.4444  -13523941.99846 -10437574.02961
  22590622.1324  -13603430.46045  -7522725.48161
  22931209.7334   -2691048.55144  -1989748.30361
 91  5  1 19 57 14.9950000  0  6G18G19G 2G11G16G 6
  19674677.0464   -3194365.00747  -2472900.05163
  19338709.1244   -8300087.89347  -6412650.35762
  21172746.5074  -17564502.28646 -13567197.33561
  21439303.0464  -13573780.09746 -10476408.87661
  22580486.8744  -13656686.55645  -7564223.73861
  22917999.6874   -2760455.70844  -2043831.66861
 91  5  1 19 57 29.9950000  0  6G18G19G 2G11G16G 6
  19673778.5854   -3199085.74747  -2476578.60864
  19332012.2804   -8335267.13247  -6440062.75462
  21158551.2884  -17639089.47546 -13625317.13461
  21429842.7884  -13623507.99746 -10515157.85561
  22570363.0234  -13709844.21945  -7605645.29661
  22904791.6874   -2829885.45844  -2097932.65261
 91  5  1 19 57 44.9950000  0  6G18G19G 2G11G16G 6
  19672895.2104   -3203734.51547  -2480201.08063
  19325321.5464   -8370434.32947  -6467465.77062
  21144361.1794  -17713643.48646 -13683411.08261
  21420401.0234  -13673128.05446 -10553822.79661
  22560268.6484  -13762905.93445  -7646992.07461
  22891572.6874   -2899340.37244  -2152053.22761
 91  5  1 19 57 59.9950000  0  6G18G19G 2G11G16G 6
  19672024.7184   -3208311.33147  -2483767.49463
  19318631.6404   -8405589.21147  -6494859.18762
  21130184.2264  -17788163.96046 -13741478.90061
  21410977.6634  -13722639.73446 -10592403.28461
  22550193.4444  -13815871.38045  -7688263.86161
  22878353.4524   -2968820.17444  -2206193.22361
 91  5  1 19 58 14.9950000  0  6G18G19G 2G11G16G 6
  19671166.1554   -3212811.04547  -2487273.82363
  19311945.2104   -8440726.25847  -6522238.71062
  21116010.0074  -17862645.36646 -13799516.26761
  21401575.4914  -13772037.35646 -10630894.91061
  22540131.3744  -13868734.93645  -7729456.21861
  22865125.5304   -3038319.49443  -2260348.41061
 91  5  1 19 58 29.9950000  0  6G18G19G 2G11G16G 6
  19670325.2494   -3217237.32447  -2490722.92763
  19305261.3194   -8475849.00447  -6549607.09162
  21101845.1324  -17937091.21246 -13857525.93361
  21392197.4914  -13821324.24646 -10669300.24061
  22530090.1484  -13921500.24045  -7770572.04761
  22851889.6874   -3107841.86643  -2314521.55961
 91  5  1 19 58 44.9950000  0  6G18G19G 2G11G16G 6
  19669498.3904   -3221588.49147  -2494113.51263
  19298583.0694   -8510955.93147  -6576963.14262
  21087683.1084  -18011499.69246 -13915506.48261
  21382839.7804  -13870498.76046 -10707618.01261
  22520061.5774  -13974165.75044  -7811610.10461
  22838658.3984   -3177385.90243  -2368711.60961
 91  5  1 19 58 59.9950000  0  6G18G19G 2G11G16G 6
  19668682.5234   -3225868.28347  -2497448.47364
  19291903.5464   -8546050.16447  -6604309.29862
  21073533.4294  -18085874.02446 -13973460.42561
  21373502.5384  -13919563.82146 -10745850.49861
  22510069.5854  -14026734.21245  -7852572.53661
  22825425.0074   -3246954.69444  -2422920.96461
 91  5  1 19 59 14.9950000  0  6G18G19G 2G11G16G 6
  19667881.7334   -3230079.32147  -2500729.86264
  19285228.4134   -8581134.32047  -6631647.60962
  21059384.5074  -18160216.69746 -14031389.70361
  21364189.5234  -13968521.84546 -10783999.56961
  22500078.9604  -14079208.41545  -7893461.52861
  22812184.1324   -3316551.07243  -2477151.83661
 91  5  1 19 59 29.9950000  0  6G18G19G 2G11G16G 6
  19667093.3194   -3234218.24947  -2503955.06264
  19278553.3124   -8616204.67447  -6658975.15962
  21045244.1554  -18234523.84946 -14089291.29061
  21354892.1404  -14017369.08146 -10822062.32661
  22490109.6084  -14131584.55845  -7934274.10461
  22798938.4214   -3386171.30543  -2531401.24761
 91  5  1 19 59 44.9950000  0  6G18G19G 2G11G16G 6
  19666321.5464   -3238285.69147  -2507124.55863
  19271884.1244   -8651261.76547  -6686292.37962
  21031111.3274  -18308795.99046 -14147165.60261
  21345618.2734  -14066106.01346 -10860039.12661
  22480160.0464  -14183863.17045  -7975010.71261
  22785676.8664   -3455816.18044  -2585669.87761
 91  5  1 19 59 59.9940000  0  6G18G19G 2G11G16G 6
  19665559.1744   -3242283.16647  -2510239.53163
  19265213.0184   -8686304.92847  -6713598.74062
  21016982.6974  -18383029.90146 -14205010.11961
  21336365.1044  -14114730.96646 -10897928.66861
  22470234.9084  -14236042.56745  -8015669.94561
  22772420.8694   -3525482.79844  -2639955.46961
 91  5  1 20  0 14.9940000  0  6G18G19G 2G11G16G 6
  19664812.5104   -3246207.26647  -2513297.32763
  19258544.1434   -8721334.56647  -6740894.56562
  21002864.1434  -18457231.30846 -14262829.30661
  21327134.1114  -14163245.90846 -10935732.50361
  22460322.3694  -14288125.29745  -8056253.93261
  22759153.7754   -3595176.30244  -2694261.99261
 91  5  1 20  0 29.9940000  0  6G18G19G 2G11G16G 6
  19664081.6824   -3250052.06247  -2516293.32863
  19251888.6194   -8756342.64746  -6768173.59162
  20988751.4474  -18531389.42646 -14320614.77561
  21317923.9164  -14211641.96546 -10973443.69361
  22450427.3154  -14340102.21545  -8096755.44961
  22745894.5654   -3664886.57344  -2748581.62361
 91  5  1 20  0 44.9940000  0  6G18G19G 2G11G16G 6
  19663361.3154   -3253827.79047  -2519235.50963
  19245223.0724   -8791338.78047  -6795443.30862
  20974647.1274  -18605513.84546 -14378373.97261
  21308734.2054  -14259928.55846 -11011069.59361
  22440557.2604  -14391983.00545  -8137182.05161
  22732623.8854   -3734623.20344  -2802921.75961
 91  5  1 20  0 59.9940000  0  6G18G19G 2G11G16G 6
  19662660.0184   -3257523.89147  -2522115.64563
  19238572.1274   -8826312.40447  -6822695.48762
  20960550.2994  -18679594.05046 -14436098.72461
  21299569.2834  -14308094.91346 -11048601.80161
  22430711.0654  -14443757.15745  -8177525.54461
  22719346.9244   -3804375.74844  -2857274.33161
 91  5  1 20  1 14.9940000  0  6G18G19G 2G11G16G 6
  19661973.3074   -3261129.78047  -2524925.49163
  19231919.1354   -8861252.81947  -6849921.78262
  20946463.7604  -18753619.16446 -14493780.55161
  21290427.9084  -14356130.24046 -11086031.89761
  22420881.1904  -14495413.79945  -8217777.48261
  22706074.5654   -3874133.54243  -2911630.96961
 91  5  1 20  1 29.9940000  0  6G18G19G 2G11G16G 6
  19661302.0654   -3264654.98247  -2527672.45163
  19225276.1584   -8896169.19147  -6877129.34962
  20932384.4554  -18827598.31546 -14551426.55561
  21281311.4714  -14404043.56546 -11123366.93661
  22411071.3464  -14546961.70645  -8257944.69561
  22692796.4634   -3943905.79044  -2965998.86161
 91  5  1 20  1 44.9940000  0  6G18G19G 2G11G16G 6
  19660646.6584   -3268101.72647  -2530358.28563
  19218635.7364   -8931063.54147  -6904319.75562
  20918315.1274  -18901533.29646 -14609038.15161
  21272216.3934  -14451836.81146 -11160608.40961
  22401275.7834  -14598403.27745  -8298029.04261
  22679511.4324   -4013694.62943  -3020379.71661
 91  5  1 20  1 59.9940000  0  6G18G19G 2G11G16G 6
  19660007.7214   -3271461.63747  -2532976.45063
  19212003.1114   -8965927.44546  -6931486.44062
  20904258.9864  -18975415.94046 -14666608.96461
  21263148.6664  -14499501.49346 -11197749.69661
  22391518.3154  -14649730.27645  -8338024.12861
  22666226.6824   -4083491.90343  -3074767.11861
 91  5  1 20  2 14.9940000  0  6G18G19G 2G11G16G 6
  19659384.6744   -3274737.11447  -2535528.82663
  19205372.2054   -9000762.86747  -6958630.92662
  20890207.4554  -19049248.22846 -14724140.53961
  21254098.3854  -14547039.34146 -11234792.15161
  22381770.8934  -14700944.27745  -8377931.14761
  22652948.7054   -4153299.53943  -3129162.60161
 91  5  1 20  2 29.9940000  0  6G18G19G 2G11G16G 6
  19658775.5724   -3277938.96447  -2538023.82663
  19198746.0884   -9035580.45247  -6985761.52462
  20876165.4004  -19123040.74846 -14781641.12361
  21245075.1744  -14594461.04246 -11271744.10561
  22372039.6044  -14752056.18945  -8417758.60061
  22639662.8384   -4223128.38443  -3183574.61761
 91  5  1 20  2 44.9940000  0  6G18G19G 2G11G16G 6
  19658179.0724   -3281071.68347  -2540464.95663
  19192122.6504   -9070384.50147  -7012881.56762
  20862127.1504  -19196797.55646 -14839113.88161
  21236067.9244  -14641770.61646 -11308608.68761
  22362338.6274  -14803070.08245  -8457509.71261
  22626370.6664   -4292982.73644  -3238006.52561
 91  5  1 20  2 59.9940000  0  6G18G19G 2G11G16G 6
  19657597.8774   -3284128.68547  -2542847.08963
  19185502.8614   -9105168.38547  -7039985.90362
  20848100.7994  -19270512.16546 -14896553.75561
  21227092.6114  -14688961.41646 -11345380.71361
  22352637.9084  -14853979.51245  -8497179.36861
  22613069.6114   -4362856.17543  -3292453.27061
 91  5  1 20  3 14.9940000  0  6G18G19G 2G11G16G 6
  19657034.3224   -3287093.19447  -2545157.14863
  19178894.2444   -9139915.00847  -7067061.19762
  20834084.0724  -19344167.53646 -14953947.47561
  21218137.8854  -14736016.36046 -11382046.88561
  22342986.8384  -14904767.50745  -8536754.43861
  22599775.4554   -4432731.81543  -3346901.74661
 91  5  1 20  3 29.9940000  0  6G18G19G 2G11G16G 6
  19656485.6584   -3289978.70747  -2547405.65863
  19172283.5254   -9174637.50947  -7094117.70162
  20820077.0964  -19417776.50046 -15011305.02561
  21209208.5184  -14782948.23846 -11418617.15261
  22333336.3854  -14955446.92645  -8576244.86361
  22586474.0724   -4502622.68243  -3401362.10861
 91  5  1 20  3 44.9940000  0  6G18G19G 2G11G16G 6
  19655947.5574   -3292792.88347  -2549598.57563
  19165680.4004   -9209343.47747  -7121161.32162
  20806078.2294  -19491346.66146 -15068632.34662
  21200300.9634  -14829764.61146 -11455097.41961
  22323714.9714  -15006025.34145  -8615656.62561
  22573173.0334   -4572536.51644  -3455840.31161
 91  5  1 20  3 59.9940000  0  6G18G19G 2G11G16G 6
  19655426.6504   -3295536.89047  -2551736.81463
  19159078.1194   -9244033.83947  -7148192.77862
  20792083.7214  -19564879.16146 -15125930.32961
  21191411.3694  -14876466.35546 -11491488.37261
  22314107.9794  -15056503.70445  -8654990.40161
  22559867.8154   -4642474.37344  -3510337.26961
 91  5  1 20  4 14.9940000  0  6G18G19G 2G11G16G 6
  19654919.1114   -3298201.73147  -2553813.36663
  19152481.7994   -9278699.09947  -7175204.67862
  20778102.1274  -19638364.42346 -15183191.50362
  21182549.6664  -14923043.95146 -11527782.58961
  22304519.9864  -15106872.67545  -8694238.96161
  22546549.8074   -4712426.90344  -3564845.67661
 91  5  1 20  4 29.9940000  0  6G18G19G 2G11G16G 6
  19654428.1904   -3300788.14347  -2555828.81363
  19145891.3544   -9313339.76947  -7202197.42162
  20764126.0574  -19711802.98346 -15240416.28061
  21173707.7134  -14969497.90046 -11563980.45161
  22294959.9244  -15157132.83345  -8733402.74661
  22533231.4164   -4782394.73044  -3619365.96461
 91  5  1 20  4 44.9940000  0  6G18G19G 2G11G16G 6
  19653949.7364   -3303299.88547  -2557786.07763
  19139303.4944   -9347959.32247  -7229173.70062
  20750158.0104  -19785198.12746 -15297607.22461
  21164892.7604  -15015831.38246 -11600084.45161
  22285414.5334  -15207287.38745  -8772484.20861
  22519913.4084   -4852381.34144  -3673900.90861
 91  5  1 20  4 59.9940000  0  6G18G19G 2G11G16G 6
  19653487.4794   -3305732.17547  -2559681.42863
  19132720.8614   -9382553.07447  -7256129.87862
  20736200.7754  -19858545.41446 -15354760.88562
  21156097.6044  -15062039.67946 -11636090.88961
  22275893.9404  -15257331.78845  -8811479.89161
  22506596.4794   -4922382.23844  -3728446.96561
 91  5  1 20  5 14.9940000  0  6G18G19G 2G11G16G 6
  19653040.5574   -3308084.48147  -2561514.45463
  19126140.1354   -9417120.15547  -7283065.27662
  20722255.0494  -19931843.83846 -15411876.46961
  21147331.1274  -15108121.89646 -11671999.09961
  22266392.5254  -15307265.21445  -8850389.03561
  22493278.2444   -4992396.66544  -3783003.58861
 91  5  1 20  5 29.9940000  0  6G18G19G 2G11G16G 6
  19652606.2054   -3310360.29147  -2563287.87863
  19119570.5724   -9451663.96847  -7309982.54562
  20708314.7444  -20005096.57846 -15468956.46062
  21138581.4944  -15154081.16346 -11707811.49761
  22256909.0804  -15357091.17745  -8889214.50061
  22479949.9794   -5062428.01744  -3837573.43661
 91  5  1 20  5 44.9940000  0  6G18G19G 2G11G16G 6
  19652186.5574   -3312556.97747  -2564999.65063
  19112999.6194   -9486181.65447  -7336879.45862
  20694382.9944  -20078300.87846 -15525998.70162
  21129860.7684  -15199914.55146 -11743525.81461
  22247445.4164  -15406806.85945  -8927954.03561
  22466622.0184   -5132473.53044  -3892154.26061
 91  5  1 20  5 59.9940000  0  6G18G19G 2G11G16G 6
  19651786.0574   -3314668.52547  -2566645.07863
  19106441.4324   -9520666.89947  -7363751.09162
  20680463.2754  -20151450.31446 -15582998.19562
  21121163.4794  -15245615.62146 -11779137.01061
  22237999.5104  -15456405.72345  -8966602.50161
  22453289.3774   -5202527.03043  -3946741.35261
 91  5  1 20  6 14.9940000  0  6G18G19G 2G11G16G 6
  19651401.0724   -3316694.19647  -2568223.59863
  19099881.5254   -9555118.41747  -7390596.43862
  20666556.1044  -20224543.64646 -15639953.96562
  21112492.2834  -15291183.16946 -11814644.17961
  22228586.2994  -15505886.83244  -9005159.26261
  22439950.0884   -5272587.39243  -4001333.77461
 91  5  1 20  6 29.9940000  0  6G18G19G 2G11G16G 6
  19651027.4244   -3318650.36647  -2569747.94863
  19093331.8304   -9589552.41547  -7417428.13562
  20652652.9324  -20297597.18546 -15696878.73462
  21103845.2524  -15336633.44846 -11850059.96361
  22219193.1354  -15555266.45345  -9043636.88361
  22426617.2364   -5342671.00943  -4055944.34061
 91  5  1 20  6 44.9940000  0  6G18G19G 2G11G16G 6
  19650670.7994   -3320532.24247  -2571214.40763
  19086781.1904   -9623964.06547  -7444242.42162
  20638760.4324  -20370605.92046 -15753768.58562
  21095218.8854  -15381961.27046 -11885380.32661
  22209822.3304  -15604539.48244  -9082031.49961
  22413275.7684   -5412773.03943  -4110569.21461
 91  5  1 20  6 59.9940000  0  6G18G19G 2G11G16G 6
  19650325.0574   -3322349.04747  -2572630.14763
  19080233.6274   -9658362.42547  -7471046.34662
  20624872.4244  -20443578.90246 -15810630.58762
  21086614.3934  -15427175.64446 -11920612.29661
  22200463.7994  -15653715.10345  -9120350.15461
  22399930.0104   -5482902.52843  -4165215.51061
 91  5  1 20  7 14.9940000  0  6G18G19G 2G11G16G 6
  19649993.4084   -3324087.94747  -2573985.18163
  19073694.8774   -9692734.34847  -7497829.67462
  20610996.0254  -20516503.01546 -15867454.50762
  21078034.8384  -15472263.50346 -11955745.68161
  22191122.0024  -15702780.15144  -9158582.71761
  22386580.6974   -5553046.60644  -4219873.17761
 91  5  1 20  7 29.9940000  0  6G18G19G 2G11G16G 6
  19649677.4634   -3325751.94947  -2575281.85363
  19067160.3614   -9727082.58047  -7524594.53862
  20597127.7524  -20589380.91746 -15924242.40962
  21069480.3544  -15517227.28846 -11990782.37761
  22181807.9794  -15751737.21245  -9196731.04161
  22373232.0884   -5623208.02744  -4274544.34861
 91  5  1 20  7 44.9940000  0  6G18G19G 2G11G16G 6
  19649374.9164   -3327346.77247  -2576524.62563
  19060624.6114   -9761412.53247  -7551345.16062
  20583265.1274  -20662218.15146 -15980998.62662
  21060945.5494  -15562072.53646 -12025726.71861
  22172504.8934  -15800591.91145  -9234799.70261
  22359883.2684   -5693392.41245  -4329233.38261
 91  5  1 20  7 59.9940000  0  6G18G19G 2G11G16G 6
  19649083.3694   -3328867.77347  -2577709.88463
  19054098.5024   -9795719.27847  -7578077.69962
  20569414.4084  -20735009.70446 -16037719.25362
  21052432.0024  -15606794.30946 -12060574.83961
  22163231.3154  -15849339.53345  -9272784.84961
  22346527.4474   -5763594.98445  -4383936.58261
 91  5  1 20  8 14.9940000  0  6G18G19G 2G11G16G 6
  19648808.0724   -3330319.03647  -2578840.79263
  19047572.8074   -9830006.42347  -7604794.96562
  20555569.3074  -20807759.15846 -16094407.07462
  21043948.5334  -15651396.03746 -12095329.42061
  22153972.6584  -15897983.57945  -9310689.27661
  22333156.5804   -5833819.28245  -4438656.72161
 91  5  1 20  8 29.9940000  0  6G18G19G 2G11G16G 6
  19648546.7684   -3331695.79347  -2579913.64963
  19041052.2294   -9864269.26947  -7631493.29562
  20541736.5654  -20880461.97546 -16151058.55761
  21035481.6824  -15695872.96246 -12129986.75561
  22144739.2364  -15946519.37745  -9348509.41661
  22319793.9794   -5904060.84845  -4493390.33861
 91  5  1 20  8 44.9940000  0  6G18G19G 2G11G16G 6
  19648299.5024   -3333003.47647  -2580932.68563
  19034536.1354   -9898512.86347  -7658176.62162
  20527908.9944  -20953122.94546 -16207677.42962
  21027042.3544  -15740230.21546 -12164550.83461
  22135529.1194  -15994952.41645  -9386249.44961
  22306418.4164   -5974324.86145  -4548141.44261
 91  5  1 20  8 59.9940000  0  6G18G19G 2G11G16G 6
  19648062.8464   -3334237.03247  -2581893.96263
  19028024.6664   -9932732.08247  -7684840.95462
  20514094.0884  -21025736.98746 -16264259.72862
  21018624.7364  -15784462.40946 -12199017.46661
  22126321.7214  -16043277.07545  -9423905.05361
  22293042.9714   -6044606.23844  -4602906.09261
 91  5  1 20  9 14.9940000  0  6G18G19G 2G11G16G 6
  19647841.8694   -3335393.28147  -2582794.99863
  19021517.2134   -9966923.63647  -7711483.73662
  20500283.4554  -21098300.73346 -16320802.84562
  21010233.2524  -15828566.12546 -12233383.98061
  22117158.6824  -16091489.88245  -9461473.48161
  22279669.3154   -6114901.57045  -4657681.58461
 91  5  1 20  9 29.9940000  0  6G18G19G 2G11G16G 6
  19647638.0184   -3336472.92447  -2583636.34963
  19015020.0334  -10001087.45547  -7738104.90362
  20486483.8854  -21170814.27546 -16377306.84662
  21001865.6504  -15872541.52846 -12267650.51961
  22108009.7684  -16139591.53745  -9498955.33761
  22266287.5964   -6185211.18144  -4712468.24861
 91  5  1 20  9 44.9940000  0  6G18G19G 2G11G16G 6
  19647447.7994   -3337483.02647  -2584423.51063
  19008520.8694  -10035230.44047  -7764709.83362
  20472693.1274  -21243284.51746 -16433777.10062
  20993520.4324  -15916395.35546 -12301822.32461
  22098867.2684  -16187588.64645  -9536355.68961
  22252902.2524   -6255542.12143  -4767271.49961
 91  5  1 20  9 59.9940000  0  6G18G19G 2G11G16G 6
  19647268.8384   -3338420.97847  -2585154.45863
  19002026.6824  -10069350.29647  -7791296.74562
  20458911.8934  -21315708.93946 -16490211.65662
  20985197.0104  -15960125.00246 -12335897.36361
  22089756.2754  -16235478.68745  -9573672.64461
  22239518.2834   -6325891.82944  -4822089.36761
 91  5  1 20 10 14.9930000  0  6G18G19G 2G11G16G 6
  19647100.0914   -3339287.64847  -2585829.85363
  18995539.3964  -10103444.96147  -7817864.02262
  20445139.7944  -21388083.21446 -16546607.13562
  20976899.1924  -16003728.00146 -12369873.71361
  22080659.5214  -16283258.94845  -9610904.03861
  22226126.0994   -6396256.23044  -4876918.74061
 91  5  1 20 10 29.9930000  0  6G18G19G 2G11G16G 6
  19646949.2554   -3340084.78247  -2586451.06063
  18989057.1304  -10137520.47147  -7844416.38062
  20431373.9824  -21460418.32146 -16602972.08662
  20968626.8254  -16047211.47046 -12403756.92161
  22071593.7084  -16330937.39245  -9648056.07661
  22212736.2634   -6466646.11945  -4931767.94461
 91  5  1 20 10 44.9930000  0  6G18G19G 2G11G16G 6
  19646812.0914   -3340811.47947  -2587017.39363
  18982574.5834  -10171573.47547  -7870951.19262
  20417616.4034  -21532708.43446 -16659301.99162
  20960374.2554  -16090571.50246 -12437543.94461
  22062530.7944  -16378509.77045  -9685125.50161
  22199337.0674   -6537056.02945  -4986632.73961
 91  5  1 20 10 59.9930000  0  6G18G19G 2G11G16G 6
  19646689.9664   -3341456.30047  -2587519.91563
  18976101.8964  -10205592.19647  -7897459.29762
  20403874.6304  -21604941.77746 -16715587.64662
  20952149.4274  -16133796.31246 -12471225.60361
  22053516.3644  -16425964.24145  -9722103.03661
  22185930.8254   -6607474.29544  -5041504.03861
 91  5  1 20 11 14.9930000  0  6G18G19G 2G11G16G 6
  19646581.4114   -3342029.51147  -2587966.63963
  18969630.5754  -10239586.46447  -7923948.34562
  20390135.8334  -21677127.99046 -16771836.58762
  20943946.7394  -16176895.54446 -12504809.40761
  22044490.6694  -16473310.70245  -9758996.42061
  22172525.6924   -6677910.77545  -5096389.54161
 91  5  1 20 11 29.9930000  0  6G18G19G 2G11G16G 6
  19646483.2634   -3342531.10947  -2588357.56063
  18963169.8964  -10273556.35347  -7950418.39362
  20376408.7634  -21749267.33346 -16828048.99862
  20935770.8494  -16219869.30946 -12538295.45061
  22035507.0214  -16520549.50145  -9795805.87361
  22159125.7554   -6748365.57845  -5151289.32461
 91  5  1 20 11 44.9930000  0  6G18G19G 2G11G16G 6
  19646406.3804   -3342945.12547  -2588680.23063
  18956711.2394  -10307485.49447  -7976856.69462
  20362690.6384  -21821343.33846 -16884212.05362
  20927622.7244  -16262701.19946 -12571670.94461
  22026534.9194  -16567664.10244  -9832518.60361
  22145716.7784   -6818822.56545  -5206190.81561
 91  5  1 20 11 59.9930000  0  6G18G19G 2G11G16G 6
  19646341.9114   -3343288.26547  -2588947.67763
  18950262.7324  -10341390.30847  -8003276.04262
  20348984.4114  -21893372.47446 -16940338.59162
  20919490.3644  -16305407.64146 -12604948.67661
  22017602.2474  -16614671.34745  -9869147.60561
  22132304.3254   -6889298.28945  -5261106.85261
 91  5  1 20 12 14.9930000  0  6G18G19G 2G11G16G 6
  19646290.8104   -3343554.74047  -2589155.38763
  18943812.0604  -10375264.77547  -8029671.73862
  20335287.7554  -21965348.56046 -16996423.79062
  20911393.7784  -16347982.49646 -12638123.87161
  22008673.8254  -16661565.02845  -9905688.17761
  22118890.6694   -6959786.77545  -5316032.87261
 91  5  1 20 12 29.9930000  0  6G18G19G 2G11G16G 6
  19646255.2164   -3343746.52747
  18937376.4194  -10409110.39847  -8056044.96062
  20321602.3174  -22037273.26546 -17052468.95162
  20903315.6534  -16390427.25946 -12671197.69961
  21999779.0054  -16708346.79945  -9942141.52861
  22105476.5284   -7030289.63945  -5370970.09561
 91  5  1 20 12 44.9930000  0  6G18G19G 2G11G16G 6
  19646228.5754   -3343868.98547
  18930935.9354  -10442932.29547  -8082399.69562
  20307925.2004  -22109151.73246 -17108478.08462
  20895261.8494  -16432747.10446 -12704174.18861
  21990891.6074  -16755021.98345  -9978511.82061
  22092055.4664   -7100812.12945  -5425922.62361
 91  5  1 20 12 59.9930000  0  6G18G19G 2G11G16G 6
  19646220.6854   -3343914.65447
  18924511.8174  -10476723.19047  -8108730.27062
  20294254.0674  -22180976.54846 -17164445.42162
  20887232.7864  -16474934.51646 -12737047.47961
  21982025.4744  -16801583.10545 -10014793.25961
  22078635.9824   -7171346.83045  -5480884.64161
 91  5  1 20 13 14.9930000  0  6G18G19G 2G11G16G 6
  19646228.7474   -3343887.24547
  18918081.5604  -10510486.40247  -8135039.27263
  20280597.4974  -22252751.18846 -17220373.65462
  20879231.1464  -16516992.90246 -12769820.23161
  21973194.2244  -16848033.45745 -10050988.33661
  22065206.1854   -7241897.40245  -5535859.05461
 91  5  1 20 13 29.9930000  0  6G18G19G 2G11G16G 6
  19646248.3104   -3343780.66947
  18911668.2474  -10544215.28447  -8161321.52763
  20266951.4664  -22324469.03846 -17276257.63562
  20871249.5054  -16558915.58846 -12802487.24761
  21964377.4894  -16894366.38645 -10087091.94561
  22051780.0444   -7312457.17645  -5590840.62461
 91  5  1 20 13 44.9930000  0  6G18G19G 2G11G16G 6
  19646283.3494   -3343590.98447
  18905251.5284  -10577905.70147  -8187573.80662
  20253313.2164  -22396126.01346 -17332094.18262
  20863301.1694  -16600698.42346 -12835045.28761
  21955578.6304  -16940578.21445 -10123101.19261
  22038349.2394   -7383022.28845  -5645826.35861
 91  5  1 20 13 59.9930000  0  6G18G19G 2G11G16G 6
  19646330.6074   -3343332.08147
  18898845.2714  -10611571.36647  -8213806.80362
  20239683.2864  -22467735.62846 -17387893.82062
  20855375.6774  -16642355.08246 -12867505.00661
  21946805.6464  -16986682.60445 -10159026.71561
  22024918.3254   -7453606.45644  -5700826.92961
 91  5  1 20 14 14.9930000  0  6G18G19G 2G11G16G 6
  19646396.4974   -3342992.05747
  18892447.3334  -10645200.25947  -8240011.14562
  20226071.1384  -22539285.89046 -17443647.21562
  20847474.7944  -16683873.50846 -12899857.00661
  21938050.4894  -17032667.66045 -10194859.24461
  22011487.9824   -7524197.79445  -5755833.11561
 91  5  1 20 14 29.9930000  0  6G18G19G 2G11G16G 6
  19646474.3804   -3342583.67947
  18886054.9424  -10678804.43347  -8266196.22262
  20212462.6694  -22610788.97646 -17499363.85562
  20839595.6614  -16725265.81546 -12932110.73461
  21929333.9274  -17078545.65345 -10230608.36761
  21998051.0214   -7594808.54445  -5810854.41461
 91  5  1 20 14 44.9930000  0  6G18G19G 2G11G16G 6
  19646570.9824   -3342098.46647
  18879665.1074  -10712375.31947  -8292355.36262
  20198866.8494  -22682236.29546 -17555037.03062
  20831744.8804  -16766523.29846 -12964259.41161
  21920617.9744  -17124307.88545 -10266267.28061
  21984611.9584   -7665430.16045  -5865884.16561
 91  5  1 20 14 59.9930000  0  6G18G19G 2G11G16G 6
  19646674.1924   -3341543.73747        -0.15172
  18873280.7394  -10745919.97747  -8318494.06262
  20185281.8024  -22753635.04446 -17610672.35762
  20823920.2554  -16807653.14246 -12996308.62161
  21911926.3964  -17169961.53445 -10301841.56961
  21971174.1144   -7736069.79945  -5920927.97661
 91  5  1 20 15 14.9930000  0  6G18G19G 2G11G16G 6
  19646791.2474   -3340929.93447       478.06262
  18866899.7554  -10779448.70247  -8344620.34662
  20171702.6304  -22824995.33746 -17666277.72362
  20816113.3024  -16848665.60846 -13028266.37161
  21903253.9664  -17215516.92945 -10337339.32661
  21957718.3804   -7806737.81245  -5975993.85661
 91  5  1 20 15 29.9930000  0  6G18G19G 2G11G16G 6
  19646916.3334   -3340261.36747       998.94362
  18860523.0834  -10812965.42647  -8370737.28162
  20158129.9354  -22896321.12646 -17721856.20062
  20808329.6144  -16889564.49246 -13060135.61961
  21894614.3254  -17260978.10445 -10372763.62461
  21944262.9584   -7877438.30245  -6031085.07561
 91  5  1 20 15 44.9930000  0  6G18G19G 2G11G16G 6
  19647060.6534   -3339514.32547      1580.98562
  18854151.6224  -10846446.13447  -8396826.14662
  20144566.2394  -22967588.34146 -17777389.03962
  20800575.8884  -16930325.76546 -13091897.64161
  21885976.3574  -17306321.20345 -10408095.92961
  21930814.9034   -7948147.24845  -6086182.89661
 91  5  1 20 15 59.9930000  0  6G18G19G 2G11G16G 6
  19647217.2474   -3338690.84747      2222.58062
  18847785.6854  -10879892.81647  -8422888.50562
  20131016.9194  -23038799.10347 -17832877.88462
  20792844.1774  -16970951.48146 -13123554.02061
  21877375.2394  -17351548.33045 -10443337.87361
  21917356.9824   -8018866.76845  -6141288.94761
 91  5  1 20 16 14.9930000  0  6G18G19G 2G11G16G 6
  19647388.1304   -3337791.91747      2922.96562
  18841427.7244  -10913305.94947  -8448924.71662
  20117477.3644  -23109953.92347 -17888323.14062
  20785138.3644  -17011442.06146 -13155105.10861
  21868789.0444  -17396659.97645 -10478489.82761
  21903893.7474   -8089597.52245  -6196403.73261
 91  5  1 20 16 29.9930000  0  6G18G19G 2G11G16G 6
  19647568.9354   -3336835.14047      3668.42562
  18835072.8024  -10946702.84447  -8474948.27762
  20103941.8104  -23181070.15447 -17943738.32862
  20777457.4664  -17051814.98546 -13186564.51861
  21860218.7084  -17441673.32244 -10513565.17361
  21890428.5364   -8160356.78045  -6251540.75461
 91  5  1 20 16 44.9930000  0  6G18G19G 2G11G16G 6
  19647765.3884   -3335806.28947      4470.04662
  18828723.9744  -10980068.94947  -8500947.84962
  20090420.4354  -23252133.12147 -17999112.01562
  20769797.1774  -17092055.58946 -13217920.81661
  21851669.7324  -17486574.00544 -10548552.74661
  21876961.7864   -8231130.23045  -6306688.82661
 91  5  1 20 16 59.9930000  0  6G18G19G 2G11G16G 6
  19647976.3414   -3334704.16647      5328.76662
  18822380.1854  -11013403.07547  -8526922.50062
  20076910.3724  -23323141.74547 -18054443.34962
  20762168.2634  -17132162.72246 -13249173.11761
  21843161.8494  -17531360.99745 -10583451.73961
  21863486.3334   -8301916.67344  -6361847.02261
 91  5  1 20 17 14.9930000  0  6G18G19G 2G11G16G 6
  19648199.9504   -3333527.05547      6245.91462
  18816044.0994  -11046703.15447  -8552870.62462
  20063409.1464  -23394094.00047 -18109730.75962
  20754559.2714  -17172134.30146 -13280319.79261
  21834653.2864  -17576032.38645 -10618260.64661
  21850019.5364   -8372714.26645  -6417013.88061
 91  5  1 20 17 29.9930000  0  6G18G19G 2G11G16G 6
  19648438.6224   -3332280.71347      7217.01962
  18809714.8174  -11079974.55947  -8578796.40562
  20049915.4504  -23464995.37647
  20746977.4664  -17211975.75646 -13311365.06761
  21826180.2164  -17620593.60745 -10652983.69961
  21836545.9424   -8443528.41845
 91  5  1 20 17 44.9930000  0  6G18G19G 2G11G16G 6
  19648688.8174   -3330962.76047      8243.91862
  18803387.1774  -11113214.53447  -8604697.69062
  20036432.1924  -23535843.12947
  20739422.8494  -17251684.35046 -13342306.81761
  21817718.2394  -17665042.25945 -10687619.03861
  21823061.8574   -8514356.76344
 91  5  1 20 17 59.9930000  0  6G18G19G 2G11G16G 6
  19648954.2084   -3329563.48447      9334.18162
  18797068.9974  -11146413.12647  -8630566.73062
  20022962.3964  -23606627.17247
  20731891.4274  -17291250.06346 -13373137.23161
  21809286.6534  -17709368.15545 -10722158.73561
  21809580.8334   -8585189.20544
 91  5  1 20 18 14.9930000  0  6G18G19G 2G11G16G 6
  19649235.8724   -3328085.70347     10485.62062
  18790758.7474  -11179572.85147  -8656405.48162
  20009503.3884  -23677349.96247 -18330449.45562
  20724391.6614  -17330675.36546 -13403858.22761
  21800877.7164  -17753573.85845 -10756604.74061
  21796102.2164   -8656028.22444  -6637777.73861
 91  5  1 20 18 29.9930000  0  6G18G19G 2G11G16G 6
  19649528.8024   -3326537.08347     11692.26063
  18784457.9584  -11212701.15947  -8682219.75562
  19996056.2784  -23748018.88447 -18385516.09062
  20716912.2244  -17369967.73146 -13434475.64861
  21792481.0604  -17797667.01945 -10790963.10561
  21782619.4034   -8726881.35444  -6692987.93061
 91  5  1 20 18 44.9930000  0  6G18G19G 2G11G16G 6
  19649840.6304   -3324913.07747     12957.63962
  18778157.0834  -11245793.26147  -8708005.81662
  19982620.5524  -23818629.55647 -18440537.34062
  20709464.3494  -17409122.60446 -13464985.92661
  21784113.8964  -17841643.13845 -10825230.24561
  21769136.3884   -8797744.20345  -6748205.65761
 91  5  1 20 18 59.9930000  0  6G18G19G 2G11G16G 6
  19650164.0674   -3323216.60047     14279.48362
  18771869.5214  -11278851.64947  -8733765.60462
  19969195.5214  -23889184.29947 -18495515.00662
  20702036.3104  -17448142.31746 -13495390.88661
  21775766.2714  -17885504.58545 -10859408.02861
  21755655.6144   -8868619.29845  -6803432.94861
 91  5  1 20 19 14.9930000  0  6G18G19G 2G11G16G 6
  19650498.4274   -3321450.04747     15655.94462
  18765581.4664  -11311878.36447  -8759500.71062
  19955778.9424  -23959685.09947 -18550450.63562
  20694638.2004  -17487029.04046 -13525692.22261
  21767447.0444  -17929253.84645 -10893498.36961
  21742161.7714   -8939508.67845  -6858671.33661
 91  5  1 20 19 29.9930000  0  6G18G19G 2G11G16G 6
  19650849.8964   -3319614.62147     17086.06762
  18759305.4664  -11344874.33947  -8785211.86762
  19942374.0994  -24030133.10147 -18605345.13462
  20687262.3494  -17525783.60546 -13555890.56461
  21759140.1924  -17972891.83444 -10927502.02161
  21728668.6074   -9010413.41445  -6913921.68461
 91  5  1 20 19 44.9930000  0  6G18G19G 2G11G16G 6
  19651212.8104   -3317701.78047     18576.51462
  18753030.0524  -11377830.76747  -8810892.21062
  19928979.8024  -24100519.42947 -18660191.56762
  20679917.5994  -17564397.19346 -13585979.06461
  21750859.2244  -18016409.74444 -10961412.12561
  21715174.6304   -9081324.87845  -6969177.31561
 91  5  1 20 19 59.9930000  0  6G18G19G 2G11G16G 6
  19651593.5214   -3315700.44347     20135.91662
  18746772.0444  -11410736.62047  -8836533.14162
  19915600.2944  -24170832.97747 -18714981.30062
  20672594.3964  -17602858.82146 -13615949.16061
  21742593.7784  -18059796.65044 -10995220.08161
  21701679.9114   -9152231.94645  -7024429.53361
 91  5  1 20 20 14.9920000  0  6G18G19G 2G11G16G 6
  19651986.5704   -3313627.05747     21751.46262
  18740514.1414  -11443605.45647  -8862145.22862
  19902229.7194  -24241084.81647 -18769722.94762
  20665302.7344  -17641181.73746 -13645811.15861
  21734367.1724  -18103065.52145 -11028936.10461
  21688186.7344   -9223145.87245  -7079687.05961
 91  5  1 20 20 29.9920000  0  6G18G19G 2G11G16G 6
  19652398.3524   -3311466.32847     23435.06362
  18734270.7274  -11476426.34947  -8887719.95662
  19888871.9924  -24311269.11547 -18824411.96662
  20658039.4224  -17679355.76646 -13675557.14961
  21726151.7974  -18146206.88144 -11062552.79061
  21674692.8444   -9294060.96145  -7134945.47961
 91  5  1 20 20 44.9920000  0  6G18G19G 2G11G16G 6
  19652826.1094   -3309218.65747     25186.41862
  18728033.9224  -11509197.03547  -8913255.55962
  19875532.4224  -24381381.23247 -18879044.74662
  20650805.6174  -17717378.27046 -13705185.06261
  21717974.1804  -18189217.91145 -11096067.87461
  21661201.5784   -9364972.28545  -7190201.01261
 91  5  1 20 20 59.9920000  0  6G18G19G 2G11G16G 6
  19653272.2504   -3306880.74847     27008.08062
  18721807.9694  -11541913.73747  -8938749.09962
  19862205.6414  -24451417.44447 -18933618.38062
  20643596.8914  -17755245.60646 -13734692.06461
  21709816.0784  -18232095.04745 -11129478.65361
  21647700.4694   -9435876.40844  -7245450.93561
 91  5  1 20 21 14.9920000  0  6G18G19G 2G11G16G 6
  19653734.0704   -3304459.75547     28894.48262
  18715592.1334  -11574583.54947  -8964206.10462
  19848890.6884  -24521384.85447 -18988138.38462
  20636419.0944  -17792964.88746 -13764083.70961
  21701681.6494  -18274845.35745 -11162790.58661
  21634210.1954   -9506780.50144  -7300700.81761
 91  5  1 20 21 29.9920000  0  6G18G19G 2G11G16G 6
  19654208.7114   -3301957.59547     30844.13362
  18709381.4534  -11607208.32847  -8989628.01662
  19835586.9694  -24591285.12547 -19042606.08162
  20629270.6724  -17830537.84146 -13793361.33161
  21693568.2814  -18317471.02445 -11196005.43161
  21620722.5474   -9577686.20444  -7355951.91861
 91  5  1 20 21 44.9920000  0  6G18G19G 2G11G16G 6
  19654699.0784   -3299370.02347     32860.33462
  18703181.1644  -11639783.38247  -9015011.17762
  19822300.3134  -24661113.55747 -19097017.79362
  20622150.1414  -17867959.92746 -13822521.38961
  21685477.2344  -18359967.33045 -11229119.48261
  21607222.1804   -9648589.15744  -7411200.92361
 91  5  1 20 21 59.9920000  0  6G18G19G 2G11G16G 6
  19655210.0084   -3296699.67847     34941.03962
  18696993.9384  -11672310.75247  -9040357.19162
  19809025.8834  -24730872.50647 -19151375.36962
  20615057.2344  -17905233.25046 -13851565.54061
  21677411.5634  -18402336.34745 -11262134.32061
  21593732.5634   -9719491.59345  -7466449.50161
 91  5  1 20 22 14.9920000  0  6G18G19G 2G11G16G 6
  19655733.8284   -3293948.07747     37085.06362
  18690811.1564  -11704791.93147  -9065667.20262
  19795762.0004  -24800563.55647 -19205680.02262
  20607990.7664  -17942359.55346 -13880495.12261
  21669377.5864  -18444579.99445 -11295051.50161
  21580238.4454   -9790395.06744  -7521698.91961
 91  5  1 20 22 29.9920000  0  6G18G19G 2G11G16G 6
  19656272.3204   -3291113.14747     39294.01462
  18684642.4064  -11737224.28847  -9090939.17562
  19782513.4924  -24870184.07047 -19259929.70762
  20600957.0314  -17979336.14946 -13909308.05861
  21661369.4844  -18486695.86845 -11327869.11661
  21566753.2194   -9861297.06645  -7576947.15261
 91  5  1 20 22 44.9920000  0  6G18G19G 2G11G16G 6
  19656826.6884   -3288200.01247     41563.90462
  18678476.7344  -11769612.91847  -9116177.07362
  19769277.6724  -24939739.14747 -19314128.40662
  20593947.3054  -18016168.13946 -13938008.30061
  21653371.6724  -18528689.00945 -11360591.04761
  21553258.7974   -9932202.76145  -7632198.27561
 91  5  1 20 22 59.9920000  0  6G18G19G 2G11G16G 6
  19657396.9144   -3285208.94247     43894.52062
  18672323.6334  -11801957.74847  -9141380.84362
  19756056.1884  -25009228.57847 -19368275.94962
  20586963.5704  -18052855.44346 -13966595.81361
  21645402.6804  -18570559.30245 -11393217.29461
  21539760.7584  -10003112.18045  -7687452.30361
 91  5  1 20 23 14.9920000  0  6G18G19G 2G11G16G 6
  19657984.0164   -3282134.38947     46290.18262
  18666177.1644  -11834252.83147  -9166545.85562
  19742848.2584  -25078646.53847 -19422367.81262
  20580009.2584  -18089392.15246 -13995065.97761
  21637453.3134  -18612301.07144 -11425743.37561
  21526270.3134  -10074019.41245  -7742704.64861
 91  5  1 20 23 29.9920000  0  6G18G19G 2G11G16G 6
  19658585.3914   -3278961.32347     48762.61362
  18660043.0004  -11866482.70647  -9191660.04962
  19729652.7034  -25147977.59647 -19476391.96262
  20573091.7584  -18125762.90246 -14023406.81661
  21629548.5554  -18653899.10745 -11458157.44361
  21512779.0314  -10144909.04045  -7797943.22061
 91  5  1 20 23 44.9920000  0  6G18G19G 2G11G16G 6
  19659199.9694   -3275720.29947     51288.00462
  18653915.4844  -11898677.78547  -9216747.13262
  19716469.3914  -25217252.19647 -19530372.11362
  20566197.2974  -18161998.16346 -14051642.08161
  21621649.1174  -18695383.94145 -11490483.33461
  21499283.4694  -10215811.94145  -7853192.17061
 91  5  1 20 23 59.9920000  0  6G18G19G 2G11G16G 6
  19659836.4774   -3272386.05147     53886.03162
  18647806.3134  -11930812.68447  -9241787.32262
  19703300.6954  -25286444.97247 -19584288.50362
  20559326.3364  -18198072.52746 -14079751.98261
  21613785.9844  -18736730.12244 -11522701.13861
  21485794.1724  -10286702.30545  -7908431.34561
 91  5  1 20 24 14.9920000  0  6G18G19G 2G11G16G 6
  19660489.3674   -3268958.13547     56557.04762
  18641698.0244  -11962886.30647  -9266779.76262
  19690152.3914  -25355555.07247 -19638140.46362
  20552497.9304  -18233985.06046 -14107735.76562
  21605940.8834  -18777936.74744 -11554810.20461
  21472305.7814  -10357579.46845  -7963660.22661
 91  5  1 20 24 29.9920000  0  6G18G19G 2G11G16G 6
  19661158.8594   -3265434.34447     59302.76562
  18635610.6094  -11994896.35647  -9291722.67262
  19677016.4304  -25424579.88147 -19691925.97562
  20545693.9694  -18269733.42046 -14135591.63461
  21598132.8674  -18819001.79745 -11586808.97961
  21458826.1954  -10428440.97445  -8018876.90961
 91  5  1 20 24 44.9920000  0  6G18G19G 2G11G16G 6
  19661848.4614   -3261818.36147     62120.32162
  18629528.6174  -12026846.25147  -9316618.70063
  19663895.8284  -25493522.97547 -19745647.80662
  20538923.9304  -18305321.26946 -14163322.42461
  21590330.7894  -18859928.86644 -11618700.23561
  21445340.9924  -10499290.57945  -8074084.34661
 91  5  1 20 24 59.9920000  0  6G18G19G 2G11G16G 6
  19662553.4304   -3258107.03147     65012.16962
  18623463.7114  -12058732.36447  -9341465.02762
  19650794.9384  -25562380.79947 -19799303.18562
  20532181.4064  -18340745.01246 -14190925.33861
  21582584.8134  -18900714.18845 -11650481.01561
  21431858.1884  -10570124.69845  -8129279.69761
 91  5  1 20 25 14.9920000  0  6G18G19G 2G11G16G 6
  19663275.3594   -3254309.99147     67970.81862
  18617403.5554  -12090563.87447  -9366268.81262
  19637705.7424  -25631162.63347 -19852899.35562
  20525468.7344  -18376013.83446 -14218407.54361
  21574841.6414  -18941367.40345 -11682158.89261
  21418390.7664  -10640952.58145  -8184470.19361
 91  5  1 20 25 29.9920000  0  6G18G19G 2G11G16G 6
  19664017.8054   -3250422.54847     70999.90462
  18611364.2814  -12122336.17946  -9391026.45962
  19624632.7974  -25699863.83747 -19906432.69762
  20518784.2194  -18411123.13046 -14245765.43261
  21567133.0944  -18981883.80045 -11713730.12461
  21404899.5314  -10711769.80545  -8239652.40861
 91  5  1 20 25 44.9920000  0  6G18G19G 2G11G16G 6
  19664774.7424   -3246441.31447     74102.07162
  18605324.0944  -12154045.33747  -9415734.89962
  19611575.4844  -25768480.58347 -19959900.23162
  20512134.4614  -18446069.11446 -14272996.08061
  21559448.0704  -19022259.70145 -11745191.88361
  21391436.4534  -10782572.39245  -8294823.18961
 91  5  1 20 25 59.9920000  0  6G18G19G 2G11G16G 6
  19665550.2194   -3242368.87447     77275.30862
  18599302.9924  -12185693.78047  -9440396.03162
  19598533.6644  -25837015.41847 -20013303.93962
  20505515.4064  -18480854.21346 -14300101.35361
  21551794.0474  -19062497.77045 -11776546.29761
  21377959.6174  -10853363.02745  -8349984.69261
 91  5  1 20 26 14.9920000  0  6G18G19G 2G11G16G 6
  19666340.2034   -3238210.62047     80515.41262
  18593289.9384  -12217286.59447  -9465013.81862
  19585505.9454  -25905473.29647 -20066647.68062
  20498926.9774  -18515483.54846 -14327085.24261
  21544157.9774  -19102603.13145 -11807797.24161
  21364496.7194  -10924146.66845  -8405140.72561
 91  5  1 20 26 29.9920000  0  6G18G19G 2G11G16G 6
  19667149.7584   -3233963.95647     83824.39562
  18587289.2664  -12248820.35947  -9489585.59262
  19572494.3674  -25973851.12647 -20119929.05362
  20492366.9064  -18549954.07346 -14353945.39361
  21536556.2034  -19142572.78545 -11838942.46561
  21351022.2814  -10994920.26545  -8460288.92561
 91  5  1 20 26 44.9920000  0  6G18G19G 2G11G16G 6
  19667974.0084   -3229629.05447     87202.15462
  18581299.1414  -12280295.35747  -9514111.56962
  19559497.2194  -26042149.08747 -20173148.19062
  20485838.6414  -18584265.96046 -14380681.93661
  21528973.1724  -19182406.97845 -11869982.10761
  21337563.2274  -11065684.17545  -8515429.57061
 91  5  1 20 26 59.9920000  0  6G18G19G 2G11G16G 6
  19668813.4224   -3225213.29247     90642.92162
  18575321.5474  -12311718.59547  -9538597.21962
  19546515.6804  -26110374.23447 -20226310.58862
  20479343.6414  -18618426.29346 -14407300.37361
  21521416.5634  -19222112.74345 -11900921.69461
  21324097.5704  -11136445.40345  -8570568.12761
 91  5  1 20 27 14.9920000  0  6G18G19G 2G11G16G 6
  19669671.0554   -3220709.56847     94152.21762
  18569351.1334  -12343082.80147  -9563036.87362
  19533545.6174  -26178519.29047 -20279410.58162
  20472869.6564  -18652427.63446 -14433794.92061
  21513885.2744  -19261683.06845 -11931755.76161
  21310633.8444  -11207196.63845  -8625698.90261
 91  5  1 20 27 29.9920000  0  6G18G19G 2G11G16G 6
  19670545.2424   -3216117.56547     97730.31162
  18563394.6024  -12374387.25547  -9587429.96462
  19520592.5004  -26246583.63147 -20332447.67762
  20466427.0944  -18686269.63046 -14460165.31261
  21506379.4144  -19301117.57245 -11962484.00061
  21297171.0864  -11277937.52845  -8680821.60961
 91  5  1 20 27 44.9920000  0  6G18G19G 2G11G16G 6
  19671436.0784   -3211434.70047    101379.19762
  18557447.3444  -12405629.08247  -9611774.25762
  19507657.7344  -26314564.46447 -20385419.70462
  20460020.9924  -18719949.56346 -14486409.42161
  21498902.5244  -19340413.52644 -11993104.24761
  21283712.1884  -11348665.04345  -8735933.90261
 91  5  1 20 27 59.9920000  0  6G18G19G 2G11G16G 6
  19672346.1414   -3206657.45547    105101.62462
  18551516.3994  -12436804.24247  -9636066.60263
  19494734.3834  -26382457.74047 -20438323.50662
  20453642.9064  -18753463.39646 -14512524.10161
  21491455.7274  -19379566.93844 -12023613.43961
  21270256.6024  -11419375.35245  -8791032.79361
 91  5  1 20 28 14.9920000  0  6G18G19G 2G11G16G 6
  19673269.9304   -3201791.14347    108893.46062
  18545593.7344  -12467917.88647  -9660311.01263
  19481834.6024  -26450268.41647 -20491162.94662
  20447294.8674  -18786816.34946 -14538513.42061
  21484027.6094  -19418583.02945 -12054015.61861
  21256801.1644  -11490073.68345  -8846122.33361
 91  5  1 20 28 29.9920000  0  6G18G19G 2G11G16G 6
  19674215.1174   -3196832.51547    112757.22762
  18539686.6494  -12498966.66247  -9684504.87662
  19468947.2664  -26517993.21147 -20543935.46862
  20440978.5314  -18820005.08346 -14564374.77261
  21476637.0704  -19457458.60845 -12084308.31361
  21243351.9614  -11560756.68345  -8901199.93461
 91  5  1 20 28 44.9920000  0  6G18G19G 2G11G16G 6
  19675171.8284   -3191805.85347    116674.00862
  18533786.7664  -12529974.17547  -9708666.58663
  19456071.0474  -26585656.12447 -20596659.77162
  20434690.8594  -18853053.41846 -14590126.72361
  21469258.0314  -19496217.71045 -12114510.24161
  21229898.2034  -11631448.12845  -8956284.12961
 91  5  1 20 28 59.9920000  0  6G18G19G 2G11G16G 6
  19676142.0554   -3186704.55547    120648.95462
  18527895.0784  -12560933.49547  -9732790.73862
  19443208.4144  -26653250.21847 -20649330.45162
  20428433.8444  -18885954.55346 -14615763.97361
  21461901.3284  -19534853.37945 -12144615.99861
  21216447.1414  -11702141.19845  -9011369.56161
 91  5  1 20 29 14.9920000  0  6G18G19G 2G11G16G 6
  19677128.2504   -3181525.48646    124684.49761
  18522011.7814  -12591841.26647  -9756874.72763
  19430360.5004  -26720772.12447 -20701944.87762
  20422199.6564  -18918705.04746 -14641283.84261
  21454574.5634  -19573362.37445 -12174623.05661
  21202996.5004  -11772832.63445  -9066453.74061
 91  5  1 20 29 29.9920000  0  6G18G19G 2G11G16G 6
  19678129.7664   -3176266.69847    128782.16062
  18516142.9694  -12622695.45747  -9780916.96763
  19417526.5314  -26788219.73247 -20754501.40862
  20415993.6954  -18951302.87746 -14666684.75261
  21447277.1494  -19611742.91845 -12204530.03961
  21189534.7114  -11843520.44045  -9121535.09761
 91  5  1 20 29 44.9920000  0  6G18G19G 2G11G16G 6
  19679146.2974   -3170928.48847    132941.70662
  18510281.1174  -12653495.80047  -9804917.24662
  19404703.6884  -26855592.98647 -20807000.00662
  20409822.1494  -18983748.14046 -14691966.77661
  21439993.0784  -19649994.97745 -12234336.86861
  21176092.7504  -11914204.59245  -9176613.60661
 91  5  1 20 29 59.9920000  0  6G18G19G 2G11G16G 6
  19680174.2974   -3165519.51447    137156.39462
  18504430.1804  -12684250.55647  -9828882.00662
  19391894.6334  -26922900.19847 -20859447.13562
  20403673.5944  -19016049.24846 -14717136.46861
  21432734.0704  -19688126.82345 -12264050.04561
  21162642.1334  -11984893.38645  -9231695.72961
 91  5  1 20 30 14.9910000  0  6G18G19G 2G11G16G 6
  19681216.4484   -3160042.68347    141423.95662
  18498584.4254  -12714960.09347  -9852811.52762
  19379098.2144  -26990139.06447 -20911841.01562
  20397556.1674  -19048206.34446 -14742193.95461
  21425501.7534  -19726138.67345 -12293669.73061
  21149196.4334  -12055584.46945  -9286779.63361
 91  5  1 20 30 29.9910000  0  6G18G19G 2G11G16G 6
  19682274.2694   -3154484.54446    145754.87862
  18492751.4254  -12745615.35147  -9876698.75462
  19366316.7144  -27057305.83647 -20964178.71162
  20391467.6754  -19080210.81446 -14767132.50461
  21418294.8474  -19764022.67945 -12323189.75361
  21135728.9334  -12126274.46245  -9341862.70461
 91  5  1 20 30 44.9910000  0  6G18G19G 2G11G16G 6
  19683347.4414   -3148852.96646    150143.01662
  18486926.5424  -12776221.59947  -9900547.79163
  19353550.2924  -27124403.24447 -21016462.36662
  20385404.1054  -19112067.89546 -14791956.20861
  21411112.3234  -19801783.76645 -12352614.02261
  21122283.7694  -12196965.80245  -9396946.81561
 91  5  1 20 30 59.9910000  0  6G18G19G 2G11G16G 6
  19684432.1284   -3143145.63846    154590.18262
  18481117.2304  -12806775.99147  -9924356.42262
  19340795.2534  -27191428.61647 -21068689.88562
  20379367.9174  -19143774.90146 -14816662.96961
  21403952.6204  -19839419.05145 -12381940.24661
  21108834.4414  -12267655.91845  -9452029.96761
 91  5  1 20 31 14.9910000  0  6G18G19G 2G11G16G 6
  19685532.5734   -3137365.77246    159093.86762
  18475308.7374  -12837281.85547  -9948127.23262
  19328051.9484  -27258385.13647 -21120863.74862
  20373362.9484  -19175335.11346 -14841255.34861
  21396814.1444  -19876931.91945 -12411171.08861
  21095375.9254  -12338348.01645  -9507114.65661
 91  5  1 20 31 29.9910000  0  6G18G19G 2G11G16G 6
  19686645.2614   -3131510.56746    163656.26162
  18469513.1754  -12867735.69247  -9971857.51063
  19315327.4804  -27325269.67047 -21172981.52862
  20367388.3944  -19206745.28446 -14865730.80161
  21389693.5114  -19914319.62345 -12440304.41261
  21081933.0194  -12409038.74245  -9562198.27861
 91  5  1 20 31 44.9910000  0  6G18G19G 2G11G16G 6
  19687772.3704   -3125583.15446    168274.93562
  18463725.3784  -12898140.49947  -9995549.57362
  19302614.1594  -27392084.97447 -21225045.36162
  20361434.8004  -19238008.46146 -14890091.71461
  21382604.5034  -19951585.43945 -12469342.73961
  21068476.8864  -12479731.34945  -9617283.35561
 91  5  1 20 31 59.9910000  0  6G18G19G 2G11G16G 6
  19688915.8474   -3119581.88746    172951.15362
  18457950.5894  -12928493.99047 -10019201.65762
  19289908.8314  -27458828.97847 -21277053.63162
  20355518.3944  -19269122.50146 -14914336.41461
  21375535.4874  -19988726.70245 -12498284.04261
  21055019.6914  -12550423.59145  -9672368.17661
 91  5  1 20 32 14.9910000  0  6G18G19G 2G11G16G 6
  19690071.8314   -3113507.97646    177683.96362
  18452185.1984  -12958797.20247 -10042814.56162
  19277224.7144  -27525502.67047 -21329007.12062
  20349622.9094  -19300088.45646 -14938465.72861
  21368490.9334  -20025744.87445 -12527129.44261
  21041577.4254  -12621116.46545  -9727453.44961
 91  5  1 20 32 29.9910000  0  6G18G19G 2G11G16G 6
  19691244.5504   -3107359.86746    182474.59562
  18446427.6284  -12989048.22047 -10066386.80063
  19264552.2844  -27592104.11147 -21380904.30062
  20343761.0734  -19330904.50646 -14962478.22561
  21361473.9174  -20062638.15245 -12555877.48361
  21028113.5584  -12691808.20345  -9782537.88161
 91  5  1 20 32 44.9910000  0  6G18G19G 2G11G16G 6
  19692427.6054   -3101135.57846    187324.59062
  18440681.6674  -13019244.53647 -10089916.40963
  19251889.8554  -27658631.13147 -21432743.48962
  20337924.2924  -19361568.49046 -14986372.22961
  21354478.2304  -20099404.38645 -12584526.55561
  21014668.6594  -12762496.41045  -9837619.54261
 91  5  1 20 32 59.9910000  0  6G18G19G 2G11G16G 6
  19693627.9174   -3094832.25646    192236.16562
  18434948.8084  -13049383.30947 -10113401.17563
  19239243.9174  -27725080.90747 -21484522.49262
  20332117.5504  -19392077.67046 -15010145.60961
  21347501.8554  -20136041.01245 -12613074.63361
  21001220.6594  -12833178.38345  -9892696.33461
 91  5  1 20 33 14.9910000  0  6G18G19G 2G11G16G 6
  19694840.1754   -3088456.47346    197204.20562
  18429222.0034  -13079470.66247 -10136845.87963
  19226613.8944  -27791459.41147 -21536245.96062
  20326338.6364  -19422438.25746 -15033803.20661
  21340553.9954  -20172554.19345 -12641526.53261
  20987769.0504  -12903860.27245  -9947773.07061
 91  5  1 20 33 29.9910000  0  6G18G19G 2G11G16G 6
  19696067.5034   -3082004.58146    202231.54762
  18423506.2144  -13109502.68747 -10160247.47063
  19213995.6984  -27857762.89547 -21587910.96962
  20320593.1124  -19452646.40446 -15057342.02261
  21333636.2844  -20208940.15945 -12669879.27561
  20974311.0664  -12974538.35945 -10002846.87961
 91  5  1 20 33 44.9910000  0  6G18G19G 2G11G16G 6
  19697311.1444   -3075475.87246    207318.74662
  18417802.4174  -13139478.36247
  19201392.1594  -27923990.43047 -21639516.79562
  20314874.1834  -19482701.14346
  21326732.5814  -20245198.19845 -12698132.34461
  20960871.9094  -13045211.47145 -10057916.74961
 91  5  1 20 33 59.9910000  0  6G18G19G 2G11G16G 6
  19698567.9334   -3068867.45046    212468.06662
  18412107.9724  -13169394.36647
  19188803.8944  -27990138.73147 -21691060.88562
  20309184.7694  -19512599.31146
  21319856.9014  -20281325.05345 -12726283.17461
  20947423.9014  -13115876.55945 -10112980.41761
 91  5  1 20 34 14.9910000  0  6G18G19G 2G11G16G 6
  19699841.7534   -3062179.82746    217679.10262
  18406428.0974  -13199250.92247 -10230181.18463
  19176231.5664  -28056207.98447 -21742543.37362
  20303525.0504  -19542341.43746 -15127234.23561
  21313008.8784  -20317321.07745 -12754332.08861
  20933973.1674  -13186533.94445 -10168038.04661
 91  5  1 20 34 29.9910000  0  6G18G19G 2G11G16G 6
  19701127.5894   -3055417.31846    222948.48762
  18400757.4874  -13229052.00247 -10253402.82262
  19163674.2694  -28122202.37247 -21793967.53162
  20297891.6054  -19571931.60746 -15150291.51061
  21306182.9564  -20353190.75945 -12782282.54461
  20920527.7534  -13257187.72145 -10223092.88061
 91  5  1 20 34 44.9910000  0  6G18G19G 2G11G16G 6
  19702431.5264   -3048572.94946    228281.65562
  18395098.1914  -13258790.32847 -10276575.55163
  19151130.8084  -28188114.73247 -21845327.76762
  20292290.7374  -19601362.69446 -15173224.81961
  21299384.4254  -20388926.87345 -12810128.92461
  20907091.8704  -13327830.75945 -10278139.33861
 91  5  1 20 34 59.9910000  0  6G18G19G 2G11G16G 6
  19703747.3704   -3041648.98646    233676.84161
  18389449.4564  -13288467.83747 -10299700.89562
  19138605.5664  -28253946.85647 -21896625.48162
  20286723.9014  -19630636.58546 -15196035.64261
  21292606.4484  -20424531.69645 -12837872.98661
  20893647.4254  -13398464.83445 -10333178.82061
 91  5  1 20 35 14.9910000  0  6G18G19G 2G11G16G 6
  19705078.7454   -3034649.74246    239130.69262
  18383813.0814  -13318088.24047 -10322781.73662
  19126092.6204  -28319702.74947 -21947863.80362
  20281179.5264  -19659757.28146 -15218727.08461
  21285858.6054  -20460009.14045 -12865517.80461
  20880208.0734  -13469093.96645 -10388214.45461
 91  5  1 20 35 29.9910000  0  6G18G19G 2G11G16G 6
  19706427.0974   -3027576.57546    244642.14362
  18378190.7844  -13347652.65847 -10345818.95662
  19113592.6054  -28385383.66047 -21999043.68562
  20275667.5894  -19688726.10946 -15241300.19761
  21279134.4644  -20495360.48045 -12893064.35461
  20866762.5264  -13539719.38545 -10443247.17761
 91  5  1 20 35 44.9910000  0  6G18G19G 2G11G16G 6
  19707786.3234   -3020428.56846    250211.90861
  18372570.7304  -13377159.92247 -10368811.63462
  19101106.6594  -28450988.35947 -22050164.18762
  20270187.7924  -19717541.97246 -15263754.11261
  21272430.4414  -20530584.70045 -12920511.83761
  20853327.7304  -13610339.85445 -10498276.05461
 91  5  1 20 35 59.9910000  0  6G18G19G 2G11G16G 6
  19709158.7064   -3013212.15346    255834.99261
  18366968.7694  -13406616.25647 -10391764.62962
  19088636.6204  -28516523.17447 -22101230.23862
  20264729.6594  -19746211.24346 -15286093.80061
  21265741.8394  -20565688.23845 -12947865.28261
  20839888.5584  -13680961.70045 -10553305.99761
 91  5  1 20 36 14.9910000  0  6G18G19G 2G11G16G 6
  19710545.9564   -3005921.18146    261516.15761
  18361372.1754  -13436015.00047 -10414672.74662
  19076182.6284  -28581981.43247 -22152236.63362
  20259305.2924  -19774727.44146 -15308314.20761
  21259090.8084  -20600664.68345 -12975119.71061
  20826452.7764  -13751578.33345 -10608331.88061
 91  5  1 20 36 29.9910000  0  6G18G19G 2G11G16G 6
  19711948.0584   -2998554.57346    267256.27861
  18355789.5114  -13465354.86447 -10437534.98762
  19063739.1284  -28647361.80147 -22203182.33662
  20253904.4874  -19803089.33446 -15330414.38561
  21252464.4334  -20635512.78545 -13002274.16361
  20813015.3554  -13822188.58945 -10663352.79861
 91  5  1 20 36 44.9910000  0  6G18G19G 2G11G16G 6
  19713363.3474   -2991120.48646    273048.96061
  18350217.5344  -13494643.56247 -10460357.35762
  19051312.9254  -28712672.21247 -22254073.52762
  20248535.4954  -19831304.78346 -15352400.44561
  21245859.0664  -20670240.43845 -13029334.70661
  20799569.4874  -13892800.10645 -10718374.70661
 91  5  1 20 36 59.9910000  0  6G18G19G 2G11G16G 6
  19714792.0344   -2983612.06846    278899.57161
  18344657.4014  -13523873.89747 -10483134.25662
  19038899.4644  -28777905.43747 -22304904.56462
  20243197.3704  -19859366.69746 -15374266.86861
  21239267.4094  -20704840.84045 -13056296.10661
  20786141.3314  -13963405.88745 -10773392.15361
 91  5  1 20 37 14.9910000  0  6G18G19G 2G11G16G 6
  19716236.0814   -2976030.87046    284806.88561
  18339101.4334  -13553047.22247 -10505866.72762
  19026497.9564  -28843063.22147 -22355676.82962
  20237888.5264  -19887276.88246 -15396015.06861
  21232703.3704  -20739315.69645 -13083159.69661
  20772701.0974  -14034007.53745 -10828406.36261
 91  5  1 20 37 29.9910000  0  6G18G19G 2G11G16G 6
  19717690.7144   -2968377.41346    290770.50761
  18333564.0034  -13582163.41447 -10528554.68363
  19014113.7764  -28908145.38847 -22406390.16962
  20232604.4014  -19915035.13846 -15417644.87761
  21226168.0664  -20773665.08745 -13109925.53761
  20759272.9564  -14104604.91045 -10883417.24261
 91  5  1 20 37 44.9910000  0  6G18G19G 2G11G16G 6
  19719162.0974   -2960654.66846    296788.11862
  18328031.4874  -13611225.21947 -10551200.25362
  19001742.4484  -28973154.70247 -22457046.74762
  20227351.2844  -19942644.44846 -15439158.63061
  21219655.4564  -20807892.05145 -13136595.96561
  20745842.3314  -14175200.74045 -10938426.90961
 91  5  1 20 37 59.9910000  0  6G18G19G 2G11G16G 6
  19720642.6834   -2952866.87946    302856.40361
  18322514.9644  -13640236.77646 -10573806.67763
  18989385.4254  -29038095.31047 -22507649.78262
  20222122.5814  -19970108.92246 -15460559.52261
  21213167.3474  -20842000.37645 -13163173.91361
  20732406.4644  -14245799.20945 -10993438.63661
 91  5  1 20 38 14.9910000  0  6G18G19G 2G11G16G 6
  19722138.4174   -2945011.97746    308976.99261
  18316998.7454  -13669195.76747 -10596372.13663
  18977040.7844  -29102964.92847 -22558197.50162
  20216924.6054  -19997426.66146 -15481846.07361
  21206699.8394  -20875988.36245 -13189658.13661
  20718969.6514  -14316398.09545 -11048450.70561
 91  5  1 20 38 29.9910000  0  6G18G19G 2G11G16G 6
  19723645.1124   -2937091.04046    315149.03461
  18311502.3314  -13698102.68347 -10618897.01863
  18964711.0584  -29167764.09147 -22608690.32362
  20211755.0504  -20024598.17746 -15503018.68761
  21200254.2064  -20909856.71745 -13216049.11061
  20705537.0034  -14386998.12645 -11103463.66061
 91  5  1 20 38 44.9910000  0  6G18G19G 2G11G16G 6
  19725164.8704   -2929100.03946    321375.67261
  18306008.4334  -13726952.93847 -10641377.74662
  18952393.3944  -29232488.39147 -22659124.80962
  20206611.8704  -20051619.18646 -15524074.02361
  21193834.6444  -20943601.28145 -13242343.65861
  20692088.9724  -14457594.66745 -11158473.90461
 91  5  1 20 38 59.9910000  0  6G18G19G 2G11G16G 6
  19726698.7454   -2921045.14146    327652.10161
  18300528.8704  -13755752.77147 -10663819.18562
  18940089.7064  -29297144.16047 -22709505.89862
  20201497.0584  -20078495.99346 -15545016.99461
  21187436.8004  -20977228.33545 -13268546.61661
  20678664.7694  -14528194.07445 -11213486.35561
 91  5  1 20 39 14.9910000  0  6G18G19G 2G11G16G 6
  19728245.4954   -2912925.12346    333979.25661
  18295057.3944  -13784500.46347 -10686219.99462
  18927800.2304  -29361729.84947 -22759832.36962
  20196412.2374  -20105227.02046 -15565846.37461
  21181050.9014  -21010736.32944 -13294656.79661
  20665230.3084  -14598794.80845 -11268499.86161
 91  5  1 20 39 29.9910000  0  6G18G19G 2G11G16G 6
  19729801.3234   -2904744.86446    340353.37161
  18289600.5424  -13813200.22047 -10708583.44762
  18915522.8704  -29426249.77547 -22810107.60062
  20191351.1674  -20131816.76446 -15586565.66461
  21174699.4804  -21044130.07944 -13320677.95961
  20651795.8624  -14669401.15445 -11323517.70961
 91  5  1 20 39 44.9910000  0  6G18G19G 2G11G16G 6
  19731369.3944   -2896501.03646    346776.99261
  18284146.4014  -13841848.75947 -10730907.00062
  18903257.7454  -29490700.60347 -22860328.98662
  20186316.2764  -20158262.07746 -15607172.40961
  21168360.5264  -21077406.16143 -13346607.45161
  20638355.1054  -14740009.83845 -11378537.41761
 91  5  1 20 39 59.9900000  0  6G18G19G 2G11G16G 6
  19732948.8034   -2888201.70546    353243.88961
  18278702.8264  -13870451.43947 -10753194.81562
  18891005.3734  -29555085.15247 -22910498.73162
  20181312.2324  -20184568.53746 -15627670.95961
  21162051.4284  -21110570.16244 -13372449.56661
  20624919.3034  -14810623.36145 -11433560.88661
 91  5  1 20 40 14.9900000  0  6G18G19G 2G11G16G 6
  19734539.1624   -2879839.28146    359759.93261
  18273267.6624  -13899004.88747 -10775444.26563
  18878765.4824  -29619405.00047 -22960618.06062
  20176333.5924  -20210732.59446 -15648058.54661
  21155773.8264  -21143619.27545 -13398202.20961
  20611480.6544  -14881244.22345 -11488590.06961
 91  5  1 20 40 29.9900000  0  6G18G19G 2G11G16G 6
  19736145.2324   -2871411.66946    366326.78861
  18267846.0844  -13927504.40647 -10797651.69662
  18866538.8734  -29683653.22947 -23010681.58262
  20171382.1314  -20236749.97246 -15668331.82961
  21149508.4824  -21176548.85145 -13423861.67261
  20598044.1074  -14951864.85845 -11543619.06661
 91  5  1 20 40 44.9900000  0  6G18G19G 2G11G16G 6
  19737761.3894   -2862922.55546    372941.54961
  18262430.1074  -13955953.27247 -10819819.65662
  18854326.2794  -29747833.27147 -23060691.96762
  20166460.6934  -20262624.14446 -15688493.53461
  21143265.4204  -21209362.26045 -13449430.63161
  20584604.2564  -15022488.55445 -11598650.46661
 91  5  1 20 40 59.9900000  0  6G18G19G 2G11G16G 6
  19739390.7174   -2854365.77546    379609.03761
  18257028.9984  -13984345.03047 -10841943.11762
  18842127.2324  -29811938.50847 -23110644.06163
  20161564.2874  -20288348.76246 -15708538.70361
  21137041.8654  -21242053.23345 -13474904.21061
  20571170.4124  -15093109.15245 -11653679.44361
 91  5  1 20 41 14.9900000  0  6G18G19G 2G11G16G 6
  19741028.5614   -2845742.66846    386328.21061
  18251639.8344  -14012680.80947 -10864022.96562
  18829944.3114  -29875970.23047 -23160538.87262
  20156696.4364  -20313925.13946 -15728468.35861
  21130845.0064  -21274623.24445 -13500283.50961
  20557721.0374  -15163727.55845 -11708706.72661
 91  5  1 20 41 29.9900000  0  6G18G19G 2G11G16G 6
  19742682.8034   -2837054.74046    393097.89761
  18246256.2874  -14040961.85947 -10886060.15963
  18817771.0614  -29939929.97147 -23210377.59963
  20151857.9204  -20339354.75946 -15748283.66661
  21124670.0684  -21307073.86345 -13525569.78461
  20544288.9284  -15234345.38045 -11763733.52061
 91  5  1 20 41 44.9900000  0  6G18G19G 2G11G16G 6
  19744350.2954   -2828306.93646    399914.23261
  18240883.4984  -14069192.37147 -10908057.97562
  18805614.6314  -30003821.71047 -23260163.33163
  20147046.9674  -20364641.83346 -15767987.88861
  21118513.3184  -21339409.43945 -13550766.42561
  20530853.8344  -15304966.59045 -11818762.98261
 91  5  1 20 41 59.9900000  0  6G18G19G 2G11G16G 6
  19746025.9824   -2819497.55246    406778.55961
  18235520.6704  -14097370.21247 -10930014.74862
  18793470.3114  -30067643.75647 -23309894.75763
  20142263.0064  -20389784.71846 -15787579.76061
  21112381.3894  -21371628.42845 -13575872.18161
  20517412.6154  -15375589.56245 -11873793.83261
 91  5  1 20 42 14.9900000  0  6G18G19G 2G11G16G 6
  19747711.8654   -2810633.72146    413685.31561
  18230167.3974  -14125502.35347 -10951935.91762
  18781335.6004  -30131403.25747 -23359577.44663
  20137501.6784  -20414790.68846 -15807064.94661
  21106272.8034  -21403737.80045 -13600892.58361
  20503968.3424  -15446221.17845 -11928831.40861
 91  5  1 20 42 29.9900000  0  6G18G19G 2G11G16G 6
  19749409.3114   -2801706.37746    420641.55061
  18224828.3264  -14153579.60047 -10973814.30762
  18769217.2014  -30195090.64147 -23409203.94263
  20132770.7954  -20439650.49046 -15826436.22761
  21100187.3034  -21435728.49744 -13625820.46661
  20490528.0144  -15516852.21445 -11983868.53561
 91  5  1 20 42 44.9900000  0  6G18G19G 2G11G16G 6
  19751119.5844   -2792719.33146    427644.32161
  18219491.3574  -14181605.39147 -10995652.60062
  18757110.8504  -30258709.50747 -23458777.05063
  20128068.7724  -20464367.64346 -15845696.36861
  21094120.0614  -21467604.09644 -13650658.66261
  20477091.1624  -15587486.12145 -12038907.90761
 91  5  1 20 42 59.9900000  0  6G18G19G 2G11G16G 6
  19752841.0924   -2783675.51646    434691.31361
  18214169.1474  -14209582.08947 -11017452.63162
  18745017.3034  -30322262.35247 -23508298.71463
  20123389.4514  -20488944.87546 -15864847.47261
  21088067.0924  -21499367.46244 -13675409.40161
  20463645.3574  -15658125.39145 -12093951.44261
 91  5  1 20 43 14.9900000  0  6G18G19G 2G11G16G 6
  19754575.4124   -2774566.40146    441789.19261
  18208855.7014  -14237500.67547 -11039207.38862
  18732936.5374  -30385740.41347 -23557762.10363
  20118744.4204  -20513373.34146 -15883882.65361
  21082052.7094  -21531009.90244 -13700065.93961
  20450203.8344  -15728761.16445 -12148992.25261
 91  5  1 20 43 29.9900000  0  6G18G19G 2G11G16G 6
  19756318.9674   -2765395.68246    448935.07261
  18203554.7254  -14265364.58547 -11060919.53862
  18720871.6784  -30449147.25747 -23607169.99863
  20114121.7794  -20537656.58546 -15902804.68061
  21076050.2254  -21562535.12744 -13724631.09461
  20436765.2794  -15799396.85945 -12204033.01261
 91  5  1 20 43 44.9900000  0  6G18G19G 2G11G16G 6
  19758077.9204   -2756161.75946    456130.19961
  18198261.7564  -14293172.14447 -11082587.78062
  18708819.4674  -30512481.16547 -23656521.05563
  20109527.0534  -20561793.23546 -15921612.47761
  21070075.0144  -21593941.52144 -13749103.68361
  20423321.3344  -15870030.93045 -12259072.48661
 91  5  1 20 43 59.9900000  0  6G18G19G 2G11G16G 6
  19759845.8034   -2746865.85846    463373.62061
  18192982.4984  -14320924.19447 -11104212.77162
  18696779.9364  -30575742.96147 -23705815.93163
  20104962.9514  -20585784.25646 -15940306.79361
  21064124.6314  -21625230.24444 -13773484.57061
  20409880.0844  -15940664.28745 -12314111.41661
 91  5  1 20 44 14.9900000  0  6G18G19G 2G11G16G 6
  19761626.2094   -2737504.97446    470667.68661
  18187712.7174  -14348617.29047 -11125791.82562
  18684757.0224  -30638929.37547 -23755052.05863
  20100424.7404  -20609626.45146 -15958885.14261
  21058198.4904  -21656398.37245 -13797771.47761
  20396434.9284  -16011293.51345 -12369147.13561
 91  5  1 20 44 29.9900000  0  6G18G19G 2G11G16G 6
  19763421.7324   -2728077.88046    478013.33261
  18182453.1704  -14376249.77447 -11147323.64962
  18672746.4754  -30702038.93447 -23804228.29963
  20095917.3574  -20633318.28346 -15977346.32161
  21052286.6624  -21687444.00645 -13821962.92861
  20383002.7954  -16081916.95845 -12424178.33061
 91  5  1 20 44 44.9900000  0  6G18G19G 2G11G16G 6
  19765226.6394   -2718590.54346    485405.91961
  18177207.0144  -14403827.22947 -11168812.59262
  18660751.6154  -30765077.14847 -23853348.95063
  20091438.8264  -20656865.71846 -15995694.99561
  21046399.7564  -21718372.92945 -13846063.46061
  20369558.9284  -16152540.38345 -12479209.50861
 91  5  1 20 44 59.9900000  0  6G18G19G 2G11G16G 6
  19767043.9434   -2709044.43446    492844.31261
  18171968.3894  -14431350.79847 -11190259.53962
  18648768.1864  -30828045.29547 -23902415.00463
  20086980.1934  -20680270.03846 -16013932.13661
  21040536.7404  -21749187.10645 -13870074.57461
  20356119.9984  -16223165.04545 -12534241.66261
 91  5  1 20 45 14.9900000  0  6G18G19G 2G11G16G 6
  19768872.3814   -2699441.92846    500326.64061
  18166738.1004  -14458822.74447 -11211666.26762
  18636798.9364  -30890945.65647 -23951428.23563
  20082556.8344  -20703533.53846 -16032059.55161
  21034698.3264  -21779888.66345 -13893997.93061
  20342683.1624  -16293793.13345 -12589276.47761
 91  5  1 20 45 29.9900000  0  6G18G19G 2G11G16G 6
  19770710.6784   -2689779.62146    507855.55761
  18161523.4984  -14486239.22247 -11233029.77162
  18624845.0924  -30953774.47247 -24000385.71963
  20078159.8034  -20726652.64646 -16050074.45161
  21028880.5294  -21810474.18445 -13917830.87761
  20329240.6934  -16364420.78545 -12644310.95361
 91  5  1 20 45 44.9900000  0  6G18G19G 2G11G16G 6
  19772560.3344   -2680057.56646    515431.05761
  18156316.9204  -14513599.70447 -11254349.64362
  18612899.9594  -31016531.36347 -24049287.15863
  20073785.5764  -20749627.05946 -16067976.60661
  21023078.8114  -21840943.37845 -13941573.14961
  20315800.6074  -16435047.83545 -12699344.97261
 91  5  1 20 45 59.9900000  0  6G18G19G 2G11G16G 6
  19774422.7644   -2670273.42146    523054.92461
  18151119.8734  -14540901.58847 -11275623.85362
  18600974.1474  -31079213.91847 -24098130.67063
  20069443.9824  -20772454.49346 -16085764.22861
  21017303.1864  -21871293.72345 -13965222.87261
  20302356.1544  -16505671.57945 -12754376.40261
 91  5  1 20 46 14.9900000  0  6G18G19G 2G11G16G 6
  19776294.5294   -2660431.63046    530723.72061
  18145936.5614  -14568149.10447 -11296855.70462
  18589057.6314  -31141826.57347 -24146919.71763
  20065125.5374  -20795139.34546 -16103440.75161
  21011545.2324  -21901529.79644 -13988783.51561
  20288918.9124  -16576296.37945 -12809408.66961
 91  5  1 20 46 29.9900000  0  6G18G19G 2G11G16G 6
  19778181.1704   -2650523.30046    538444.34961
  18140764.1154  -14595332.96347 -11318037.94562
  18577157.7014  -31204360.02447 -24195647.05163
  20060837.2794  -20817672.44146 -16120999.01861
  21005816.4204  -21931642.93544 -14012248.37761
  20275481.9594  -16646913.00945 -12864434.56561
 91  5  1 20 46 44.9900000  0  6G18G19G 2G11G16G 6
  19780079.7094   -2640548.83146    546216.51861
  18135601.2564  -14622453.00947 -11339170.46362
  18565275.1074  -31266813.92547 -24244312.39063
  20056578.4904  -20840053.84946 -16138439.08761
  21000114.7874  -21961633.24344 -14035617.56361
  20262044.1474  -16717521.12845 -12919453.83561
 91  5  1 20 46 59.9900000  0  6G18G19G 2G11G16G 6
  19781989.6154   -2630511.71346    554037.50461
  18130451.5684  -14649512.60547 -11360255.87962
  18553404.6394  -31329192.03247 -24292918.67363
  20052348.0684  -20862287.26046 -16155763.83761
  20994420.4754  -21991504.10244 -14058893.63261
  20248613.7874  -16788124.49945 -12974469.40161
 91  5  1 20 47 14.9900000  0  6G18G19G 2G11G16G 6
  19783911.6234   -2620410.16746    561908.68861
  18125315.7174  -14676509.45547 -11381292.40562
  18541550.2094  -31391491.90247 -24341463.99163
  20048146.0294  -20884370.64246 -16172971.67861
  20988762.7724  -22021253.48744 -14082075.02861
  20235178.3814  -16858720.72445 -13029479.39861
 91  5  1 20 47 29.9900000  0  6G18G19G 2G11G16G 6
  19785844.2254   -2610249.85246    569825.67361
  18120190.1934  -14703448.89547 -11402284.19162
  18529707.4904  -31453719.07547 -24389952.66463
  20043970.6544  -20906309.41346 -16190066.83461
  20983123.7954  -22050887.15144 -14105166.24461
  20221743.0064  -16929315.27345 -13084488.10861
 91  5  1 20 47 44.9900000  0  6G18G19G 2G11G16G 6
  19787789.6624   -2600024.88046    577793.04061
  18115073.9594  -14730324.75647 -11423226.43862
  18517880.2254  -31515867.66847 -24438380.10363
  20039821.1074  -20928097.75846 -16207044.77761
  20977509.3814  -22080398.97545 -14128162.55461
  20208314.1784  -16999902.02045 -13139490.72661
 91  5  1 20 47 59.9900000  0  6G18G19G 2G11G16G 6
  19789745.7564   -2589750.62846    585798.80161
  18109972.3654  -14757151.94547 -11444130.75662
  18506067.1544  -31577952.54147 -24486757.89263
  20035701.7324  -20949750.74646 -16223917.25361
  20971917.6234  -22109804.35445 -14151075.89461
  20194880.5924  -17070495.92245 -13194498.92061
 91  5  1 20 48 14.9900000  0  6G18G19G 2G11G16G 6
  19791713.7874   -2579415.13546    593852.28561
  18104878.1784  -14783918.15247 -11464987.56062
  18494265.5844  -31639961.46847 -24535076.50263
  20031610.5614  -20971256.28246 -16240674.82961
  20966340.4364  -22139091.04545 -14173896.73261
  20181450.5684  -17141084.77045 -13249503.17661
 91  5  1 20 48 29.9900000  0  6G18G19G 2G11G16G 6
  19793688.9674   -2569026.08646    601947.49761
  18099793.2254  -14810630.89247 -11485802.69762
  18482479.5374  -31701902.06747 -24583341.87363
  20027544.0844  -20992622.15546 -16257323.57761
  20960785.0764  -22168266.98845 -14196631.31261
  20168016.8654  -17211676.02545 -13304509.31061
 91  5  1 20 48 44.9900000  0  6G18G19G 2G11G16G 6
  19795677.4984   -2558579.87346    610087.25461
  18094721.8114  -14837286.15147 -11506573.04662
  18470706.5064  -31763770.23547 -24631550.80663
  20023506.5374  -21013844.45446 -16273860.45061
  20955257.4044  -22197328.21945 -14219276.50861
  20154578.3344  -17282265.81545 -13359514.29461
 91  5  1 20 48 59.9900000  0  6G18G19G 2G11G16G 6
  19797677.1004   -2548074.78446    618272.88561
  18089661.2954  -14863881.98947 -11527297.09162
  18458946.7094  -31825564.10347 -24679701.83763
  20019497.7094  -21034921.37746 -16290284.03361
  20949741.2794  -22226273.11345 -14241831.05061
  20141154.0454  -17352851.96046 -13414516.43361
 91  5  1 20 49 14.9900000  0  6G18G19G 2G11G16G 6
  19799686.2644   -2537519.57646    626497.56761
  18084608.5764  -14890426.52847 -11547981.16162
  18447199.6934  -31887292.08847 -24727801.53663
  20015511.5924  -21055861.33346 -16306600.90861
  20944265.3974  -22255110.21345 -14264301.61461
  20127711.8894  -17423442.93945 -13469522.35961
 91  5  1 20 49 29.9900000  0  6G18G19G 2G11G16G 6
  19801706.5844   -2526904.37946    634769.00061
  18079570.3574  -14916909.75247 -11568617.45362
  18435468.6704  -31948944.13947 -24775842.05963
  20011554.3814  -21076654.64146 -16322803.49961
  20938796.3894  -22283829.81245 -14286680.61861
  20114279.7954  -17494028.75845 -13524524.24961
 91  5  1 20 49 44.9900000  0  6G18G19G 2G11G16G 6
  19803736.6544   -2516232.73746    643084.41461
  18074540.9284  -14943334.87347 -11589208.47362
  18423749.2644  -32010523.59847 -24823826.01763
  20007626.4754  -21097304.73346 -16338894.50461
  20933364.4124  -22312435.53645 -14308970.88561
  20100853.4434  -17564612.64845 -13579524.64361
 91  5  1 20 49 59.9890000  0  6G18G19G 2G11G16G 6
  19805777.0484   -2505501.97846    651445.89261
  18069527.1814  -14969696.32647 -11609749.88362
  18412048.0644  -32072022.51947 -24871747.21663
  20003724.2984  -21117806.62646 -16354870.01661
  20927930.7204  -22340921.52845 -14331167.81261
  20087420.9934  -17635186.05145 -13634516.86761
 91  5  1 20 50 14.9890000  0  6G18G19G 2G11G16G 6
  19807830.1264   -2494713.71246    659852.18261
  18064517.4704  -14996000.26147 -11630246.47162
  18400357.7434  -32133451.94747 -24919614.27363
  19999849.6494  -21138166.04546 -16370734.51561
  20922537.2124  -22369294.77245 -14353276.95261
  20073995.8454  -17705761.14446 -13689510.38761
 91  5  1 20 50 29.9890000  0  6G18G19G 2G11G16G 6
  19809897.8844   -2483861.61946    668308.21561
  18059526.1494  -15022237.48346 -11650691.07862
  18388684.2044  -32194800.60747 -24967418.39063
  19996004.7744  -21158374.49846 -16386481.38661
  20917163.0714  -22397546.44945 -14375291.28361
  20060566.2984  -17776326.04646 -13744495.98461
 91  5  1 20 50 44.9890000  0  6G18G19G 2G11G16G 6
  19811973.4394   -2472946.00346    676813.72861
  18054545.5404  -15048407.84547 -11671083.58762
  18377027.0564  -32256068.49047 -25015159.56463
  19992185.7824  -21178432.00846 -16402110.63161
  20911804.1654  -22425676.65945 -14397211.01861
  20047138.0014  -17846880.60945 -13799473.52561
 91  5  1 20 50 59.9890000  0  6G18G19G 2G11G16G 6
  19814064.3994   -2461968.52146    685367.46761
  18049581.5324  -15074512.66847 -11691425.03262
  18365382.7514  -32317257.15047 -25062839.00763
  19988398.1344  -21198340.17346 -16417623.50561
  20906473.1654  -22453686.90544 -14419037.23561
  20033710.7904  -17917426.12545 -13854444.01061
 91  5  1 20 51 14.9890000  0  6G18G19G 2G11G16G 6
  19816165.8844   -2450931.74146    693967.39461
  18044621.9544  -15100554.24647 -11711717.19262
  18353752.4784  -32378368.73947 -25110458.39863
  19984638.9624  -21218101.40946 -16433021.89561
  20901163.1964  -22481579.67644 -14440771.95861
  20020293.7434  -17987964.92545 -13909409.26561
 91  5  1 20 51 29.9890000  0  6G18G19G 2G11G16G 6
  19818277.8374   -2439836.01646    702613.25561
  18039676.4854  -15126532.62147 -11731960.10062
  18342138.3294  -32439403.38347 -25158017.82763
  19980907.2824  -21237716.00046 -16448306.01061
  20895880.3214  -22509355.19745 -14462415.30261
  20006869.4234  -18058496.97045 -13964369.25861
 91  5  1 20 51 44.9890000  0  6G18G19G 2G11G16G 6
  19820398.7744   -2428683.37846    711303.45761
  18034747.2204  -15152449.23747 -11752154.88162
  18330537.4934  -32500362.63247 -25205518.50863
  19977202.3454  -21257185.84446 -16463477.33961
  20890616.1264  -22537015.43245 -14483968.79861
  19993446.6894  -18129024.02445 -14019325.36461
 91  5  1 20 51 59.9890000  0  6G18G19G 2G11G16G 6
  19822530.0244   -2417473.95146    720037.90861
  18029831.2674  -15178304.09247 -11772301.54262
  18318949.8064  -32561246.65947 -25252960.57663
  19973523.3534  -21276510.99046 -16478535.92361
  20885373.7434  -22564560.66245 -14505432.70061
  19980029.1344  -18199546.02645 -14074277.51961
 91  5  1 20 52 14.9890000  0  6G18G19G 2G11G16G 6
  19824675.6424   -2406208.44746    728816.06061
  18024915.8144  -15204097.49447 -11792400.32262
  18307379.1734  -32622056.03247 -25300344.47163
  19969870.6734  -21295692.12946 -16493482.28761
  20880159.7434  -22591991.75645 -14526807.66961
  19966611.1264  -18270063.35445 -14129226.03361
 91  5  1 20 52 29.9890000  0  6G18G19G 2G11G16G 6
  19826827.7204   -2394885.58846    737638.91161
  18020020.8684  -15229827.84247 -11812449.96062
  18295821.8604  -32682789.08647 -25347668.90263
  19966252.2824  -21314727.87546 -16508315.35761
  20874958.2434  -22619307.17545 -14548092.50461
  19953191.9704  -18340574.46745 -14184169.71161
 91  5  1 20 52 44.9890000  0  6G18G19G 2G11G16G 6
  19828993.0484   -2383511.86846    746501.38261
  18015137.5794  -15255501.22747 -11832455.21762
  18284277.7904  -32743451.73047 -25394938.46363
  19962654.4784  -21333624.45146 -16523039.98761
  20869785.3294  -22646513.09545 -14569292.00661
  19939777.5484  -18411085.39645 -14239113.25061
 91  5  1 20 52 59.9890000  0  6G18G19G 2G11G16G 6
  19831169.9934   -2372081.67346    755407.87261
  18010263.8454  -15281111.73547 -11852411.48162
  18272750.2674  -32804038.25547 -25442148.70663
  19959087.8604  -21352376.20846 -16537651.78661
  20864625.9464  -22673604.11745 -14590401.98961
  19926353.3214  -18481590.31645 -14294052.08861
 91  5  1 20 53 14.9890000  0  6G18G19G 2G11G16G 6
  19833357.3994   -2360592.92146    764359.97561
  18005402.1184  -15306656.95347 -11872316.86562
  18261232.5874  -32864546.44347 -25489297.91363
  19955545.4074  -21370980.93946 -16552148.99961
  20859499.5714  -22700578.07145 -14611420.72861
  19912942.5484  -18552086.88045 -14348984.42361
 91  5  1 20 53 29.9890000  0  6G18G19G 2G11G16G 6
  19835550.3534   -2349047.04846    773356.60561
  18000553.6494  -15332137.92147 -11892172.18762
  18249736.5014  -32924977.31147 -25536386.86663
  19952033.3214  -21389439.92646 -16566532.65661
  20854387.9704  -22727436.29245 -14632349.28961
  19899528.6574  -18622576.11945 -14403911.06361
 91  5  1 20 53 44.9890000  0  6G18G19G 2G11G16G 6
  19837761.2044   -2337443.86846    782397.87461
  17995717.0874  -15357553.98447 -11911976.93462
  18238251.0484  -32985330.32547 -25583415.15363
  19948547.3534  -21407752.77146 -16580802.43061
  20849292.5714  -22754178.61744 -14653187.55561
  19886116.2594  -18693057.38945 -14458831.49161
 91  5  1 20 53 59.9890000  0  6G18G19G 2G11G16G 6
  19839980.3294   -2325785.11346    791482.47061
  17990891.1654  -15382906.62347 -11931732.25862
  18226781.1344  -33045607.09947 -25630384.03763
  19945090.3214  -21425921.33146 -16594959.78061
  20844222.4854  -22780806.49244 -14673936.63261
  19872708.3374  -18763532.30846 -14513746.96861
 91  5  1 20 54 14.9890000  0  6G18G19G 2G11G16G 6
  19842209.0954   -2314068.33046    800612.25161
  17986080.3604  -15408192.96547 -11951435.92462
  18215326.3064  -33105805.00247 -25677291.46063
  19941662.9624  -21443943.11746 -16609002.76461
  20839182.9784  -22807317.26744 -14694594.47961
  19859296.4854  -18833998.23646 -14568655.43961
 91  5  1 20 54 29.9890000  0  6G18G19G 2G11G16G 6
  19844449.4464   -2302296.19546    809785.18261
  17981280.0404  -15433415.19847 -11971089.63762
  18203883.5794  -33165926.28547 -25724139.18263
  19938259.0794  -21461820.47046 -16622933.19161
  20834160.2594  -22833713.77544 -14715163.25761
  19845888.6034  -18904457.14546 -14623558.44061
 91  5  1 20 54 44.9890000  0  6G18G19G 2G11G16G 6
  19846701.8684   -2290461.72646    819006.67261
  17976495.4074  -15458565.94347 -11990687.64062
  18192460.0014  -33225963.64747 -25770921.50963
  19934887.5244  -21479546.22746 -16636745.50461
  20829158.0564  -22859988.67145 -14735637.26261
  19832483.2124  -18974901.85046 -14678450.34661
 91  5  1 20 54 59.9890000  0  6G18G19G 2G11G16G 6
  19848963.3294   -2278566.54746    828275.46661
  17971724.3844  -15483646.70447 -12010231.11662
  18181048.5244  -33285918.54947 -25817639.58663
  19931542.9314  -21497122.03446 -16650440.95661
  20824181.6574  -22886144.00245 -14756018.14761
  19819081.2434  -19045333.66446 -14733332.22461
 91  5  1 20 55 14.9890000  0  6G18G19G 2G11G16G 6
  19851241.4624   -2266617.95246    837585.89461
  17966962.8294  -15508664.35247 -12029725.41262
  18169655.9624  -33345798.26747 -25864299.07263
  19928224.7594  -21514555.29446 -16664025.34961
  20819230.5484  -22912187.00845 -14776311.45761
  19805678.9934  -19115759.80246 -14788209.68561
 91  5  1 20 55 29.9890000  0  6G18G19G 2G11G16G 6
  19853523.3214   -2254610.67946    846942.03861
  17962215.1034  -15533613.35347 -12049166.21462
  18158275.8924  -33405597.27847 -25910895.67463
  19924936.5714  -21531840.75246 -16677494.56961
  20814298.1034  -22938112.55245 -14796513.27361
  19792276.6104  -19186174.68246 -14843078.37461
 91  5  1 20 55 44.9890000  0  6G18G19G 2G11G16G 6
  19855822.4784   -2242545.25046    856343.49261
  17957478.8764  -15558493.68147 -12068553.50462
  18146913.2744  -33465315.63447 -25957429.41963
  19921676.1654  -21548978.56446 -16690848.73761
  20809382.5324  -22963920.67945 -14816623.58961
  19778882.3994  -19256578.23446 -14897938.23961
 91  5  1 20 55 59.9890000  0  6G18G19G 2G11G16G 6
  19858127.3844   -2230426.03546    865786.86661
  17952761.0644  -15583309.42947 -12087890.47062
  18135564.3844  -33524957.41147 -26003903.50263
  19918439.0644  -21565972.94146 -16704091.13761
  20804492.7434  -22989615.68145 -14836645.79161
  19765486.4314  -19326974.62946 -14952792.53561
 91  5  1 20 56 14.9890000  0  6G18G19G 2G11G16G 6
  19860446.2904   -2218248.75346    875275.48061
  17948049.4544  -15608056.03147 -12107173.56162
  18124227.4784  -33584518.43847 -26050314.66163
  19915235.3064  -21582819.73446 -16717218.54361
  20799626.2354  -23015193.28145 -14856576.50061
  19752088.5484  -19397359.36046 -15007637.72661
 91  5  1 20 56 29.9890000  0  6G18G19G 2G11G16G 6
  19862772.0564   -2206013.47745    884809.29761
  17943353.4624  -15632733.09747 -12126402.46662
  18112912.3534  -33643998.22447 -26096662.50963
  19912058.8534  -21599518.78246 -16730230.81561
  20794782.9464  -23040653.39645 -14876415.63461
  19738700.8764  -19467731.93946 -15062473.44561
 91  5  1 20 56 44.9890000  0  6G18G19G 2G11G16G 6
  19865109.8144   -2193721.60745    894387.19361
  17938667.9854  -15657341.83347 -12145578.12662
  18101605.4314  -33703398.02147 -26142948.04063
  19908908.2434  -21616071.53346 -16743129.09361
  20789962.0564  -23065997.95245 -14896164.75061
  19725308.2674  -19538093.74246 -15117300.77861
 91  5  1 20 56 59.9890000  0  6G18G19G 2G11G16G 6
  19867458.2434   -2181385.00445    903999.94361
  17933997.9464  -15681893.47447 -12164709.29762
  18090316.4154  -33762729.35347 -26189180.21163
  19905783.5564  -21632489.70246 -16755922.49861
  20785160.4314  -23091238.36845 -14915832.69061
  19711923.5094  -19608456.13646 -15172128.56461
 91  5  1 20 57 14.9890000  0  6G18G19G 2G11G16G 6
  19869814.6734   -2168998.50246    913651.58861
  17929337.0244  -15706382.56647 -12183791.72662
  18079041.2674  -33821986.55447 -26235354.62663
  19902686.6654  -21648767.97146 -16768606.89061
  20780372.6494  -23116369.49045 -14935415.47061
  19698533.8844  -19678813.60746 -15226952.51861
 91  5  1 20 57 29.9890000  0  6G18G19G 2G11G16G 6
  19872184.1894   -2156565.62646    923339.35061
  17924686.6494  -15730812.30247 -12202827.90462
  18067777.3844  -33881173.05247 -26281473.93763
  19899615.4074  -21664909.71046 -16781184.90261
  20775613.9854  -23141394.70645 -14954915.73661
  19685143.6574  -19749169.20246 -15281775.01461
 91  5  1 20 57 44.9890000  0  6G18G19G 2G11G16G 6
  19874558.2594   -2144082.39746    933066.39661
  17920051.8604  -15755178.52247 -12221814.58862
  18056529.2124  -33940284.80147 -26327535.01063
  19896568.3374  -21680911.14246 -16793653.57961
  20770868.9234  -23166309.85045 -14974330.20561
  19671758.2594  -19819518.83246 -15336592.85661
 91  5  1 20 57 59.9890000  0  6G18G19G 2G11G16G 6
  19876942.8294   -2131554.27646    942828.37961
  17915426.0714  -15779486.32047 -12240755.74962
  18045291.7744  -33999326.99647 -26373541.88463
  19893548.5324  -21696777.56646 -16806017.06861
  20766150.2674  -23191120.53545 -14993663.30561
  19658369.1814  -19889867.77045 -15391410.16761
 91  5  1 20 58 14.9890000  0  6G18G19G 2G11G16G 6
  19879337.4624   -2118976.31146    952629.21761
  17910812.7124  -15803730.23547 -12259647.12962
  18034072.5484  -34058294.39447 -26419490.47163
  19890554.1494  -21712503.79046 -16818271.28661
  20761449.9704  -23215821.69045 -15012911.05961
  19644982.5324  -19960210.54746 -15446222.67161
 91  5  1 20 58 29.9890000  0  6G18G19G 2G11G16G 6
  19881741.7514   -2106344.59846    962471.93461
  17906212.9074  -15827905.70747 -12278485.17862
  18022864.6034  -34117182.68047 -26465377.41563
  19887592.0644  -21728085.73946 -16830413.08161
  20756775.0014  -23240409.39145 -15032070.41361
  19631599.2674  -20030542.71946 -15501026.92261
 91  5  1 20 58 44.9890000  0  6G18G19G 2G11G16G 6
  19884151.9464   -2093668.25045    972349.41961
  17901623.6814  -15852021.76547 -12297276.92362
  18011673.7124  -34176000.96647 -26511209.81063
  19884651.2204  -21743532.58546 -16842449.62861
  20752112.2594  -23264892.94245 -15051148.60061
  19618216.9624  -20100873.38646 -15555829.98961
 91  5  1 20 58 59.9890000  0  6G18G19G 2G11G16G 6
  19886575.2744   -2080940.87945    982266.65361
  17897046.4314  -15876071.64847 -12316017.10962
  18000495.5404  -34234742.39247 -26556982.32063
  19881740.0954  -21758837.85946 -16854375.84261
  20747472.7594  -23289265.83845 -15070140.54961
  19604836.8764  -20171195.83146 -15610626.64661
 91  5  1 20 59 14.9890000  0  6G18G19G 2G11G16G 6
  19889005.7984   -2068165.57745    992221.26061
  17892481.4784  -15900058.16947 -12334707.92562
  17989330.1574  -34293409.82647 -26602697.17863
  19878854.6574  -21774004.43246 -16866193.97761
  20742854.7824  -23313530.67345 -15089048.31061
  19591454.3994  -20241512.60846 -15665418.89261
 91  5  1 20 59 29.9890000  0  6G18G19G 2G11G16G 6
  19891445.7904   -2055346.58545   1002209.88561
  17887929.1264  -15923985.42247 -12353352.55562
  17978182.6264  -34352007.36947 -26648357.56363
  19875990.5644  -21789036.63846 -16877907.41761
  20738256.5714  -23337692.09545 -15107875.45761
  19578072.0954  -20311827.87346 -15720209.95061
 91  5  1 20 59 44.9880000  0  6G18G19G 2G11G16G 6
  19893895.6924   -2042481.88845   1012234.13061
  17883388.4964  -15947848.11247 -12371946.88362
  17967042.4884  -34410527.88547 -26693957.94363
  19873157.9654  -21803930.45946 -16889513.02261
  20733682.9734  -23361745.39445 -15126618.39361
  19564694.4964  -20382133.57146 -15774993.57061
 91  5  1 20 59 59.9880000  0  6G18G19G 2G11G16G 6
  19896351.0594   -2029568.54845   1022296.28261
  17878859.4574  -15971647.87547 -12390492.17162
  17955921.7704  -34468977.66347 -26739503.18763
  19870351.0824  -21818686.58646 -16901011.33361
  20729128.9184  -23385692.78045 -15145278.80461
  19551319.3714  -20452437.44746 -15829775.75561
 91  5  1 21  0 14.9880000  0  6G18G19G 2G11G16G 6
  19898818.4884   -2016607.29145   1032395.76861
  17874344.2464  -15995382.66447
  17944813.6844  -34527352.29447 -26784989.88263
  19867570.0204  -21833303.89546 -16912401.46561
  20724583.4264  -23409532.34044
  19537940.4024  -20522734.42946 -15884552.57861
 91  5  1 21  0 29.9880000  0  6G18G19G 2G11G16G 6
  19901294.3794   -2003599.31645   1042531.65861
  17869842.0824  -16019053.37247
  17933716.4024  -34585652.94547 -26830418.93463
  19864812.8324  -21847783.41146 -16923684.24461
  20720068.9654  -23433265.20845
  19524565.2384  -20593025.38346 -15939324.70161
 91  5  1 21  0 44.9880000  0  6G18G19G 2G11G16G 6
  19903777.6994   -1990539.06246   1052708.29561
  17865346.9814  -16042654.17447
  17922638.9024  -34643873.95047 -26875785.92163
  19862084.9184  -21862119.70746 -16934855.41161
  20715575.3564  -23456885.75745
  19511189.8794  -20663304.43746 -15994087.55761
 91  5  1 21  0 59.9880000  0  6G18G19G 2G11G16G 6
  19906272.7854   -1977430.95745   1062922.20761
  17860870.4344  -16066189.03447
  17911574.0984  -34702019.47847 -26921094.09363
  19859385.8794  -21876317.02046 -16945918.27761
  20711104.0674  -23480398.67545
  19497817.3954  -20733575.72546 -16048844.36261
 91  5  1 21  1 14.9880000  0  6G18G19G 2G11G16G 6
  19908776.3954   -1964275.09645   1073173.32961
  17856404.6604  -16089657.76347
  17900524.8874  -34760089.06347 -26966343.08863
  19856707.2934  -21890375.35046 -16956872.84861
  20706650.6684  -23503803.61645
  19484450.0434  -20803838.93646 -16103594.87261
 91  5  1 21  1 29.9880000  0  6G18G19G 2G11G16G 6
  19911288.5204   -1951072.65545   1083460.76361
  17851950.8404  -16113061.30747 -12500684.56662
  17889488.5354  -34818083.78847 -27011533.75563
  19854059.1604  -21904295.90746 -16967720.05561
  20702218.9424  -23527102.00445 -15255467.93361
  19471080.3484  -20874095.02246 -16158339.83561
 91  5  1 21  1 44.9880000  0  6G18G19G 2G11G16G 6
  19913809.0044   -1937818.54445   1093788.44361
  17847508.2624  -16136394.04347 -12518865.93962
  17878468.6924  -34875998.28447 -27056661.90063
  19851438.6294  -21918073.48346 -16978455.86561
  20697800.9884  -23550288.72445 -15273535.60561
  19457711.5744  -20944338.48446 -16213074.95561
 91  5  1 21  1 59.9880000  0  6G18G19G 2G11G16G 6
  19916342.7384   -1924513.18545   1104156.03461
  17843084.3954  -16159655.97446 -12536992.13562
  17867462.1134  -34933832.83447 -27101727.75663
  19848845.2774  -21931708.40946 -16989080.50961
  20693410.7074  -23573363.91745 -15291516.35961
  19444342.0124  -21014569.37846 -16267800.28261
 91  5  1 21  2 14.9880000  0  6G18G19G 2G11G16G 6
  19918886.5744   -1911161.27445   1114559.94761
  17838668.7234  -16182851.44747 -12555066.55162
  17856469.8634  -34991591.83047 -27146734.73863
  19846277.9884  -21945205.24246 -16999597.55261
  20689039.3634  -23596332.45344 -15309414.02461
  19430985.7774  -21084791.98346 -16322519.14861
 91  5  1 21  2 29.9880000  0  6G18G19G 2G11G16G 6
  19921437.0904   -1897761.21245   1125001.32761
  17834271.2774  -16205978.62746 -12573087.73962
  17845496.2154  -35049273.36847 -27191681.36263
  19843733.2234  -21958562.40946 -17010005.76261
  20684689.1214  -23619192.58544 -15327227.21361
  19417621.2934  -21155004.43346 -16377230.10761
 91  5  1 21  2 44.9880000  0  6G18G19G 2G11G16G 6
  19923991.0904   -1884322.54245   1135472.80861
  17829876.9344  -16229046.67647 -12591062.85962
  17834528.2384  -35106886.81847 -27236574.93263
  19841218.7854  -21971789.44946 -17020312.56761
  20680355.9344  -23641953.95545 -15344963.44061
  19404259.9024  -21225215.98146 -16431940.36161
 91  5  1 21  2 59.9880000  0  6G18G19G 2G11G16G 6
  19926557.4884   -1870835.24545   1145982.19261
  17825505.6134  -16252045.18746 -12608983.79062
  17823583.5274  -35164421.81147 -27281407.36263
  19838724.9574  -21984876.16646 -17030510.03261
  20676052.0514  -23664606.52445 -15362614.93161
  19390902.4734  -21295416.25246 -16486641.82161
 91  5  1 21  3 14.9880000  0  6G18G19G 2G11G16G 6
  19929135.8714   -1857304.47545   1156525.42261
  17821136.8874  -16274978.97747 -12626854.29062
  17812647.7704  -35221883.02947 -27326182.31863
  19836260.7934  -21997827.58046 -17040602.06661
  20671757.2154  -23687155.24045 -15380185.43861
  19377543.0274  -21365609.93046 -16541338.13861
 91  5  1 21  3 29.9880000  0  6G18G19G 2G11G16G 6
  19931716.5744   -1843730.80045   1167102.10861
  17816789.5124  -16297848.25746 -12644674.52862
  17801727.4574  -35279271.09247 -27370900.25463
  19833824.3634  -22010644.41446 -17050589.24561
  20667483.7934  -23709600.94845 -15397675.70061
  19364186.0984  -21435797.39046 -16596029.62261
 91  5  1 21  3 44.9880000  0  6G18G19G 2G11G16G 6
  19934309.7234   -1830102.54345   1177721.33661
  17812447.4344  -16320640.80947 -12662434.97562
  17790823.3014  -35336573.91347 -27415551.78363
  19831412.5514  -22023314.69546 -17060462.21461
  20663237.8244  -23731931.64045 -15415076.33961
  19350837.3564  -21505966.34746 -16650706.67961
 91  5  1 21  3 59.9880000  0  6G18G19G 2G11G16G 6
  19936912.1844   -1816428.40446   1188376.28261
  17808123.3794  -16343365.12647 -12680142.24862
  17779931.9574  -35393800.37347 -27460143.80163
  19829028.2774  -22035847.33546 -17070227.92861
  20659006.3174  -23754156.29544 -15432394.35161
  19337485.6294  -21576125.48346 -16705376.09061
 91  5  1 21  4 14.9880000  0  6G18G19G 2G11G16G 6
  19939523.5674   -1802713.49145   1199063.01861
  17803811.4264  -16366025.87547 -12697799.99362
  17769058.4184  -35450954.91547 -27504679.78563
  19826665.2154  -22048247.12946 -17079890.13261
  20654794.5674  -23776279.60244 -15449633.40261
  19324137.9654  -21646279.44646 -16760041.45861
 91  5  1 21  4 29.9880000  0  6G18G19G 2G11G16G 6
  19942141.2774   -1788942.85045   1209793.18961
  17799519.2934  -16388607.67346 -12715396.21962
  17758195.0124  -35508022.33347 -27549147.88063
  19824334.0594  -22060499.00346 -17089437.07961
  20650608.4884  -23798286.63145 -15466781.84461
  19310787.2934  -21716412.76746 -16814690.75461
 91  5  1 21  4 44.9880000  0  7G18G15G19G 2G11G16G 6
  19944769.3484   -1775138.54345   1220549.58161
  21864033.1844         -0.83753
  17795226.9024  -16411132.40847 -12732947.97962
  17747348.5674  -35565024.60047 -27593565.20563
  19822030.0124  -22072625.30646 -17098886.17461
  20646445.3794  -23820199.87245 -15483857.18761
  19297443.3404  -21786547.45946 -16869341.11161
 91  5  1 21  4 59.9880000  0  7G18G15G19G 2G11G16G 6
  19947401.9814   -1761298.74645   1231333.60961
  21849888.3094     -74293.72543
  17790954.4654  -16433597.83247 -12750453.52062
  17736514.2384  -35621959.47147 -27637930.01663
  19819745.2854  -22084623.97546 -17108235.81361
  20642290.2154  -23842017.06545 -15500857.70661
  19284096.3484  -21856681.14246 -16923990.67661
 91  5  1 21  5 14.9880000  0  7G18G15G19G 2G11G16G 6
  19950045.3714   -1747422.44345   1242146.10961
  21835755.5984    -148580.23742
  17786690.7704  -16456002.72847 -12767911.89962
  17725692.5594  -35678825.88747 -27682241.47963
  19817486.4964  -22096494.13946 -17117485.32461
  20638165.4814  -23863737.33745 -15517782.67361
  19270752.8094  -21926812.70546 -16978638.58761
 91  5  1 21  5 29.9880000  0  7G18G15G19G 2G11G16G 6
  19952695.5274   -1733505.69646   1252990.11661
  21821624.5124    -222855.74643
  17782440.0354  -16478342.72247 -12785319.70662
  17714885.5274  -35735619.57747 -27726496.27663
  19815250.3244  -22108231.83246 -17126631.60561
  20634044.2544  -23885356.53045 -15534628.90061
  19257404.9654  -21996937.77146 -17033281.43861
 91  5  1 21  5 44.9880000  0  7G18G15G19G 2G11G16G 6
  19955351.6214   -1719544.40946   1263868.81261
  21807485.4184    -297114.84043
  17778201.8094  -16500613.07647 -12802673.24162
  17704092.1214  -35792336.09247 -27770690.94163
  19813046.0674  -22119832.47846 -17135671.09261
  20629949.0904  -23906870.76345 -15551393.38761
  19244065.4654  -22067051.62046 -17087915.54661
 91  5  1 21  5 59.9880000  0  7G18G15G19G 2G11G16G 6
  19958016.7854   -1705538.82046   1274782.04861
  21793365.3404    -371357.12043        -0.01571
  17773976.9814  -16522813.74846 -12819972.48362
  17693315.1994  -35848975.40547 -27814825.44363
  19810863.8564  -22131296.38146 -17144604.03661
  20625869.9964  -23928280.47944 -15568076.39361
  19230725.9964  -22137154.10646 -17142540.79461
 91  5  1 21  6 14.9880000  0  7G18G15G19G 2G11G16G 6
  19960689.6524   -1691490.75045   1285728.39361
  21779236.4654    -445583.93543    -57838.89461
  17769764.2384  -16544946.34647 -12837218.67962
  17682550.0744  -35905539.08647 -27858901.01663
  19808707.6994  -22142625.44546 -17153431.91061
  20621821.5594  -23949587.17144 -15584679.13061
  19217385.8094  -22207246.87146 -17197158.47661
 91  5  1 21  6 29.9880000  0  7G18G15G19G 2G11G16G 6
  19963370.7854   -1677398.94245   1296708.79461
  21765116.7464    -519793.82443   -115664.58561
  17765566.4654  -16567009.24747 -12854410.56762
  17671801.3324  -35962025.93247 -27902916.71363
  19806580.5744  -22153818.53946 -17162153.84061
  20617786.4424  -23970789.51845 -15601200.53761
  19204049.8484  -22277328.48746 -17251767.46261
 91  5  1 21  6 44.9880000  0  7G18G15G19G 2G11G16G 6
  19966060.0124   -1663267.81245   1307719.83961
  21750998.6604    -593990.27243   -173479.81561
  17761380.0124  -16589006.49147 -12871551.29162
  17661067.7854  -36018439.97847 -27946875.68563
  19804472.2704  -22164880.03646 -17170773.22461
  20613771.1924  -23991892.08145 -15617644.17961
  19190714.4024  -22347402.81046 -17306370.76861
 91  5  1 21  6 59.9880000  0  7G18G15G19G 2G11G16G 6
  19968757.8634   -1649100.93545   1318758.73661
  21736880.2544    -668176.34243   -231286.95161
  17757207.8174  -16610941.40546 -12888643.44562
  17650344.1844  -36074784.63547 -27990780.58863
  19802393.5744  -22175813.55846 -17179292.88561
  20609773.8954  -24012898.32245 -15634012.79661
  19177379.7154  -22417473.20846 -17360971.01861
 91  5  1 21  7 14.9880000  0  7G18G15G19G 2G11G16G 6
  19971458.7464   -1634893.50545   1329829.24961
  21722764.4104    -742346.50143   -289081.71361
  17753043.7384  -16632808.92446 -12905683.09062
  17639639.4654  -36131054.95647 -28034627.56063
  19800336.7314  -22186614.13846 -17187708.96961
  20605794.9344  -24033803.34444 -15650302.49061
  19164048.5354  -22487534.54646 -17415564.21661
 91  5  1 21  7 29.9880000  0  7G18G15G19G 2G11G16G 6
  19974172.6924   -1620644.79445   1340931.91661
  21708651.4734    -816499.21943   -346862.80861
  17748898.4424  -16654607.57146 -12922669.06662
  17628944.5434  -36187249.63447 -28078415.59863
  19798306.6764  -22197280.84046 -17196020.71761
  20601830.7234  -24054606.45843 -15666512.83461
  19150717.2234  -22557585.63546 -17470149.42461
 91  5  1 21  7 44.9880000  0  7G18G15G19G 2G11G16G 6
  19976892.1844   -1606360.10245   1352062.61061
  21694545.4424    -890638.76943   -404633.74661
  17744759.1684  -16676342.13347 -12939605.10062
  17618265.2384  -36243373.67547 -28122148.58863
  19796302.0824  -22207818.74246 -17204232.11061
  20597889.6764  -24075312.86044 -15682647.82161
  19137389.3174  -22627631.13746 -17524730.27461
 91  5  1 21  7 59.9880000  0  7G18G15G19G 2G11G16G 6
  19979616.0744   -1592037.52745   1363222.83161
  21680441.8564    -964762.83543   -462392.57161
  17740637.7624  -16698010.64646 -12956489.67462
  17607596.7234  -36299425.05247 -28165824.96363
  19794321.6064  -22218226.24646 -17212341.89861
  20593978.2234  -24095920.79245 -15698706.07461
  19124062.0204  -22697669.04146 -17579305.20561
 91  5  1 21  8 14.9880000  0  7G18G15G19G 2G11G16G 6
  19982350.2154   -1577672.28845   1374416.31361
  21666340.1374   -1038865.97043   -520135.06461
  17736526.7624  -16719607.92146 -12973318.73762
  17596946.6994  -36355398.68147 -28209440.74563
  19792367.6374  -22228498.56046 -17220346.33461
  20590076.6604  -24116425.80445 -15714684.11361
  19110736.0124  -22767694.32646 -17633870.30461
 91  5  1 21  8 29.9880000  0  7G18G15G19G 2G11G16G 6
  19985090.1844   -1563272.84745   1385636.44561
  21652236.5044   -1112955.98043   -577867.36761
  17732433.2704  -16741142.20446 -12990098.71262
  17586308.5824  -36411302.80947 -28253002.37963
  19790438.0354  -22238643.98846 -17228251.90061
  20586191.8324  -24136836.40744 -15730588.55361
  19097409.9884  -22837714.96746 -17688431.79261
 91  5  1 21  8 44.9880000  0  7G18G15G19G 2G11G16G 6
  19987833.8954   -1548842.26845   1396880.81661
  21638143.8014   -1187035.29243   -635591.30361
  17728342.2854  -16762616.00646 -13006831.56362
  17575681.3324  -36467140.20547 -28296512.01763
  19788530.0514  -22248665.49546 -17236060.90661
  20582318.4024  -24157155.13243 -15746421.45561
  19084084.2464  -22907733.68046 -17742991.77461
 91  5  1 21  8 59.9880000  0  7G18G15G19G 2G11G16G 6
  19990586.9964   -1534371.24245   1408156.72261
  21624048.8714   -1261094.22043   -693299.37661
  17724271.6294  -16784019.76346 -13023509.83262
  17565072.6134  -36522901.54847 -28339962.38363
  19786647.8714  -22258553.91146 -17243766.20461
  20578470.8244  -24177372.83443 -15762175.58561
  19070766.4964  -22977740.91946 -17797542.80561
 91  5  1 21  9 14.9880000  0  7G18G15G19G 2G11G16G 6
  19993346.5434   -1519870.11945   1419456.08261
  21609956.3244   -1335142.11143   -750998.84261
  17720209.3874  -16805363.50447 -13040141.32862
  17554473.6684  -36578596.76947 -28383361.23263
  19784790.3404  -22268319.44646 -17251375.76161
  20574646.8324  -24197499.93743 -15777859.16261
  19057444.3794  -23047746.60346 -17852092.63061
 91  5  1 21  9 29.9880000  0  7G18G15G19G 2G11G16G 6
  19996116.9104   -1505327.92445   1430787.43461
  21595875.5744   -1409167.09743   -808680.45261
  17716160.7464  -16826635.73146 -13056717.11062
  17543890.4814  -36634214.57747 -28426699.75463
  19782954.9964  -22277950.90646 -17258880.83261
  20570844.5434  -24217525.18044 -15793463.37961
  19044123.7544  -23117739.15846 -17906632.22561
 91  5  1 21  9 44.9870000  0  7G18G15G19G 2G11G16G 6
  19998892.5934   -1490746.56745   1442149.29761
  21581792.4134   -1483164.54543   -866340.59461
  17712126.3904  -16847835.64246 -13073236.53562
  17533321.8904  -36689751.90247 -28469975.56963
  19781151.1404  -22287448.52646 -17266281.61261
  20567042.2964  -24237448.10544 -15808987.82861
  19030808.0384  -23187714.54346 -17961158.44961
 91  5  1 21  9 59.9870000  0  7G18G15G19G 2G11G16G 6
  20001672.6944   -1476131.25545   1453537.62061
  21567704.5154   -1557151.07142   -923992.22961
  17708104.3824  -16868972.95246 -13089707.17862
  17522764.1094  -36745223.23447 -28513199.95763
  19779364.9604  -22296820.87446 -17273584.78161
  20563269.6164  -24257278.79344 -15824440.41661
  19017493.6794  -23257689.03846 -18015683.97161
 91  5  1 21 10 14.9870000  0  7G18G15G19G 2G11G16G 6
  20004461.5624   -1461479.01245   1464954.72461
  21553630.6484   -1631117.04943   -981627.80661
  17704096.9214  -16890041.94846 -13106124.59362
  17512224.4524  -36800620.70347 -28556366.78463
  19777607.7344  -22306063.36246 -17280786.76861
  20559511.9764  -24277011.73244 -15839816.85061
  19004179.5854  -23327653.66146 -18070201.80161
 91  5  1 21 10 29.9870000  0  7G18G15G19G 2G11G16G 6
  20007255.6714   -1446795.85245   1476395.91361
  21539562.2024   -1705068.11342  -1039251.87861
  17700099.3904  -16911048.33746 -13122493.22862
  17501692.5234  -36855950.05747 -28599480.54563
  19775871.8824  -22315182.13546 -17287892.34261
  20555783.0074  -24296653.27345 -15855122.01961
  18990866.9134  -23397614.13546 -18124716.39761
 91  5  1 21 10 44.9870000  0  7G18G15G19G 2G11G16G 6
  20010056.0624   -1432079.04745   1487863.31161
  21525493.3194   -1779000.52242  -1096861.31261
  17696111.9684  -16931989.00146 -13138810.64662
  17491179.9444  -36911208.03047 -28642538.67563
  19774160.1404  -22324174.25146 -17294899.23161
  20552064.0464  -24316200.69044 -15870353.89661
  18977553.8514  -23467567.21546 -18179225.22861
 91  5  1 21 10 59.9870000  0  7G18G15G19G 2G11G16G 6
  20012864.0234   -1417322.84545   1499361.41361
  21511428.0464   -1852908.00742  -1154451.33661
  17692141.4374  -16952857.89646 -13155072.13662
  17480676.7184  -36966389.18947 -28685536.95363
  19772478.2024  -22333034.00446 -17301802.98461
  20548354.4054  -24335648.08243 -15885507.78861
  18964246.3434  -23537507.00546 -18233723.70861
 91  5  1 21 11 14.9870000  0  7G18G15G19G 2G11G16G 6
  20015681.7654   -1402531.07345   1510887.23561
  21497367.4844   -1926793.53942  -1212024.22061
  17688182.9294  -16973658.19446 -13171280.17662
  17470192.0234  -37021496.81547 -28728477.93163
  19770815.7964  -22341765.03246 -17308606.42361
  20544677.7024  -24354999.08943 -15900586.71861
  18950940.5464  -23607436.71746 -18288214.33861
 91  5  1 21 11 29.9870000  0  7G18G15G19G 2G11G16G 6
  20018498.8354   -1387715.95845   1522431.24761
  21483313.5694   -2000668.86443  -1269589.22361
  17684238.1484  -16994402.07646 -13187444.25962
  17459716.3354  -37076543.11947 -28771371.13063
  19769174.9054  -22350379.81046 -17315319.26961
  20541008.7344  -24374266.26444 -15915600.23261
  18937629.2964  -23677368.45246 -18342706.54861
 91  5  1 21 11 44.9870000  0  7G18G15G19G 2G11G16G 6
  20021322.9914   -1372873.00645   1533996.94761
  21469253.9994   -2074528.65343  -1327142.09261
  17680301.4844  -17015084.56346 -13203560.50062
  17449253.9994  -37131523.17647 -28814212.70163
  19767557.6014  -22358873.63246 -17321937.88161
  20537362.2964  -24393445.09645 -15930544.83961
  18924323.0304  -23747297.21246 -18397196.43861
 91  5  1 21 11 59.9870000  0  7G18G15G19G 2G11G16G 6
  20024154.1634   -1358000.48845   1545585.69561
  21455205.0624   -2148370.63643  -1384681.09161
  17676377.6714  -17035703.56546 -13219627.27162
  17438804.8194  -37186434.88347 -28857001.02263
  19765963.9054  -22367244.61746 -17328460.77561
  20533725.7734  -24412533.68444 -15945419.14761
  18911019.1794  -23817220.81746 -18451682.29861
 91  5  1 21 12 14.9870000  0  7G18G15G19G 2G11G16G 6
  20026991.3594   -1343100.42645   1557195.88861
  21441152.6164   -2222196.02942  -1442207.13561
  17672465.5384  -17056260.64346 -13235645.79062
  17428368.1714  -37241280.12647 -28899737.54563
  19764395.4054  -22375494.84846 -17334889.55861
  20530107.3824  -24431533.71742 -15960224.51861
  18897713.1094  -23887140.88446 -18506165.41561
 91  5  1 21 12 29.9870000  0  7G18G15G19G 2G11G16G 6
  20029831.3274   -1328168.19245   1568831.16661
  21427112.2494   -2295999.46443  -1499716.09061
  17668567.6714  -17076750.91846 -13251612.25862
  17417946.2104  -37296053.92147 -28942418.39363
  19762853.0464  -22383619.76246 -17341220.70661
  20526513.7184  -24450441.11844 -15974957.70561
  18884411.6244  -23957052.45446 -18560641.89961
 91  5  1 21 12 44.9870000  0  7G18G15G19G 2G11G16G 6
  20032681.2104   -1313203.24645   1580491.92861
  21413069.9444   -2369779.97743  -1557207.13361
  17664680.1404  -17097173.43946 -13267525.92662
  17407534.9604  -37350755.49347 -28985042.96863
  19761323.6324  -22391618.82346 -17347453.79161
  20522935.1164  -24469255.11045 -15989618.02461
  18871106.2804  -24026954.65146 -18615111.09461
 91  5  1 21 12 59.9870000  0  7G18G15G19G 2G11G16G 6
  20035532.9444   -1298210.11545   1592174.63161
  21399036.8664   -2443541.41043  -1614683.35261
  17660806.7884  -17117532.38446 -13283390.06162
  17397140.9684  -37405389.37047 -29027614.78663
  19759826.5464  -22399496.61046 -17353592.37561
  20519364.6404  -24487980.50744 -16004209.33261
  18857805.0234  -24096851.74546 -18669576.30161
 91  5  1 21 13 14.9870000  0  7G18G15G19G 2G11G16G 6
  20038392.8594   -1283184.17845   1603882.91561
  21385001.7734   -2517278.31343
  17656943.6164  -17137822.85946 -13299200.83862
  17386755.8194  -37459950.58147 -29070129.99263
  19758355.3664  -22407248.45346 -17359632.80861
  20515819.7884  -24506612.40044 -16018727.78061
  18844502.6714  -24166738.74446 -18724033.64961
 91  5  1 21 13 29.9870000  0  7G18G15G19G 2G11G16G 6
  20041256.7184   -1268125.60845   1615616.64061
  21370974.5154   -2590989.92043
  17653098.2884  -17158044.59446 -13314958.05762
  17376388.1634  -37514438.81547 -29112588.32063
  19756902.1014  -22414874.27246 -17365575.04161
  20512289.6944  -24525151.10743 -16033173.64561
  18831208.4134  -24236615.18046 -18778482.75561
 91  5  1 21 13 44.9870000  0  7G18G15G19G 2G11G16G 6
  20044130.0304   -1253037.69545   1627373.20261
  21356953.0774   -2664679.28043
  17649261.8744  -17178200.66946 -13330664.11362
  17366032.6714  -37568857.41547 -29154992.39763
  19755473.4844  -22422377.62446 -17371421.86461
  20508783.2804  -24543600.19244 -16047549.65861
  18817913.7654  -24306484.23646 -18832926.12961
 91  5  1 21 13 59.9870000  0  7G18G15G19G 2G11G16G 6
  20047007.9444   -1237919.31345   1639153.54261
  21342936.6324   -2738344.49843
  17645438.2414  -17198289.60746 -13346317.84962
  17355691.0304  -37623205.01547 -29197341.14563
  19754069.1634  -22429757.47646 -17377172.44661
  20505291.2734  -24561958.16245 -16061854.70061
  18804619.5694  -24376344.40746 -18887362.57561
 91  5  1 21 14 14.9870000  0  7G18G15G19G 2G11G16G 6
  20049888.1404   -1222772.21545   1650956.22361
  21328923.1324   -2811986.39143
  17641627.0154  -17218312.38346 -13361920.03562
  17345362.1484  -37677482.75247 -29239635.45563
  19752689.1554  -22437015.01246 -17382827.71261
  20501819.0854  -24580226.49145 -16076089.85561
  18791326.6554  -24446196.76746 -18941792.94361
 91  5  1 21 14 29.9870000  0  7G18G15G19G 2G11G16G 6
  20052774.8044   -1207595.38745   1662782.09461
  21314914.0694   -2885603.83443
  17637834.0934  -17238267.89646 -13377469.81062
  17335045.0694  -37731689.87947 -29281874.74763
  19751332.7184  -22444149.69346 -17388387.24261
  20498354.0854  -24598404.67043 -16090254.75261
  18778037.3904  -24516040.20146 -18996216.34361
 91  5  1 21 14 44.9870000  0  7G18G15G19G 2G11G16G 6
  20055673.1324   -1192388.31345   1674631.52861
  21300912.0074   -2959195.28843
  17634043.7104  -17258155.35246 -13392966.55162
  17324745.2184  -37785825.57047 -29324058.36663
  19750000.8434  -22451161.00046 -17393850.64761
  20494917.3434  -24616492.23444 -16104349.13861
  18764748.4374  -24585873.92646 -19050632.18961
 91  5  1 21 14 59.9870000  0  7G18G15G19G 2G11G16G 6
  20058567.1244   -1177155.81245   1686500.75561
  21286906.7804   -3032764.83643
  17630275.3594  -17277979.40846 -13408413.89262
  17314455.5544  -37839894.26847 -29366189.79063
  19748682.7264  -22458053.53246 -17399221.49761
  20491491.2264  -24634493.67244 -16118376.32161
  18751458.9214  -24655702.25746 -19105043.83461
 91  5  1 21 15 14.9870000  0  7G18G15G19G 2G11G16G 6
  20061478.0544   -1161891.27945   1698394.92861
  21272913.4444   -3106305.22443
  17626515.3984  -17297732.74846 -13423806.13262
  17304179.1484  -37893889.06447 -29408263.62663
  19747396.6484  -22464820.48346 -17404494.48761
  20488077.8744  -24652402.39744 -16132331.27561
  18738173.6014  -24725518.05546 -19159445.71361
 91  5  1 21 15 29.9870000  0  7G18G15G19G 2G11G16G 6
  20064386.6794   -1146592.93745   1710315.47161
  21258920.1554   -3179814.07042
  17622773.7104  -17317413.25446 -13439141.61262
  17293919.6794  -37947808.06947 -29450278.40563
  19746138.6554  -22471460.24546 -17409668.37761
  20484694.9054  -24670216.89644 -16146212.77861
  18724891.1014  -24795319.22746 -19213836.18361
 91  5  1 21 15 44.9870000  0  7G18G15G19G 2G11G16G 6
  20067303.6404   -1131262.73645   1722260.82861
  21244944.6554   -3253292.71543
  17619036.5854  -17337022.92046 -13454421.89362
  17283673.7184  -38001653.13347 -29492235.56763
  19744896.8124  -22477975.02646 -17414744.87761
  20481320.5774  -24687939.19644 -16160022.51961
  18711613.6794  -24865107.58246 -19268216.67261
 91  5  1 21 15 59.9870000  0  7G18G15G19G 2G11G16G 6
  20070229.0304   -1115906.80745   1734226.25461
  21230962.2494   -3326746.43842        -0.38671
  17615320.3194  -17356567.36546 -13469651.35662
  17273441.9684  -38055429.86247 -29534139.48263
  19743675.6324  -22484370.83146 -17419728.65861
  20477958.5074  -24705574.99243 -16173764.82561
  18698333.4524  -24934888.70046 -19322591.51961
 91  5  1 21 16 14.9870000  0  7G18G15G19G 2G11G16G 6
  20073155.0694   -1100528.77045   1746208.88361
  21216992.0384   -3400177.90543    -57219.53561
  17611610.2734  -17376049.60446 -13484832.34862
  17263219.9844  -38109141.51247 -29575992.68663
  19742483.1324  -22490650.89946 -17424622.26761
  20474620.6554  -24723128.24244 -16187442.83661
  18685055.0774  -25004665.58346 -19376963.06761
 91  5  1 21 16 29.9870000  0  7G18G15G19G 2G11G16G 6
  20076086.5154   -1085125.81045   1758210.94361
  21203027.1404   -3473583.83043   -114418.70861
  17607915.1404  -17395466.76046 -13499962.62162
  17253011.7574  -38162785.35447 -29617793.05264
  19741313.1164  -22496812.75946 -17429423.76461
  20471301.2494  -24740596.22145 -16201054.34261
  18671777.5384  -25074435.28246 -19431329.01961
 91  5  1 21 16 44.9870000  0  7G18G15G19G 2G11G16G 6
  20079017.4604   -1069694.55745   1770235.07461
  21189058.6554   -3546960.16643   -171594.86461
  17604234.8904  -17414815.00046 -13515039.19362
  17242816.5774  -38216357.60747 -29659537.63464
  19740161.1484  -22502852.98346 -17434130.48361
  20467999.2884  -24757975.56745 -16214596.83061
  18658501.5934  -25144194.00446 -19485686.42361
 91  5  1 21 16 59.9870000  0  7G18G15G19G 2G11G16G 6
  20081959.6794   -1054239.03345   1782278.07761
  21175101.7574   -3620310.49643   -228750.80061
  17600568.9524  -17434097.77746 -13530064.75662
  17232635.0774  -38269862.08747 -29701229.40564
  19739033.6404  -22508775.44146 -17438745.42261
  20464697.7494  -24775269.98943 -16228073.07561
  18645227.9134  -25213945.34646 -19540038.06861
 91  5  1 21 17 14.9870000  0  7G18G15G19G 2G11G16G 6
  20084902.5694   -1038760.88545   1794338.72061
  21161143.2024   -3693635.67943   -285887.08961
  17596907.3744  -17453316.39446 -13545040.32662
  17222465.5154  -38323300.24347 -29742869.49764
  19737929.4294  -22514581.76346 -17443269.87361
  20461419.4524  -24792481.27243 -16241484.59461
  18631957.1794  -25283690.53046 -19594384.91661
 91  5  1 21 17 29.9870000  0  7G18G15G19G 2G11G16G 6
  20087856.8434   -1023257.84545   1806418.75561
  21147201.1794   -3766932.98843   -343001.67261
  17593262.7804  -17472468.65346 -13559964.18662
  17212311.3194  -38376669.77047 -29784456.11063
  19736846.3984  -22520270.02046 -17447702.33961
  20458166.3594  -24809607.71244 -16254830.04661
  18618685.5544  -25353427.25446 -19648725.17361
 91  5  1 21 17 44.9870000  0  7G18G15G19G 2G11G16G 6
  20090810.4604   -1007734.15345   1818514.88061
  21133256.8744   -3840205.72944   -400097.09461
  17589629.9214  -17491558.24646 -13574839.21662
  17202166.3824  -38429974.68947 -29825992.38364
  19735786.1714  -22525844.45846 -17452046.10561
  20454922.9134  -24826653.55444 -16268112.62761
  18605416.5774  -25423159.24246 -19703061.73961
 91  5  1 21 17 59.9870000  0  7G18G15G19G 2G11G16G 6
  20093770.3984    -992187.52245   1830628.89661
  21119316.7804   -3913450.93043   -457171.10361
  17586011.5384  -17510582.40246 -13589663.25762
  17192035.3904  -38483212.24847 -29867476.16364
  19734747.5934  -22531302.50946 -17456299.17861
  20451695.0694  -24843615.83444 -16281330.12461
  18592148.5234  -25492883.65246 -19757392.39661
 91  5  1 21 18 14.9870000  0  7G18G15G19G 2G11G16G 6
  20096733.5234    -976616.74945   1842761.70761
  21105384.5694   -3986666.64544   -514222.12961
  17582403.4604  -17529539.64746 -13604435.15662
  17181918.4604  -38536381.04847 -29908906.36664
  19733731.1874  -22536643.02946 -17460460.65861
  20448485.2734  -24860493.67744 -16294481.82461
  18578883.5464  -25562598.88946 -19811715.91161
 91  5  1 21 18 29.9870000  0  7G18G15G19G 2G11G16G 6
  20099700.4764    -961026.61745   1854909.61761
  21091453.7264   -4059856.89743   -571253.28661
  17578807.1634  -17548434.09046 -13619158.11662
  17171812.2264  -38589485.39547 -29950286.34564
  19732733.1794  -22541870.70046 -17464534.22461
  20445288.1944  -24877291.61944 -16307571.19461
  18565618.3274  -25632309.26546 -19866035.63261
 91  5  1 21 18 44.9870000  0  7G18G15G19G 2G11G16G 6
  20102670.9764    -945418.25845   1867071.72161
  21077533.1244   -4133022.22944   -628265.04161
  17575225.3354  -17567266.61346 -13633832.83662
  17161720.4914  -38642526.20747 -29991616.81664
  19731761.5464  -22546986.61346 -17468520.69161
  20442106.2494  -24894010.76644 -16320599.27361
  18552352.4374  -25702015.54046 -19920352.16461
 91  5  1 21 18 59.9870000  0  7G18G15G19G 2G11G16G 6
  20105647.2024    -929787.03945   1879251.62861
  21063616.2494   -4206157.51043   -685253.36761
  17571653.7884  -17586032.57146 -13648455.68062
  17151640.0694  -38695498.94647 -30032894.24564
  19730811.3274  -22551986.46046 -17472416.73561
  20438944.4764  -24910647.15344 -16333562.80461
  18539087.3984  -25771713.00246 -19974661.83361
 91  5  1 21 19 14.9870000  0  7G18G15G19G 2G11G16G 6
  20108630.2344    -914130.58145   1891451.22361
  21049703.3514   -4279259.84843   -742216.05961
  17568095.5234  -17604729.24146 -13663024.53662
  17141572.4054  -38748401.02947 -30074116.61864
  19729881.1014  -22556867.84746 -17476220.45061
  20435793.4214  -24927198.08244 -16346459.78761
  18525825.8194  -25841398.74346 -20028962.36461
 91  5  1 21 19 29.9870000  0  7G18G15G19G 2G11G16G 6
  20111609.9134    -898451.29645   1903668.57961
  21035800.9604   -4352330.32944   -799153.88361
  17564552.4604  -17623358.40446 -13677540.78862
  17131518.7104  -38801234.15747 -30115285.25564
  19728975.6714  -22561632.91246 -17479933.53261
  20432662.3904  -24943665.70344 -16359291.83661
  18512570.8044  -25911074.59546 -20083255.19361
 91  5  1 21 19 44.9860000  0  7G18G15G19G 2G11G16G 6
  20114599.4634    -882744.39345   1915907.50361
  21021905.0724   -4425358.28544   -856058.60561
  17561019.5574  -17641912.83946 -13691998.80962
  17121479.2764  -38853988.98647 -30156392.89564
  19728093.2834  -22566275.75746 -17483551.36761
  20429544.5334  -24960043.32744 -16372053.70161
  18499315.3694  -25980729.91146 -20137532.02461
 91  5  1 21 19 59.9860000  0  7G18G15G19G 2G11G16G 6
  20117590.8694    -867005.44445   1928171.38761
  21008011.8614   -4498349.55943   -912934.78561
  17557505.0414  -17660392.12146 -13706398.26862
  17111455.4474  -38906669.73847 -30197442.80564
  19727235.1114  -22570794.35146 -17487072.39961
  20426443.8544  -24976330.74444 -16384745.33561
  18486061.7444  -26050370.92446 -20191797.71461
 91  5  1 21 20 14.9860000  0  7G18G15G19G 2G11G16G 6
  20120594.0414    -851242.44745   1940453.97161
  20994131.3074   -4571306.18043   -969783.88561
  17554000.9404  -17678801.66646 -13720743.38862
  17101443.6044  -38959279.96247 -30238437.75764
  19726393.1514  -22575195.47246 -17490501.87661
  20423359.9244  -24992533.96844 -16397371.33361
  18472812.4164  -26119999.78846 -20246053.92261
 91  5  1 21 20 29.9860000  0  7G18G15G19G 2G11G16G 6
  20123600.0334    -835450.80045   1952758.92661
  20980253.7604   -4644223.02343  -1026602.02761
  17550511.6354  -17697136.91746 -13735030.61762
  17091444.9014  -39011815.08447 -30279374.19264
  19725577.7764  -22579474.76446 -17493836.42761
  20420293.4324  -25008648.55544 -16409928.29961
  18459566.9864  -26189611.68246 -20300296.91761
 91  5  1 21 20 44.9860000  0  7G18G15G19G 2G11G16G 6
  20126612.5414    -819627.10445   1965088.80761
  20966387.6974   -4717095.76243  -1083385.78361
  17547034.2834  -17715393.93246 -13749256.88562
  17081462.6974  -39064271.16547 -30320249.03064
  19724790.3854  -22583628.69146 -17497073.30561
  20417247.7364  -25024671.02944 -16422413.46961
  18446324.6824  -26259202.74546 -20354523.68461
 91  5  1 21 20 59.9860000  0  7G18G15G19G 2G11G16G 6
  20129625.7524    -803774.12545   1977441.52861
  20952527.9634   -4789926.43343  -1140136.78161
  17543579.2764  -17733574.89246 -13763423.88662
  17071496.1354  -39116650.73647 -30361064.25664
  19724023.6114  -22587659.98246 -17500214.61561
  20414211.3304  -25040604.10544 -16434828.91761
  18433082.8224  -26328775.19046 -20408735.92761
 91  5  1 21 21 14.9860000  0  7G18G15G19G 2G11G16G 6
  20132649.3384    -787893.09845   1989816.07361
  20938678.6584   -4862715.73044  -1196855.52661
  17540130.9014  -17751680.79046 -13777532.40062
  17061543.5264  -39168955.02247 -30401820.81464
  19723281.2054  -22591569.95346 -17503261.38661
  20411199.3694  -25056449.22044 -16447175.91061
  18419848.1434  -26398329.94346 -20462934.39061
 91  5  1 21 21 29.9860000  0  7G18G15G19G 2G11G16G 6
  20135677.4554    -771982.20545   2002213.92761
  20924831.0724   -4935461.15443  -1253540.08261
  17536702.0104  -17769709.61546 -13791580.86362
  17051604.7364  -39221181.73348 -30442516.92564
  19722557.2604  -22595356.79646 -17506212.21661
  20408204.0494  -25072204.59444 -16459452.99361
  18406615.3544  -26467864.85246 -20517117.39761
 91  5  1 21 21 44.9860000  0  7G18G15G19G 2G11G16G 6
  20138710.2524    -756050.88945   2014627.69561
  20910997.1904   -5008171.19643  -1310197.09361
  17533283.6514  -17787670.23346 -13805576.17362
  17041679.0334  -39273339.82848 -30483159.56864
  19721858.7524  -22599029.76546 -17509074.31361
  20405220.3854  -25087879.42344 -16471667.25261
  18393384.6824  -26537388.80146 -20571291.85061
 91  5  1 21 21 59.9860000  0  7G18G15G19G 2G11G16G 6
  20141745.4634    -740094.61045   2027060.91161
  20897169.3544   -5080840.68043  -1366822.48261
  17529878.9404  -17805557.85746 -13819514.60462
  17031766.7294  -39325424.71247 -30523745.16764
  19721183.1114  -22602584.55546 -17511844.30961
  20402253.5494  -25103469.45543 -16483815.48061
  18380157.2604  -26606896.89146 -20625453.95461
 91  5  1 21 22 14.9860000  0  7G18G15G19G 2G11G16G 6
  20144787.9084    -724115.71445   2039511.72161
  20883349.9794   -5153471.39243  -1423417.62461
  17526486.4554  -17823374.46646 -13833397.70062
  17021869.8854  -39377438.48048 -30564275.34964
  19720529.0264  -22606023.45146 -17514524.01861
  20399297.1434  -25118976.87443 -16495899.27361
  18366934.5494  -26676391.01746 -20679605.17461
 91  5  1 21 22 29.9860000  0  7G18G15G19G 2G11G16G 6
  20147830.5804    -708115.38945   2051979.26961
  20869534.9164   -5226063.96744  -1479983.10461
  17523111.0104  -17841120.94646 -13847226.14962
  17011987.0804  -39429382.44548 -30604751.13764
  19719894.4794  -22609347.79546 -17517114.44461
  20396360.7684  -25134403.12543 -16507919.83961
  18353711.3464  -26745872.09046 -20733746.21961
 91  5  1 21 22 44.9860000  0  7G18G15G19G 2G11G16G 6
  20150882.9794    -692086.09845   2064469.35761
  20855731.5184   -5298610.17843  -1536512.42161
  17519749.7764  -17858789.76146 -13860994.07862
  17002115.2994  -39481248.76748 -30645166.42664
  19719288.6044  -22612550.13546 -17519609.82961
  20393442.0414  -25149740.69043 -16519871.31661
  18340494.9864  -26815332.36846 -20787871.06161
 91  5  1 21 22 59.9860000  0  7G18G15G19G 2G11G16G 6
  20153937.0494    -676034.31245   2076976.98161
  20841930.4084   -5371115.92043  -1593010.22461
  17516400.8074  -17876386.83446 -13874706.10962
  16992258.1274  -39533043.54748 -30685525.96764
  19718701.4084  -22615636.87946 -17522015.12461
  20390543.6824  -25164996.16245 -16531758.85661
  18327279.2764  -26884777.80346 -20841984.34161
 91  5  1 21 23 14.9860000  0  7G18G15G19G 2G11G16G 6
  20156997.2134    -659958.97545   2089502.95861
  20828139.1904   -5443579.07644  -1649474.82861
  17513065.1584  -17893910.38046 -13888360.84562
  16982417.2294  -39584765.24448 -30725828.56064
  19718135.6664  -22618606.70546 -17524329.32261
  20387656.8384  -25180168.04144 -16543581.16861
  18314067.4474  -26954206.65946 -20896084.70361
 91  5  1 21 23 29.9860000  0  7G18G15G19G 2G11G16G 6
  20160062.3544    -643858.68945   2102048.36561
  20814362.4794   -5515997.76343  -1705904.76061
  17509745.1664  -17911358.91446 -13901957.12862
  16972587.8074  -39636412.51448 -30766073.16164
  19717591.6194  -22621458.35546 -17526551.43261
  20384775.3694  -25195255.42043 -16555337.73561
  18300859.5024  -27023617.24746 -20950170.83261
 91  5  1 21 23 44.9860000  0  7G18G15G19G 2G11G16G 6
  20163128.5494    -627735.54045   2114611.58661
  20800587.9864   -5588373.39743  -1762301.19161
  17506440.5104  -17928734.25046 -13915496.38062
  16962776.0104  -39687987.25648 -30806261.24364
  19717069.6664  -22624194.11646 -17528683.22661
  20381927.8384  -25210260.37643 -16567030.00561
  18287655.2834  -27093011.36146 -21004244.11961
 91  5  1 21 23 59.9860000  0  7G18G15G19G 2G11G16G 6
  20166200.6824    -611588.16945   2127193.67661
  20786822.6354   -5660704.06943  -1818662.53261
  17503148.5414  -17946034.63246 -13928977.22162
  16952973.1904  -39739487.71448 -30846391.44964
  19716571.4714  -22626812.66146 -17530723.68461
  20379089.3224  -25225181.33144 -16578656.88061
  18274450.3694  -27162387.36446 -21058303.29261
 91  5  1 21 24 14.9860000  0  7G18G15G19G 2G11G16G 6
  20169278.0654    -595419.60645   2139792.31761
  20773067.7994   -5732991.86343  -1874990.50161
  17499869.1274  -17963262.57946 -13942401.61862
  16943187.0494  -39790916.72448 -30886465.97864
  19716097.6664  -22629316.80746 -17532675.02261
  20376270.4404  -25240021.33644 -16590220.64761
  18261253.4554  -27231747.65846 -21112350.23661
 91  5  1 21 24 29.9860000  0  7G18G15G19G 2G11G16G 6
  20172356.7914    -579235.08545   2152403.35661
  20759320.4014   -5805241.31743  -1931288.61661
  17496603.5104  -17980423.20346 -13955773.56062
  16933414.8074  -39842279.36748 -30926488.79064
  19715640.0184  -22631711.94946 -17534541.41261
  20373454.3934  -25254785.60044 -16601725.34661
  18248056.9634  -27301097.14746 -21166388.75161
 91  5  1 21 24 44.9860000  0  7G18G15G19G 2G11G16G 6
  20175439.3464    -563036.44545   2165025.38261
  20745573.8774   -5877453.95343  -1987557.97261
  17493351.7524  -17997517.98246 -13969094.19262
  16923652.0184  -39893577.21048 -30966461.11264
  19715202.5654  -22633999.85346 -17536324.24361
  20370658.5804  -25269476.28242 -16613172.70361
  18234862.6354  -27370437.23346 -21220419.93861
 91  5  1 21 24 59.9860000  0  7G18G15G19G 2G11G16G 6
  20178524.9244    -546820.62245   2177660.84361
  20731838.7214   -5949625.84543  -2043795.64461
  17490112.7294  -18014543.18546 -13982360.60962
  16913903.8774  -39944806.71548 -31006380.18464
  19714792.0264  -22636177.49246 -17538021.14961
  20367879.8074  -25284090.09343 -16624560.24561
  18221668.4634  -27439764.46546 -21274441.12161
 91  5  1 21 25 14.9860000  0  7G18G15G19G 2G11G16G 6
  20181613.3774    -530585.21345   2190311.54761
  20718115.9794   -6021753.66343  -2099998.94561
  17486884.7134  -18031496.21946 -13995570.79162
  16904166.8384  -39995965.41747 -31046244.08864
  19714397.7444  -22638242.41546 -17539630.21761
  20365110.2604  -25298624.89743 -16635886.23761
  18208479.4404  -27509075.99846 -21328450.06861
 91  5  1 21 25 29.9860000  0  7G18G15G19G 2G11G16G 6
  20184707.2764    -514336.44045   2202972.64761
  20704394.0414   -6093843.31543  -2156172.51461
  17483671.2764  -18048383.31146 -14008729.59262
  16894443.7994  -40047059.59848 -31086057.70964
  19714026.1274  -22640201.19246 -17541156.59261
  20362362.3774  -25313086.99444 -16647155.54961
  18195291.8304  -27578377.92246 -21382451.52461
 91  5  1 21 25 44.9860000  0  7G18G15G19G 2G11G16G 6
  20187804.0964    -498069.38045   2215648.03361
  20690689.5574   -6165888.79743  -2212311.71061
  17480470.5724  -18065198.78246 -14021832.58062
  16884734.8934  -40098083.79748 -31125816.79664
  19713672.6044  -22642048.58846 -17542596.18361
  20359627.2214  -25327471.35944 -16658364.25861
  18182104.5964  -27647664.51546 -21436441.03561
 91  5  1 21 25 59.9860000  0  7G18G15G19G 2G11G16G 6
  20190902.3384    -481789.64345   2228333.29861
  20676990.5804   -6237895.41843  -2268420.56461
  17477283.1274  -18081947.94946 -14034883.90362
  16875036.8854  -40149043.52247 -31165525.65764
  19713340.5104  -22643790.32546 -17543953.42461
  20356904.0104  -25341783.57244 -16669516.71961
  18168921.0184  -27716941.20346 -21490422.82561
 91  5  1 21 26 14.9860000  0  7G18G15G19G 2G11G16G 6
  20194003.2834    -465488.99745   2241034.88161
  20663291.5264   -6309854.08643  -2324492.09661
  17474115.1354  -18098622.37746 -14047876.99662
  16865355.1974  -40199930.06948 -31205177.48764
  19713031.3154  -22645418.19746 -17545221.94161
  20354196.4014  -25356015.28944 -16680606.44061
  18155741.2134  -27786199.11046 -21544389.98961
 91  5  1 21 26 29.9860000  0  7G18G15G19G 2G11G16G 6
  20197110.4014    -449168.77645   2253751.67661
  20649605.5494   -6381765.45343  -2380526.76861
  17470953.7604  -18115223.17746 -14060812.70762
  16855685.1904  -40250744.73448 -31244773.31064
  19712744.0724  -22646933.63246 -17546402.84561
  20351501.3934  -25370168.25444 -16691634.82361
  18142566.6514  -27855439.42946 -21598343.43461
 91  5  1 21 26 44.9860000  0  7G18G15G19G 2G11G16G 6
  20200220.2994    -432828.58245   2266484.03561
  20635941.4164   -6453628.64744  -2436523.88761
  17467806.4164  -18131749.55946 -14073690.42862
  16846029.1434  -40301486.81148 -31284312.56964
  19712478.8934  -22648336.18546 -17547495.77961
  20348824.9474  -25384242.18744 -16702601.70061
  18129396.4864  -27924661.32546 -21652282.53561
 91  5  1 21 26 59.9860000  0  7G18G15G19G 2G11G16G 6
  20203337.9794    -416473.20245   2279228.22561
  20622265.3544   -6525447.58043  -2492486.52761
  17464679.5724  -18148205.93546 -14086513.60562
  16836385.8464  -40352160.96248 -31323798.89863
  19712230.9554  -22649630.78146 -17548504.59961
  20346152.6114  -25398241.82544 -16713510.67461
  18116224.7914  -27993869.13046 -21706210.65061
 91  5  1 21 27 14.9860000  0  7G18G15G19G 2G11G16G 6
  20206452.1824    -400098.53545   2291987.44361
  20608607.4634   -6597217.89743  -2548411.31861
  17461557.6114  -18164587.90346 -14099278.80062
  16826757.8854  -40402763.08048 -31363229.09763
  19712008.9404  -22650813.54346 -17549426.27761
  20343508.1744  -25412163.24544 -16724358.66361
  18103059.4864  -28063058.53546 -21760124.42461
 91  5  1 21 27 29.9860000  0  7G18G15G19G 2G11G16G 6
  20209569.5494    -383703.20744   2304762.75061
  20594963.3694   -6668937.10043  -2604296.22361
  17458457.4244  -18180893.80646 -14111984.72662
  16817140.7914  -40453291.53048 -31402601.89563
  19711801.7604  -22651883.01546 -17550259.66261
  20340871.6664  -25426005.13743 -16735144.65361
  18089897.3074  -28132227.74446 -21814022.46461
 91  5  1 21 27 44.9860000  0  7G18G15G19G 2G11G16G 6
  20212692.9864    -367293.44045   2317549.29961
  20581322.6044   -6740610.49943  -2660145.49861
  17455367.1904  -18197129.27746 -14124635.76462
  16807538.6044  -40503752.07048 -31441921.77063
  19711619.0574  -22652845.19346 -17551009.44961
  20338261.5264  -25439773.33944 -16745873.28261
  18076739.2134  -28201382.28146 -21867909.06761
 91  5  1 21 27 59.9860000  0  7G18G15G19G 2G11G16G 6
  20215819.5414    -350870.83245   2330345.87261
  20567691.9014   -6812239.25143  -2715959.95461
  17452293.8224  -18213295.55146 -14137232.88162
  16797949.1584  -40554146.04148 -31481189.78063
  19711456.1354  -22653701.78146 -17551676.97061
  20335652.5024  -25453469.65244 -16756545.84061
  18063582.6114  -28270523.27346 -21921785.11961
 91  5  1 21 28 14.9860000  0  7G18G15G19G 2G11G16G 6
  20218948.2134    -334436.18045   2343151.82761
  20554071.5264   -6883823.31043  -2771739.58361
  17449225.5884  -18229393.12146 -14149776.47562
  16788372.2444  -40604473.96648 -31520406.31963
  19711312.3154  -22654453.48346 -17552262.75761
  20333052.1114  -25467094.63343 -16767162.87561
  18050425.3774  -28339651.14946 -21975650.95461
 91  5  1 21 28 29.9860000  0  7G18G15G19G 2G11G16G 6
  20222074.9404    -317988.03345   2355968.31261
  20540450.7684   -6955361.04242  -2827483.16061
  17446179.4714  -18245420.57546 -14162265.42562
  16778809.3384  -40654734.46248 -31559570.31863
  19711188.5884  -22655099.24346 -17552765.99761
  20330474.4554  -25480647.59744 -16777723.74161
  18037274.3694  -28408764.34146 -22029505.34261
 91  5  1 21 28 44.9860000  0  7G18G15G19G 2G11G16G 6
  20225206.3934    -301529.58045   2368792.82161
  20526851.2604   -7026854.62842  -2883192.31361
  17443140.0494  -18261380.43846 -14174701.70862
  16769256.2524  -40704930.25848 -31598683.90563
  19711086.2444  -22655641.93846 -17553188.91761
  20327910.2054  -25494131.29243 -16788230.64961
  18024125.4634  -28477865.36346 -22083350.25561
 91  5  1 21 28 59.9860000  0  7G18G15G19G 2G11G16G 6
  20228340.4164    -285061.54145   2381624.81161
  20513253.8074   -7098303.99643  -2938867.00261
  17440113.7684  -18277273.23246 -14187085.72562
  16759715.9634  -40755061.69948 -31637747.34863
  19711002.5574  -22656082.40146 -17553532.17761
  20325363.5804  -25507546.34044 -16798684.04261
  18010977.4404  -28546954.61246 -22137185.99061
 91  5  1 21 29 14.9860000  0  7G18G15G19G 2G11G16G 6
  20231475.3544    -268590.67844   2394458.99061
  20499665.1974   -7169715.32942  -2994512.06561
  17437102.4164  -18293105.31346 -14199422.44162
  16750187.9714  -40805135.49548 -31676765.86963
  19710938.0574  -22656427.43546 -17553801.06361
  20322820.5264  -25520899.67844 -16809089.32961
  17997828.3934  -28616038.36346 -22191017.44461
 91  5  1 21 29 29.9860000  0  7G18G15G19G 2G11G16G 6
  20234608.8224    -252112.74844   2407298.69161
  20486079.6584   -7241083.85442  -3050123.78861
  17434105.6824  -18308872.19946 -14211708.35362
  16740670.9714  -40855147.22248 -31715736.02463
  19710891.2054  -22656673.19046 -17553992.61361
  20320287.2684  -25534187.20844 -16819443.38261
  17984687.1904  -28685112.08346 -22244841.07661
 91  5  1 21 29 44.9850000  0  7G18G15G19G 2G11G16G 6
  20237745.9974    -235628.31243   2420143.44361
  20472515.5914   -7312403.56942  -3105697.44961
  17431113.2944  -18324571.86546 -14223941.89262
  16731164.9034  -40905092.78648 -31754654.62963
  19710862.7244  -22656818.94146
  20317771.8724  -25547407.89944 -16829745.33361
  17971545.6464  -28754170.25346 -22298652.59161
 91  5  1 21 29 59.9850000  0  7G18G15G19G 2G11G16G 6
  20240881.0834    -219139.63743   2432991.48561
  20458948.5604   -7383688.00043  -3161243.63061
  17428138.3494  -18340210.56146 -14236127.90462
  16721673.6774  -40954983.11948 -31793530.18963
  19710855.0054  -22656869.08146
  20315270.5994  -25560567.82344 -16839999.98161
  17958401.9354  -28823226.02346 -22352462.23461
 91  5  1 21 30 14.9850000  0  7G18G15G19G 2G11G16G 6
  20244022.1934    -202643.47842   2445845.34661
  20445389.3414   -7454927.12043  -3216754.51861
  17425174.2324  -18355782.58446 -14248261.97362
  16712189.0284  -41004810.31147 -31832356.55563
  19710866.5054  -22656819.32546
  20312783.4504  -25573661.52744 -16850203.05561
  17945263.9894  -28892270.02046 -22406262.70562
 91  5  1 21 30 29.9850000  0  7G18G15G19G 2G11G16G 6
  20247165.2784    -186138.20643   2458706.31761
  20431844.8724   -7526118.84443  -3272228.47561
  17422225.4114  -18371286.08246 -14260342.65162
  16702723.1614  -41054572.78348 -31871132.48563
  19710890.3724  -22656668.26446
  20310302.9504  -25586687.78544 -16860353.49461
  17932129.5914  -28961300.41046 -22460052.58161
 91  5  1 21 30 44.9850000  0  7G18G15G19G 2G11G16G 6
  20250308.7164    -169623.67743   2471574.52061
  20418308.0214   -7597262.29843  -3327664.81661
  17419289.5834  -18386720.43746 -14272369.44762
  16693262.9424  -41104269.99547 -31909857.56963
  19710941.2864  -22656415.73846
  20307829.2714  -25599646.26043 -16870451.11761
  17918998.1384  -29030316.49046 -22513831.29862
 91  5  1 21 30 59.9850000  0  7G18G15G19G 2G11G16G 6
  20253452.3964    -153103.05644   2484447.45361
  20404773.4194   -7668359.74543  -3383065.29561
  17416361.8574  -18402088.42246 -14284344.52362
  16683820.0134  -41153904.67548 -31948533.91963
  19711005.9194  -22656064.76146
  20305378.2244  -25612540.30944 -16880498.57661
  17905863.8574  -29099320.92046 -22567600.93661
 91  5  1 21 31 14.9850000  0  7G18G15G19G 2G11G16G 6
  20256598.4114    -136577.12744   2497324.54161
  20391254.8494   -7739411.19943  -3438429.92861
  17413449.9274  -18417390.49646 -14296268.24562
  16674387.7004  -41203477.35948 -31987161.96963
  19711097.0364  -22655616.15946        -0.24971
  20302938.7554  -25625370.43444 -16890496.15461
  17892735.0284  -29168313.98346 -22621361.71961
 91  5  1 21 31 29.9850000  0  7G18G15G19G 2G11G16G 6
  20259744.8184    -120047.14045   2510204.80061
  20377741.2394   -7810417.46243  -3493759.39261
  17410552.0994  -18432627.92146 -14308141.58962
  16664961.7714  -41252989.33447 -32025742.70963
  19711193.5754  -22655071.46146       424.14761
  20300511.3644  -25638138.29043 -16900445.27861
  17879610.7004  -29237296.77246 -22675114.49762
 91  5  1 21 31 44.9850000  0  7G18G15G19G 2G11G16G 6
  20262891.4034    -103516.06245   2523085.90761
  20364240.1464   -7881380.79543  -3549055.35361
  17407663.0054  -18447803.08546 -14319966.41362
  16655554.6224  -41302443.11448 -32064278.10263
  19711317.4744  -22654433.51146       921.22061
  20298091.6074  -25650846.82143 -16910348.20061
  17866483.2474  -29306271.66346 -22728861.12462
 91  5  1 21 31 59.9850000  0  7G18G15G19G 2G11G16G 6
  20266037.3884     -86978.29745   2535972.22261
  20350739.4824   -7952294.79643  -3604312.91661
  17404792.1224  -18462909.86346 -14331737.95562
  16646151.6534  -41351832.92847 -32102763.65363
  19711457.0444  -22653696.69146      1495.32561
  20295686.2004  -25663490.59144 -16920200.66961
  17853360.8414  -29375232.56546 -22782596.85162
 91  5  1 21 32 14.9850000  0  7G18G15G19G 2G11G16G 6
  20269185.2084     -70429.19345   2548867.34961
  20337258.3964   -8023154.19343  -3659527.88261
  17401929.7944  -18477943.28946 -14343452.33862
  16636770.8964  -41401153.83448 -32141195.50663
  19711619.7474  -22652856.44446      2150.02661
  20293293.4894  -25676064.54345 -16929998.63161
  17840242.8254  -29444174.38646 -22836317.70962
 91  5  1 21 32 29.9850000  0  7G18G15G19G 2G11G16G 6
  20272335.2004     -53874.32445   2561766.99261
  20323789.3184   -8093963.93443  -3714704.19361
  17399083.4824  -18492908.87446 -14355113.86362
  16627393.1384  -41450411.28647 -32179577.91963
  19711796.5994  -22651918.49246      2880.85161
  20290910.9354  -25688574.64344 -16939746.80961
  17827125.9744  -29513102.41946 -22890027.82262
 91  5  1 21 32 44.9850000  0  7G18G15G19G 2G11G16G 6
  20275484.7784     -37317.50545   2574668.15561
  20310318.0134   -8164727.14343  -3769844.21861
  17396245.5914  -18507810.01046 -14366725.16062
  16618035.2634  -41499608.86148 -32217913.66863
  19711992.4434  -22650886.52846      3684.92661
  20288545.4894  -25701024.75343 -16949448.28661
  17814011.5054  -29582020.05346 -22943729.83662
 91  5  1 21 32 59.9850000  0  7G18G15G19G 2G11G16G 6
  20278637.8184     -20756.62545   2587572.48661
  20296863.5444   -8235440.94343  -3824945.75161
  17393422.9354  -18522644.23946 -14378284.32862
  16608683.3964  -41548744.08948 -32256200.84763
  19712208.9354  -22649758.57446      4563.80561
  20286183.4894  -25713412.76542 -16959101.52161
  17800898.5604  -29650924.69846 -22997421.72062
 91  5  1 21 33 14.9850000  0  7G18G15G19G 2G11G16G 6
  20281786.7714      -4193.80245   2600478.30561
  20283414.1934   -8306106.65243  -3880009.81961
  17390614.5214  -18537413.42746 -14389792.80962
  16599344.4194  -41597819.10547 -32294441.09563
  19712441.7324  -22648536.85546      5515.74461
  20283842.6224  -25725740.78745 -16968707.93861
  17787787.3414  -29719818.17146 -23051104.89862
 91  5  1 21 33 29.9850000  0  7G18G15G19G 2G11G16G 6
  20284940.6384      12370.08345   2613384.98661
  20269974.7394   -8376724.53944  -3935036.59461
  17387819.1534  -18552118.13646 -14401251.05362
  16590016.7944  -41646834.45947 -32332634.86163
  19712686.8574  -22647222.25146      6540.06961
  20281507.5754  -25738009.91145 -16978268.41061
  17774677.1614  -29788700.79846 -23104779.63662
 91  5  1 21 33 44.9850000  0  7G18G15G19G 2G11G16G 6
  20288095.9664      28934.67745   2626292.18961
  20256543.9274   -8447294.59143  -3990026.14861
  17385027.4274  -18566758.48446 -14412659.15262
  16580701.7004  -41695790.54847 -32370782.44363
  19712959.8804  -22645815.22846      7636.40561
  20279175.5754  -25750220.42943 -16987783.18961
  17761572.6224  -29857572.67546 -23158445.99262
 91  5  1 21 33 59.9850000  0  7G18G15G19G 2G11G16G 6
  20291247.8184      45508.25645   2639206.40161
  20243127.3334   -8517807.68444  -4044971.28361
  17382256.9354  -18581325.73046 -14424010.28362
  16571398.7164  -41744678.51148 -32408876.93863
  19713245.2324  -22644307.43346      8811.27561
  20276866.6384  -25762364.18042 -16997245.95561
  17748470.2634  -29926424.97746 -23212097.10062
 91  5  1 21 34 14.9850000  0  7G18G15G19G 2G11G16G 6
  20294405.5834      62094.50445   2652130.49161
  20229725.6854   -8588259.96944  -4099869.00561
  17379499.3334  -18595815.99646 -14435301.42762
  16562107.8494  -41793494.77347 -32446915.56963
  19713554.9434  -22642695.51946     10067.26461
  20274574.0284  -25774437.89844 -17006654.20761
  17735372.1384  -29995253.76046 -23265729.88762
 91  5  1 21 34 29.9850000  0  7G18G15G19G 2G11G16G 6
  20297567.6934      78693.65845   2665064.64161
  20216327.9824   -8658649.89044  -4154718.15961
  17376757.2164  -18610228.42846 -14446531.92462
  16552833.4974  -41842238.57548 -32484897.73763
  19713875.3804  -22640979.00346     11404.75861
  20272283.3724  -25786440.85143 -17016007.26361
  17722279.7944  -30064058.10446 -23319343.62762
 91  5  1 21 34 44.9850000  0  7G18G15G19G 2G11G16G 6
  20300726.7244      95304.79345   2678008.13061
  20202942.1384   -8728978.26243  -4209519.35961
  17374028.7944  -18624564.07846 -14457702.59062
  16543569.7084  -41890911.05147 -32522824.32563
  19714225.2554  -22639159.27246     12822.67961
  20270017.1074  -25798374.68544 -17025306.48961
  17709190.1534  -30132838.95246 -23372939.06062
 91  5  1 21 34 59.9850000  0  7G18G15G19G 2G11G16G 6
  20303888.1614     111927.35745   2690960.52061
  20189573.1464   -8799244.27544  -4264271.96361
  17371315.4744  -18638822.63246 -14468813.18662
  16534324.1534  -41939511.96548 -32560695.15063
  19714592.0054  -22637236.55146     14320.84061
  20267759.1304  -25810239.49044 -17034551.96261
  17696107.0834  -30201595.97746 -23426515.93262
 91  5  1 21 35 14.9850000  0  7G18G15G19G 2G11G16G 6
  20307052.5994     128558.06345   2703919.24361
  20176215.7944   -8869450.62344  -4318978.03561
  17368616.3414  -18653007.12646 -14479866.06562
  16525085.5364  -41988044.40948 -32598512.62463
  19714975.4664  -22635214.15746     15896.68861
  20265514.9434  -25822038.67744 -17043746.24761
  17683026.0994  -30270331.92046 -23480076.37662
 91  5  1 21 35 29.9850000  0  7G18G15G19G 2G11G16G 6
  20310222.4434     145198.16945   2716885.32261
  20162864.4434   -8939595.72044  -4373636.42161
  17365932.1144  -18667116.18746 -14490860.16662
  16515867.2244  -42036507.21948 -32636275.83763
  19715379.6074  -22633090.88746     17551.12761
  20263283.4894  -25833771.04843 -17052888.48461
  17669952.7634  -30339045.38546 -23533619.29862
 91  5  1 21 35 44.9850000  0  7G18G15G19G 2G11G16G 6
  20313388.7164     161845.77644   2729857.22661
  20149530.9744   -9009680.54544  -4428247.80161
  17363260.9894  -18681151.54646 -14501796.83762
  16506654.6224  -42084902.07448 -32673986.10563
  19715802.6534  -22630868.67246     19282.68961
  20261064.0364  -25845438.42643 -17061980.07461
  17656880.7474  -30407737.82746 -23587145.84662
 91  5  1 21 35 59.9850000  0  7G18G15G19G 2G11G16G 6
  20316558.5754     178497.97244   2742832.72561
  20136204.3884   -9079707.38844  -4482814.05961
  17360603.5134  -18695115.62446 -14512677.96862
  16497459.8254  -42133231.64048 -32711645.48663
  19716241.9504  -22628550.59446     21088.92861
  20258847.3884  -25857043.99343 -17071023.51361
  17643812.9584  -30476411.79046 -23640657.99162
 91  5  1 21 36 14.9850000  0  7G18G15G19G 2G11G16G 6
  20319729.3884     195157.68244   2755814.08961
  20122891.4974   -9149672.88644  -4537332.42461
  17357959.0914  -18709005.25046 -14523501.08262
  16488275.4194  -42181492.72048 -32749251.51563
  19716701.0754  -22626133.81846     22972.07961
  20256660.3494  -25868585.00544 -17080016.62261
  17630747.9744  -30545063.78446 -23694153.02162
 91  5  1 21 36 29.9850000  0  7G18G15G19G 2G11G16G 6
  20322903.3884     211830.54843   2768805.66761
  20109591.6074   -9219570.80644  -4591798.23261
  17355332.7714  -18722814.56046 -14534261.61462
  16479104.8964  -42229679.75348 -32786799.83563
  19717182.5684  -22623612.93546     24936.35461
  20254473.4664  -25880055.81542 -17088955.05261
  17617689.7164  -30613688.03146 -23747626.43162
 91  5  1 21 36 44.9850000  0  7G18G15G19G 2G11G16G 6
  20326077.1304     228508.33843   2781801.10661
  20096295.9504   -9289408.64344  -4646217.15161
  17352718.2944  -18736551.19046 -14544965.51162
  16469948.0524  -42277800.41848 -32824296.44263
  19717683.3804  -22620995.99046     26975.47161
  20252301.8884  -25891464.57142 -17097845.15161
  17604635.5914  -30682291.94546 -23801083.99062
 91  5  1 21 36 59.9850000  0  7G18G15G19G 2G11G16G 6
  20329251.6224     245192.80543   2794801.74661
  20083017.2634   -9359183.96744  -4700587.35761
  17350119.1934  -18750213.19946 -14555611.26962
  16460806.0994  -42325852.65248 -32861739.72563
  19718196.8884  -22618281.16546     29090.87861
  20250145.7084  -25902809.60843 -17106685.57461
  17591584.6614  -30750873.38446 -23854524.03762
 91  5  1 21 37 14.9850000  0  7G18G15G19G 2G11G16G 6
  20332426.8724     261884.12142   2807807.77661
  20069749.5214   -9428895.48643  -4754907.86961
  17347531.9274  -18763800.11146 -14566198.50762
  16451673.8414  -42373835.97748 -32899129.32064
  19718733.6074  -22615468.35546     31282.64661
  20248002.6384  -25914090.74545 -17115476.17561
  17578537.2714  -30819431.71246 -23907946.07462
 91  5  1 21 37 29.9850000  0  7G18G15G19G 2G11G16G 6
  20335603.7394     278580.75942   2820817.88261
  20056499.7784   -9498544.27744  -4809179.49361
  17344962.5284  -18777313.15846 -14576728.18562
  16442556.4584  -42421752.03948 -32936466.49863
  19719284.8184  -22612559.23446     33549.43161
  20245866.8414  -25925309.76944 -17124218.35161
  17565494.8184  -30887968.22646 -23961351.11562
 91  5  1 21 37 44.9850000  0  6G15G19G 2G11G16G 6
  20043260.0834   -9568122.70444  -4863396.27761
  17342406.3724  -18790744.66846 -14587194.32462
  16433450.8254  -42469593.39448 -32973745.46464
  19719860.2394  -22609546.74846     35896.77061
  20243742.5994  -25936459.32143 -17132906.48361
  17552459.1224  -30956475.27946 -24014733.19762
 91  5  1 21 37 59.9850000  0  6G15G19G 2G11G16G 6
  20030033.7944   -9637631.99944  -4917559.23661
  17339868.7714  -18804096.54246 -14597598.41662
  16424361.3644  -42517361.91748 -33010967.67563
  19720455.0364  -22606433.01546     38322.99561
  20241634.4824  -25947541.62044 -17141542.26461
  17539425.7634  -31024954.56546 -24068093.65362
 91  5  1 21 38 14.9850000  0  6G15G19G 2G11G16G 6
  20016822.3574   -9707075.53044  -4971670.89961
  17337339.5684  -18817372.36846 -14607943.25162
  16415284.1304  -42565061.24548 -33048135.97564
  19721061.3884  -22603221.99346     40825.01361
  20239535.5284  -25958560.87444 -17150128.76361
  17526399.4434  -31093409.41446 -24121435.05562
 91  5  1 21 38 29.9850000  0  6G15G19G 2G11G16G 6
  20003614.4584   -9776449.56944  -5025728.41961
  17334828.0444  -18830568.84446 -14618226.25662
  16406220.7164  -42612688.14048 -33085247.82664
  19721695.9504  -22599910.70746     43405.21061
  20237452.2784  -25969513.95244 -17158663.75061
  17513378.8884  -31161836.52546 -24174754.84462
 91  5  1 21 38 44.9850000  0  6G15G19G 2G11G16G 6
  19990423.2084   -9845756.14944  -5079733.40161
  17332330.2634  -18843688.60246 -14628449.47562
  16397172.4824  -42660245.12248 -33122305.20364
  19722343.2004  -22596501.98646     46061.30961
  20235377.8254  -25980403.57143 -17167149.26161
  17500362.5754  -31230237.98946 -24228054.65262
 91  5  1 21 38 59.9850000  0  6G15G19G 2G11G16G 6
  19977255.1464   -9914988.77044  -5133680.71461
  17329851.8644  -18856725.17546 -14638607.88562
  16388134.8804  -42707725.82248 -33159303.13764
  19723011.9194  -22592989.76546     48798.02361
  20233323.8804  -25991223.88744 -17175580.84161
  17487354.4664  -31298607.50246 -24281329.56062
 91  5  1 21 39 14.9850000  0  6G15G19G 2G11G16G 6
  19964093.8184   -9984149.16944  -5187571.78561
  17327381.1614  -18869680.69246 -14648703.12562
  16379116.5284  -42755132.62148 -33196243.48564
  19723700.0214  -22589376.62246     51613.42061
  20231281.1464  -26001977.43145 -17183960.27761
  17474349.5364  -31366947.17646 -24334581.21262
 91  5  1 21 39 29.9850000  0  6G15G19G 2G11G16G 6
  19950943.0994  -10053241.36344  -5241409.68961
  17324935.3964  -18882559.32646 -14658738.45662
  16370104.5834  -42802469.93648 -33233129.69264
  19724404.9894  -22585667.27346     54503.74261
  20229233.7634  -26012668.99043 -17192291.49461
  17461349.8494  -31435261.03946 -24387812.75862
 91  5  1 21 39 44.9840000  0  7G15G19G 2G11G16G 6G13
  19937809.6174  -10122254.36643  -5295185.89061
  17322498.7894  -18895354.28846 -14668708.59262
  16361115.6644  -42849728.83548 -33269954.79364
  19725129.1564  -22581856.41346     57473.18961
  20227215.3284  -26023292.15743 -17200569.49261
  17448356.1724  -31503538.53646 -24441015.97062
  20354315.6724         -0.15353
 91  5  1 21 39 59.9840000  0  7G15G19G 2G11G16G 6G13
  19924690.7664  -10191201.24944  -5348910.57261
  17320082.2504  -18908071.48546 -14678618.13961
  16352131.4924  -42896919.85848 -33306727.00964
  19725874.2894  -22577948.11346     60518.56961
  20225213.1334  -26033852.85343 -17208798.74261
  17435367.9534  -31571792.82146 -24494201.09162
  20335301.9924     -99915.95244
 91  5  1 21 40 14.9840000  0  7G15G19G 2G11G16G 6G13
  19911589.2974  -10260076.34444  -5402579.32061
  17317674.5634  -18920709.45946 -14688465.94262
  16343168.6494  -42944039.19648 -33343443.35964
  19726635.1884  -22573942.22946     63639.97661
  20223216.2354  -26044350.23844
  17422385.9924  -31640018.47446 -24547363.90362
  20316292.3364    -199822.24044
 91  5  1 21 40 29.9840000  0  7G15G19G 2G11G16G 6G13
  19898494.2194  -10328880.18444  -5456192.53861
  17315289.5474  -18933269.06446 -14698252.69361
  16334211.8834  -42991087.74448 -33380104.55664
  19727416.8524  -22569840.05546     66836.44661
  20221224.0634  -26054785.30543
  17409407.8524  -31708216.36046 -24600505.07562
  20297282.8524    -299719.72444
 91  5  1 21 40 44.9840000  0  7G15G19G 2G11G16G 6G13
  19885413.2744  -10397607.52444  -5509746.15561
  17312909.2114  -18945745.50946 -14707974.63862
  16325277.8524  -43038060.95548 -33416707.04064
  19728218.5164  -22565637.13345     70111.39061
  20219253.0314  -26065153.87543
  17396434.7034  -31776381.41046 -24653620.66362
  20278274.1564    -399603.27543
 91  5  1 21 40 59.9840000  0  7G15G19G 2G11G16G 6G13
  19872345.8204  -10466260.24344  -5563241.65561
  17310551.4384  -18958141.09846 -14717633.58062
  16316350.6804  -43084961.15048 -33453252.63864
  19729036.0944  -22561336.15045     73462.76761
  20217297.6804  -26075458.57443
  17383470.8754  -31844515.83546 -24706712.38362
  20259271.5634    -499474.78143
 91  5  1 21 41 14.9840000  0  7G15G19G 2G11G16G 6G13
  19859294.2274  -10534835.71344  -5616676.91261
  17308208.6334  -18970453.57546 -14727227.75861
  16307441.4924  -43131786.11448 -33489739.60564
  19729875.0394  -22556935.23646     76891.98861
  20215351.0314  -26085697.64644
  17370510.8604  -31912617.29546 -24759778.41762
  20240266.4854    -599331.65043
 91  5  1 21 41 29.9840000  0  7G15G19G 2G11G16G 6G13
  19846263.4384  -10603334.46844  -5670052.41961
  17305880.7814  -18982683.95446 -14736757.96762
  16298542.6334  -43178536.92148 -33526168.79364
  19730729.0944  -22552435.71045     80398.04561
  20213409.0634  -26095872.10044
  17357556.5634  -31980686.53146 -24812819.34262
  20221269.2194    -699174.59243
 91  5  1 21 41 44.9840000  0  7G15G19G 2G11G16G 6G13
  19833246.7194  -10671757.14444  -5723368.63961
  17303568.7424  -18994832.95546 -14746224.76762
  16289662.3364  -43225214.58748 -33562540.98764
  19731604.3364  -22547838.76945     83980.01261
  20211485.0244  -26105983.21242
  17344611.4854  -32048724.30546 -24865835.74862
  20202275.1024    -799004.06044
 91  5  1 21 41 59.9840000  0  7G15G19G 2G11G16G 6G13
  19820232.3674  -10740112.72644  -5776632.56461
  17301274.5474  -19006909.82346 -14755635.35961
  16280790.6494  -43271828.31448 -33598863.35864
  19732495.0474  -22543154.08445     87630.36261
  20209572.2194  -26116040.87043
  17331666.3364  -32116739.62446 -24918834.65562
  20183273.5784    -898828.57043
 91  5  1 21 42 14.9840000  0  7G15G19G 2G11G16G 6G13
  19807238.4924  -10808397.59044  -5829841.41561
  17298985.9614  -19018911.38546 -14764987.27062
  16271934.8054  -43318374.95248 -33635133.44864
  19733402.2424  -22538378.64745     91351.41361
  20207670.2194  -26126042.21644        -0.18471
  17318729.9144  -32184729.13946 -24971813.45662
  20164281.5554    -998644.79543
 91  5  1 21 42 29.9840000  0  7G15G19G 2G11G16G 6G13
  19794260.4454  -10876607.41544  -5882991.78861
  17296717.5314  -19030833.64846 -14774277.38162
  16263088.6954  -43364850.78448 -33671348.37464
  19734329.3054  -22533508.93045     95145.94261
  20205777.3524  -26135983.59944     -7746.85761
  17305796.7034  -32252688.80346 -25024768.99562
  20145290.3444   -1098448.41543
 91  5  1 21 42 44.9840000  0  7G15G19G 2G11G16G 6G13
  19781299.4454  -10944744.46144  -5936085.44361
  17294463.2814  -19042679.27146 -14783507.78161
  16254260.8054  -43411258.59748 -33707510.28964
  19735273.9614  -22528547.97545     99011.55461
  20203888.2664  -26145867.74442    -15448.87161
  17292870.1024  -32320621.27347 -25077703.34762
  20126300.8524   -1198241.89543
 91  5  1 21 42 59.9840000  0  7G15G19G 2G11G16G 6G13
  19768345.3604  -11012811.72945  -5989124.70861
  17292224.5314  -19054451.61246 -14792681.07862
  16245438.0784  -43457601.88748 -33743621.93364
  19736237.4694  -22523499.55145    102945.34461
  20202025.3914  -26155698.81942    -23109.48861
  17279948.4774  -32388529.53547 -25130618.83062
  20107311.1024   -1298028.31244
 91  5  1 21 43 14.9840000  0  7G15G19G 2G11G16G 6G13
  19755404.4774  -11080813.04344
  17289997.0394  -19066154.87546 -14801800.54762
  16236632.1724  -43503884.73048 -33779686.47164
  19737211.5554  -22518368.18745    106943.72261
  20200160.0244  -26165481.21843    -30732.38061
  17267029.8834  -32456417.66547
  20088322.8054   -1397811.09643
 91  5  1 21 43 29.9840000  0  7G15G19G 2G11G16G 6G13
  19742471.6954  -11148753.36944
  17287782.0004  -19077794.38546 -14810870.33862
  16227835.9614  -43550112.56848 -33815708.14964
  19738202.6414  -22513159.65745    111002.24961
  20198309.9694  -26175220.48044    -38321.52461
  17254116.2354  -32524291.00447
  20069334.7114   -1497595.49543
 91  5  1 21 43 44.9840000  0  7G15G19G 2G11G16G 6G13
  19729555.7744  -11216629.67044
  17285581.1494  -19089367.38246 -14819888.29361
  16219049.6644  -43596282.56748 -33851684.75964
  19739211.0864  -22507871.47545    115122.85061
  20196455.3994  -26184914.16442    -45875.16961
  17241201.6494  -32592146.49547
  20050344.6494   -1597378.30343
 91  5  1 21 43 59.9840000  0  7G15G19G 2G11G16G 6G13
  19716657.7504  -11284434.68745
  17283392.0864  -19100867.00346 -14828849.08161
  16210271.8204  -43642388.23648 -33887611.24664
  19740231.1564  -22502497.24245    119310.49461
  20194636.3994  -26194556.13244
  17228291.5394  -32659977.25247
  20031361.1254   -1697152.35943
 91  5  1 21 44 14.9840000  0  7G15G19G 2G11G16G 6G13
  19703761.0634  -11352171.12344  -6253559.91161
  17281216.9774  -19112296.29046 -14837755.06261
  16201515.1254  -43688432.68548 -33923490.01764
  19741266.6254  -22497040.32245    123562.57761
  20192804.7504  -26204149.86544
  17215389.7194  -32727786.18747 -25394974.45862
  20012374.3914   -1796920.28743
 91  5  1 21 44 29.9840000  0  7G15G19G 2G11G16G 6G13
  19690888.0944  -11419841.65345  -6306290.05461
  17279055.0394  -19123658.51146 -14846608.78561
  16192760.9774  -43734418.97248 -33959323.48064
  19742325.7584  -22491504.13845    127876.44061
  20190982.4694  -26213698.40542
  17202490.7814  -32795576.14247 -25447797.76062
  19993387.4694   -1896684.72743
 91  5  1 21 44 44.9840000  0  6G15G19G 2G11G 6G13
  19678025.0634  -11487438.44945  -6358962.72961
  17276904.5944  -19134945.77446 -14855404.09561
  16184025.3594  -43780339.58848 -33995105.76164
  19743394.8754  -22485881.43945    132257.71461
  17189596.0784  -32863339.25847 -25500600.15162
  19974405.7584   -1996437.70743        -0.06071
 91  5  1 21 44 59.9840000  0  7G15G19G 2G11G16G 6G13
  19665170.4064  -11554963.35545  -6411579.40061
  17274774.4854  -19146160.39246 -14864142.80161
  16175297.4844  -43826196.68348 -34030838.55164
  19744479.1174  -22480174.66345    136704.48261
  20187382.6024         -0.13854
  17176703.3754  -32931077.61247 -25553383.24162
  19955425.4694   -2096181.12844    -77722.00161
 91  5  1 21 45 14.9840000  0  7G15G19G 2G11G16G 6G13
  19652337.8204  -11622417.54345  -6464140.97261
  17272651.6954  -19157304.06146 -14872826.22461
  16166582.8364  -43871992.10548 -34066523.28464
  19745584.2744  -22474386.05345    141215.03661
  20185595.3444      -9399.31744
  17163818.5634  -32998792.86447 -25606148.33262
  19936445.0394   -2195916.46443   -155437.66861
 91  5  1 21 45 29.9840000  0  7G15G19G 2G11G16G 6G13
  19639515.5864  -11689796.05345  -6516643.55361
  17270544.8284  -19168372.38946 -14881450.93361
  16157880.3284  -43917721.65748 -34102156.69664
  19746699.6804  -22468511.57045    145792.51261
  20183821.1954     -18746.59343        -0.41671
  17150937.7974  -33066480.30647 -25658891.75362
  19917472.6174   -2295638.86343   -233143.13461
 91  5  1 21 45 44.9840000  0  7G15G19G 2G11G16G 6G13
  19626708.0314  -11757099.16045  -6569087.38861
  17268454.4694  -19179365.80746 -14890017.27362
  16149191.4144  -43963385.94148 -34137739.24464
  19747833.5944  -22462551.96645    150436.29461
  20182054.0004     -28042.85542     -7244.46161
  17138064.0554  -33134140.38947 -25711613.85262
  19898498.5314   -2395348.37243
 91  5  1 21 45 59.9840000  0  7G15G19G 2G11G16G 6G13
  19613915.0554  -11824331.23145  -6621475.86761
  17266377.8054  -19190289.06946 -14898528.94761
  16140512.2034  -44008989.83747 -34173274.74064
  19748978.6254  -22456512.44645    155142.33961
  20180292.7664     -37293.67144    -14453.13961
  17125189.2194  -33201777.67347 -25764318.18962
  19879521.8914   -2495049.38643
 91  5  1 21 46 14.9840000  0  7G15G19G 2G11G16G 6G13
  19601133.1494  -11891495.11845  -6673811.22961
  17264308.9224  -19201144.76246 -14906987.97261
  16131845.7424  -44054535.96448 -34208765.21364
  19750147.3604  -22450396.17545    159908.21961
  20178533.5084     -46502.16344    -21628.60761
  17112325.3444  -33269394.90647 -25817006.90762
  19860550.2974   -2594744.24844
 91  5  1 21 46 29.9840000  0  7G15G19G 2G11G16G 6G13
  19588364.8284  -11958590.47845  -6726093.17861
  17262257.6954  -19211933.34546 -14915394.70661
  16123189.8204  -44100024.65147 -34244210.93864
  19751328.8834  -22444203.63145    164733.50761
  20176790.5004     -55668.74442    -28771.41861
  17099462.6494  -33336991.95847 -25869679.89762
  19841580.8674   -2694432.80644
 91  5  1 21 46 44.9840000  0  7G15G19G 2G11G16G 6G13
  19575607.8994  -12025621.96945  -6778325.35361
  17260217.1174  -19222660.24746 -14923753.36761
  16114545.1254  -44145461.56847 -34279616.31564
  19752518.1494  -22437940.56545    169613.76861
  20175053.0244     -64798.84342    -35885.95361
  17086600.8994  -33404574.16747 -25922341.32262
  19822612.6884   -2794120.26144
 91  5  1 21 46 59.9840000  0  7G15G19G 2G11G16G 6G13
  19562864.1334  -12092591.12645  -6830508.97361
  17258185.4534  -19233326.83746 -14932065.03762
  16105908.0004  -44190848.13548 -34314982.46264
  19753720.0784  -22431608.77445    174547.55761
  20173322.3134     -73894.67744    -42973.79161
  17073740.8674  -33472142.80247 -25974992.17362
  19803642.1884   -2893807.68543
 91  5  1 21 47 14.9840000  0  7G15G19G 2G11G16G 6G13
  19550136.6414  -12159497.78245  -6882643.88861
  17256167.2354  -19243933.52846 -14940330.02861
  16097279.6334  -44236184.72647 -34350309.66764
  19754945.2894  -22425209.12045    179534.22661
  20171593.5864     -82956.94242    -50035.40561
  17060888.0244  -33539698.02347 -26027632.56562
  19784670.3054   -2993494.89244
 91  5  1 21 47 29.9840000  0  7G15G19G 2G11G16G 6G13
  19537413.0784  -12226340.09745  -6934728.67261
  17254161.1644  -19254478.99946 -14948547.32562
  16088662.7504  -44281470.06447 -34385596.93264
  19756173.0864  -22418740.52645    184574.60661
  20169877.2274     -91984.38442    -57069.89661
  17048036.8994  -33607238.37547 -26080261.38062
  19765699.5944   -3093180.30944
 91  5  1 21 47 44.9840000  0  7G15G19G 2G11G16G 6G13
  19524710.5554  -12293106.61945  -6986754.37861
  17252166.9534  -19264951.89046 -14956708.06462
  16080055.1724  -44326693.03047 -34420835.59664
  19757415.4614  -22412192.11045    189677.23061
  20168175.4534    -100966.37143
  17035187.3674  -33674752.32047 -26132869.60562
  19746734.2504   -3192851.94644
 91  5  1 21 47 59.9840000  0  7G15G19G 2G11G16G 6G13
  19512016.0394  -12359797.98845  -7038721.55261
  17250190.2354  -19275353.12946 -14964812.96062
  16071462.2814  -44371854.82947 -34456026.59664
  19758677.8754  -22405565.22845    194840.93761
  20166472.6884    -109904.12943
  17022346.1094  -33742240.74547 -26185457.95362
  19727766.8524   -3292510.75843
 91  5  1 21 48 14.9840000  0  7G15G19G 2G11G16G 6G13
  19499342.0164  -12426411.26445  -7090627.85861
  17248224.3204  -19285680.23746 -14972860.10161
  16062882.1884  -44416952.75148 -34491167.82364
  19759954.2584  -22398857.57645    200067.62861
  20164775.3134    -118795.61842
  17009508.0004  -33809700.81447 -26238024.20962
  19708806.7974   -3392153.51343        -0.20771
 91  5  1 21 48 29.9840000  0  7G15G19G 2G11G16G 6G13
  19486682.5864  -12492947.62945  -7142474.23761
  17246271.7354  -19295934.70546 -14980850.63161
  16054309.5394  -44461988.44547 -34526260.56164
  19761246.3914  -22392071.09045    205355.71261
  20163099.4454    -127642.55842        -0.09671
  16996674.8444  -33877134.07347 -26290569.57562
  19689850.0784   -3491781.73543    -77632.30661
 91  5  1 21 48 44.9840000  0  7G15G19G 2G11G16G 6G13
  19474030.4144  -12559419.29945  -7194270.22161
  17244333.9774  -19306129.35546 -14988794.55962
  16045749.1254  -44506974.74547 -34561314.80863
  19762550.0864  -22385218.94145    210694.99961
  20161423.3524    -136458.40544     -6869.69561
  16983844.9144  -33944552.96147 -26343103.74062
  19670894.7114   -3591407.62843   -155262.61161
 91  5  1 21 48 59.9840000  0  7G15G19G 2G11G16G 6G13
  19461395.6884  -12625823.31745  -7246013.48461
  17242404.3674  -19316261.31846 -14996689.63662
  16037199.3754  -44551908.93548 -34596328.45164
  19763865.5084  -22378298.62545    216087.35661
  20159748.1334    -145240.47843    -13712.92861
  16971019.4774  -34011954.53647 -26395624.41662
  19651933.8364   -3691027.96244   -232888.56061
 91  5  1 21 49 14.9840000  0  6G15G19G 2G11G 6G13
  19448768.2504  -12692164.29745  -7297707.61161
  17240488.3284  -19326335.63646 -15004539.80461
  16028657.1174  -44596796.27048 -34631305.58264
  19765195.2274  -22371315.67345    221528.56161
  16958196.9454  -34079343.68747 -26448135.41162
  19632975.6494   -3790647.62444   -310514.04461
